Wetterdaten: Dienstag, 23.02.2016
Datum Zeit Temp. A. Feuchte A. Luftdruck Regen Wind Richtung Richtung Sonnenschein ET UV Solar Taupunkt Windchill Windben Empfang
23.02.2016 00:00 12,3 C 51 % 1008,0 hPa 0,0 l/m 16,4 km/h (3 Bft) W-SW 254 0 min 0,000 mm 0,0 UV-I 0 W/m 2,5 C 7,4 C 22,5 km/h (4 Bft) 100,00 %
23.02.2016 00:02 12,3 C 50 % 1008,0 hPa 0,0 l/m 16,8 km/h (3 Bft) SW 217 0 min 0,000 mm 0,0 UV-I 0 W/m 2,2 C 7,3 C 22,5 km/h (4 Bft) 100,00 %
23.02.2016 00:03 12,3 C 51 % 1008,1 hPa 0,0 l/m 17,9 km/h (3 Bft) SW 236 0 min 0,000 mm 0,0 UV-I 0 W/m 2,5 C 6,9 C 22,5 km/h (4 Bft) 96,30 %
23.02.2016 00:04 12,3 C 51 % 1008,1 hPa 0,0 l/m 19,6 km/h (3 Bft) SW 235 0 min 0,000 mm 0,0 UV-I 0 W/m 2,5 C 6,4 C 25,7 km/h (4 Bft) 100,00 %
23.02.2016 00:05 12,2 C 51 % 1008,1 hPa 0,0 l/m 17,9 km/h (3 Bft) W-SW 254 0 min 0,000 mm 0,0 UV-I 0 W/m 2,4 C 6,8 C 22,5 km/h (4 Bft) 100,00 %
23.02.2016 00:06 12,2 C 51 % 1008,1 hPa 0,0 l/m 17,1 km/h (3 Bft) W-SW 240 0 min 0,000 mm 0,0 UV-I 0 W/m 2,4 C 7,0 C 22,5 km/h (4 Bft) 100,00 %
23.02.2016 00:07 12,2 C 51 % 1008,1 hPa 0,0 l/m 17,9 km/h (3 Bft) SW 228 0 min 0,000 mm 0,0 UV-I 0 W/m 2,4 C 6,8 C 22,5 km/h (4 Bft) 100,00 %
23.02.2016 00:08 12,2 C 52 % 1008,1 hPa 0,0 l/m 16,3 km/h (3 Bft) SW 232 0 min 0,000 mm 0,0 UV-I 0 W/m 2,6 C 7,3 C 22,5 km/h (4 Bft) 100,00 %
23.02.2016 00:09 12,2 C 52 % 1008,1 hPa 0,0 l/m 14,2 km/h (3 Bft) S-SW 196 0 min 0,000 mm 0,0 UV-I 0 W/m 2,6 C 8,1 C 19,3 km/h (3 Bft) 100,00 %
23.02.2016 00:10 12,2 C 52 % 1008,1 hPa 0,0 l/m 14,7 km/h (3 Bft) SW 215 0 min 0,000 mm 0,0 UV-I 0 W/m 2,6 C 7,9 C 20,9 km/h (4 Bft) 100,00 %
23.02.2016 00:11 12,2 C 52 % 1008,1 hPa 0,0 l/m 13,8 km/h (3 Bft) SW 220 0 min 0,000 mm 0,0 UV-I 0 W/m 2,6 C 8,3 C 19,3 km/h (3 Bft) 100,00 %
23.02.2016 00:12 12,2 C 52 % 1008,1 hPa 0,0 l/m 14,2 km/h (3 Bft) W-SW 256 0 min 0,000 mm 0,0 UV-I 0 W/m 2,6 C 8,1 C 17,7 km/h (3 Bft) 96,97 %
23.02.2016 00:13 12,1 C 52 % 1008,1 hPa 0,0 l/m 12,7 km/h (3 Bft) SW 231 0 min 0,000 mm 0,0 UV-I 0 W/m 2,5 C 8,6 C 17,7 km/h (3 Bft) 100,00 %
23.02.2016 00:14 12,1 C 52 % 1008,2 hPa 0,0 l/m 12,6 km/h (3 Bft) SW 220 0 min 0,000 mm 0,0 UV-I 0 W/m 2,5 C 8,7 C 17,7 km/h (3 Bft) 100,00 %
23.02.2016 00:15 12,1 C 52 % 1008,2 hPa 0,0 l/m 8,6 km/h (2 Bft) S 188 0 min 0,000 mm 0,0 UV-I 0 W/m 2,5 C 10,7 C 12,9 km/h (3 Bft) 100,00 %
23.02.2016 00:16 12,1 C 52 % 1008,1 hPa 0,0 l/m 13,0 km/h (3 Bft) S 188 0 min 0,000 mm 0,0 UV-I 0 W/m 2,5 C 8,5 C 25,7 km/h (4 Bft) 100,00 %
23.02.2016 00:17 12,1 C 52 % 1008,1 hPa 0,0 l/m 12,5 km/h (3 Bft) S-SW 206 0 min 0,000 mm 0,0 UV-I 0 W/m 2,5 C 8,7 C 19,3 km/h (3 Bft) 96,15 %
23.02.2016 00:18 12,1 C 52 % 1008,1 hPa 0,0 l/m 11,0 km/h (2 Bft) SW 220 0 min 0,000 mm 0,0 UV-I 0 W/m 2,5 C 9,4 C 16,1 km/h (3 Bft) 100,00 %
23.02.2016 00:19 12,1 C 52 % 1008,1 hPa 0,0 l/m 9,1 km/h (2 Bft) S-SW 211 0 min 0,000 mm 0,0 UV-I 0 W/m 2,5 C 10,4 C 12,9 km/h (3 Bft) 100,00 %
23.02.2016 00:20 12,1 C 52 % 1008,1 hPa 0,0 l/m 10,3 km/h (2 Bft) W-SW 246 0 min 0,000 mm 0,0 UV-I 0 W/m 2,5 C 9,8 C 14,5 km/h (3 Bft) 95,83 %
23.02.2016 00:21 12,2 C 51 % 1008,1 hPa 0,0 l/m 13,7 km/h (3 Bft) S-SW 202 0 min 0,000 mm 0,0 UV-I 0 W/m 2,4 C 8,3 C 20,9 km/h (4 Bft) 100,00 %
23.02.2016 00:22 12,2 C 51 % 1008,1 hPa 0,0 l/m 16,0 km/h (3 Bft) S-SW 207 0 min 0,000 mm 0,0 UV-I 0 W/m 2,4 C 7,4 C 22,5 km/h (4 Bft) 100,00 %
23.02.2016 00:23 12,2 C 51 % 1008,1 hPa 0,0 l/m 14,2 km/h (3 Bft) S 182 0 min 0,000 mm 0,0 UV-I 0 W/m 2,4 C 8,1 C 19,3 km/h (3 Bft) 100,00 %
23.02.2016 00:24 12,3 C 51 % 1008,1 hPa 0,0 l/m 13,2 km/h (3 Bft) S-SW 209 0 min 0,000 mm 0,0 UV-I 0 W/m 2,5 C 8,6 C 17,7 km/h (3 Bft) 100,00 %
23.02.2016 00:25 12,3 C 50 % 1008,0 hPa 0,0 l/m 11,6 km/h (2 Bft) S-SW 196 0 min 0,000 mm 0,0 UV-I 0 W/m 2,2 C 9,3 C 14,5 km/h (3 Bft) 100,00 %
23.02.2016 00:26 12,3 C 51 % 1008,0 hPa 0,0 l/m 11,3 km/h (2 Bft) SW 217 0 min 0,000 mm 0,0 UV-I 0 W/m 2,5 C 9,5 C 14,5 km/h (3 Bft) 100,00 %
23.02.2016 00:27 12,4 C 50 % 1008,0 hPa 0,0 l/m 14,4 km/h (3 Bft) S 189 0 min 0,000 mm 0,0 UV-I 0 W/m 2,3 C 8,3 C 17,7 km/h (3 Bft) 100,00 %
23.02.2016 00:28 12,4 C 50 % 1008,0 hPa 0,0 l/m 14,2 km/h (3 Bft) S-SW 204 0 min 0,000 mm 0,0 UV-I 0 W/m 2,3 C 8,4 C 19,3 km/h (3 Bft) 100,00 %
23.02.2016 00:29 12,4 C 50 % 1008,0 hPa 0,0 l/m 14,3 km/h (3 Bft) SW 227 0 min 0,000 mm 0,0 UV-I 0 W/m 2,3 C 8,3 C 19,3 km/h (3 Bft) 100,00 %
23.02.2016 00:30 12,4 C 50 % 1008,0 hPa 0,0 l/m 14,4 km/h (3 Bft) SW 216 0 min 0,000 mm 0,0 UV-I 0 W/m 2,3 C 8,3 C 19,3 km/h (3 Bft) 100,00 %
23.02.2016 00:31 12,5 C 50 % 1008,0 hPa 0,0 l/m 13,8 km/h (3 Bft) S-SO 167 0 min 0,000 mm 0,0 UV-I 0 W/m 2,4 C 8,6 C 22,5 km/h (4 Bft) 100,00 %
23.02.2016 00:32 12,6 C 49 % 1008,0 hPa 0,0 l/m 18,9 km/h (3 Bft) W-SW 238 0 min 0,000 mm 0,0 UV-I 0 W/m 2,2 C 7,0 C 29,0 km/h (5 Bft) 100,00 %
23.02.2016 00:33 12,6 C 49 % 1008,0 hPa 0,0 l/m 16,9 km/h (3 Bft) SW 235 0 min 0,000 mm 0,0 UV-I 0 W/m 2,2 C 7,6 C 25,7 km/h (4 Bft) 100,00 %
23.02.2016 00:34 12,6 C 50 % 1008,0 hPa 0,0 l/m 15,2 km/h (3 Bft) SW 225 0 min 0,000 mm 0,0 UV-I 0 W/m 2,5 C 8,2 C 19,3 km/h (3 Bft) 95,65 %
23.02.2016 00:35 12,6 C 50 % 1008,0 hPa 0,0 l/m 16,3 km/h (3 Bft) S-SW 204 0 min 0,000 mm 0,0 UV-I 0 W/m 2,5 C 7,8 C 30,6 km/h (5 Bft) 96,30 %
23.02.2016 00:36 12,7 C 49 % 1008,0 hPa 0,0 l/m 15,8 km/h (3 Bft) SW 226 0 min 0,000 mm 0,0 UV-I 0 W/m 2,3 C 8,1 C 20,9 km/h (4 Bft) 100,00 %
23.02.2016 00:37 12,7 C 50 % 1008,0 hPa 0,0 l/m 18,0 km/h (3 Bft) S-SO 167 0 min 0,000 mm 0,0 UV-I 0 W/m 2,6 C 7,4 C 22,5 km/h (4 Bft) 96,30 %
23.02.2016 00:38 12,7 C 49 % 1008,1 hPa 0,0 l/m 15,7 km/h (3 Bft) S-SW 206 0 min 0,000 mm 0,0 UV-I 0 W/m 2,3 C 8,2 C 20,9 km/h (4 Bft) 100,00 %
23.02.2016 00:39 12,7 C 49 % 1008,1 hPa 0,0 l/m 11,4 km/h (2 Bft) S-SW 206 0 min 0,000 mm 0,0 UV-I 0 W/m 2,3 C 9,9 C 14,5 km/h (3 Bft) 93,33 %
23.02.2016 00:40 12,7 C 49 % 1008,1 hPa 0,0 l/m 12,5 km/h (3 Bft) S-SW 195 0 min 0,000 mm 0,0 UV-I 0 W/m 2,3 C 9,4 C 16,1 km/h (3 Bft) 100,00 %
23.02.2016 00:41 12,7 C 49 % 1008,1 hPa 0,0 l/m 13,0 km/h (3 Bft) SW 222 0 min 0,000 mm 0,0 UV-I 0 W/m 2,3 C 9,2 C 17,7 km/h (3 Bft) 90,00 %
23.02.2016 00:42 12,7 C 49 % 1008,0 hPa 0,0 l/m 14,0 km/h (3 Bft) SW 236 0 min 0,000 mm 0,0 UV-I 0 W/m 2,3 C 8,8 C 19,3 km/h (3 Bft) 100,00 %
23.02.2016 00:43 12,7 C 50 % 1008,1 hPa 0,0 l/m 14,2 km/h (3 Bft) SW 224 0 min 0,000 mm 0,0 UV-I 0 W/m 2,6 C 8,7 C 20,9 km/h (4 Bft) 96,15 %
23.02.2016 00:44 12,7 C 49 % 1008,1 hPa 0,0 l/m 14,6 km/h (3 Bft) W 261 0 min 0,000 mm 0,0 UV-I 0 W/m 2,3 C 8,6 C 20,9 km/h (4 Bft) 92,59 %
23.02.2016 00:45 12,7 C 49 % 1008,1 hPa 0,0 l/m 13,3 km/h (3 Bft) SW 232 0 min 0,000 mm 0,0 UV-I 0 W/m 2,3 C 9,1 C 19,3 km/h (3 Bft) 100,00 %
23.02.2016 00:46 12,7 C 50 % 1008,1 hPa 0,0 l/m 18,5 km/h (3 Bft) SW 217 0 min 0,000 mm 0,0 UV-I 0 W/m 2,6 C 7,2 C 25,7 km/h (4 Bft) 95,83 %
23.02.2016 00:47 12,7 C 50 % 1008,2 hPa 0,0 l/m 17,5 km/h (3 Bft) S 171 0 min 0,000 mm 0,0 UV-I 0 W/m 2,6 C 7,5 C 27,4 km/h (4 Bft) 100,00 %
23.02.2016 00:48 12,7 C 50 % 1008,2 hPa 0,0 l/m 14,3 km/h (3 Bft) S-SW 198 0 min 0,000 mm 0,0 UV-I 0 W/m 2,6 C 8,7 C 22,5 km/h (4 Bft) 95,83 %
23.02.2016 00:49 12,7 C 50 % 1008,2 hPa 0,0 l/m 15,5 km/h (3 Bft) SW 220 0 min 0,000 mm 0,0 UV-I 0 W/m 2,6 C 8,2 C 20,9 km/h (4 Bft) 100,00 %
23.02.2016 00:50 12,7 C 49 % 1008,2 hPa 0,0 l/m 13,3 km/h (3 Bft) SW 227 0 min 0,000 mm 0,0 UV-I 0 W/m 2,3 C 9,1 C 20,9 km/h (4 Bft) 96,30 %
23.02.2016 00:51 12,7 C 50 % 1008,1 hPa 0,0 l/m 13,5 km/h (3 Bft) W-SW 241 0 min 0,000 mm 0,0 UV-I 0 W/m 2,6 C 9,0 C 22,5 km/h (4 Bft) 98,54 %
23.02.2016 00:52 12,7 C 50 % 1008,1 hPa 0,0 l/m 13,5 km/h (3 Bft) SW 215 0 min 0,000 mm 0,0 UV-I 0 W/m 2,6 C 9,0 C 22,5 km/h (4 Bft) 97,73 %
23.02.2016 00:53 12,7 C 50 % 1008,1 hPa 0,0 l/m 15,0 km/h (3 Bft) S-SW 200 0 min 0,000 mm 0,0 UV-I 0 W/m 2,6 C 8,4 C 20,9 km/h (4 Bft) 96,15 %
23.02.2016 00:54 12,7 C 50 % 1008,1 hPa 0,0 l/m 11,2 km/h (2 Bft) W-SW 242 0 min 0,000 mm 0,0 UV-I 0 W/m 2,6 C 10,0 C 17,7 km/h (3 Bft) 96,30 %
23.02.2016 00:55 12,6 C 50 % 1008,0 hPa 0,0 l/m 15,9 km/h (3 Bft) W-SW 237 0 min 0,000 mm 0,0 UV-I 0 W/m 2,5 C 8,0 C 19,3 km/h (3 Bft) 95,65 %
23.02.2016 00:56 12,6 C 51 % 1008,0 hPa 0,0 l/m 18,6 km/h (3 Bft) SW 223 0 min 0,000 mm 0,0 UV-I 0 W/m 2,7 C 7,1 C 22,5 km/h (4 Bft) 100,00 %
23.02.2016 00:57 12,6 C 51 % 1008,0 hPa 0,0 l/m 16,7 km/h (3 Bft) W-SW 240 0 min 0,000 mm 0,0 UV-I 0 W/m 2,7 C 7,7 C 22,5 km/h (4 Bft) 96,15 %
23.02.2016 00:58 12,5 C 51 % 1008,0 hPa 0,0 l/m 16,6 km/h (3 Bft) SW 219 0 min 0,000 mm 0,0 UV-I 0 W/m 2,6 C 7,6 C 22,5 km/h (4 Bft) 100,00 %
23.02.2016 00:59 12,4 C 52 % 1008,0 hPa 0,0 l/m 14,9 km/h (3 Bft) W-SW 238 0 min 0,000 mm 0,0 UV-I 0 W/m 2,8 C 8,1 C 17,7 km/h (3 Bft) 95,65 %
23.02.2016 01:00 12,4 C 52 % 1008,0 hPa 0,0 l/m 15,3 km/h (3 Bft) SW 225 0 min 0,076 mm 0,0 UV-I 0 W/m 2,8 C 7,9 C 20,9 km/h (4 Bft) 95,83 %
23.02.2016 01:01 12,4 C 52 % 1007,9 hPa 0,0 l/m 16,9 km/h (3 Bft) SW 225 0 min 0,000 mm 0,0 UV-I 0 W/m 2,8 C 7,4 C 24,1 km/h (4 Bft) 100,00 %
23.02.2016 01:02 12,3 C 53 % 1008,0 hPa 0,0 l/m 19,2 km/h (3 Bft) SW 221 0 min 0,000 mm 0,0 UV-I 0 W/m 3,0 C 6,5 C 25,7 km/h (4 Bft) 95,83 %
23.02.2016 01:03 12,3 C 53 % 1007,9 hPa 0,0 l/m 16,2 km/h (3 Bft) SW 228 0 min 0,000 mm 0,0 UV-I 0 W/m 3,0 C 7,5 C 20,9 km/h (4 Bft) 100,00 %
23.02.2016 01:04 12,3 C 53 % 1007,9 hPa 0,0 l/m 17,6 km/h (3 Bft) SW 223 0 min 0,000 mm 0,0 UV-I 0 W/m 3,0 C 7,0 C 22,5 km/h (4 Bft) 96,55 %
23.02.2016 01:05 12,2 C 53 % 1007,9 hPa 0,0 l/m 14,6 km/h (3 Bft) W-SW 255 0 min 0,000 mm 0,0 UV-I 0 W/m 2,9 C 8,0 C 20,9 km/h (4 Bft) 100,00 %
23.02.2016 01:06 12,2 C 53 % 1008,0 hPa 0,0 l/m 17,0 km/h (3 Bft) SW 228 0 min 0,000 mm 0,0 UV-I 0 W/m 2,9 C 7,1 C 20,9 km/h (4 Bft) 95,83 %
23.02.2016 01:07 12,2 C 53 % 1008,0 hPa 0,0 l/m 18,5 km/h (3 Bft) W 259 0 min 0,000 mm 0,0 UV-I 0 W/m 2,9 C 6,6 C 27,4 km/h (4 Bft) 100,00 %
23.02.2016 01:08 12,2 C 53 % 1008,0 hPa 0,0 l/m 14,6 km/h (3 Bft) S-SW 213 0 min 0,000 mm 0,0 UV-I 0 W/m 2,9 C 8,0 C 24,1 km/h (4 Bft) 100,00 %
23.02.2016 01:09 12,2 C 53 % 1008,0 hPa 0,0 l/m 15,2 km/h (3 Bft) W-SW 252 0 min 0,000 mm 0,0 UV-I 0 W/m 2,9 C 7,7 C 17,7 km/h (3 Bft) 100,00 %
23.02.2016 01:10 12,2 C 53 % 1008,0 hPa 0,0 l/m 13,0 km/h (3 Bft) SW 232 0 min 0,000 mm 0,0 UV-I 0 W/m 2,9 C 8,6 C 17,7 km/h (3 Bft) 100,00 %
23.02.2016 01:11 12,2 C 54 % 1007,9 hPa 0,0 l/m 12,8 km/h (3 Bft) W-SW 243 0 min 0,000 mm 0,0 UV-I 0 W/m 3,2 C 8,7 C 16,1 km/h (3 Bft) 94,44 %
23.02.2016 01:12 12,2 C 53 % 1008,0 hPa 0,0 l/m 13,8 km/h (3 Bft) W-SW 241 0 min 0,000 mm 0,0 UV-I 0 W/m 2,9 C 8,3 C 17,7 km/h (3 Bft) 96,15 %
23.02.2016 01:13 12,2 C 54 % 1008,0 hPa 0,0 l/m 13,7 km/h (3 Bft) W 262 0 min 0,000 mm 0,0 UV-I 0 W/m 3,2 C 8,3 C 17,7 km/h (3 Bft) 100,00 %
23.02.2016 01:14 12,2 C 53 % 1008,0 hPa 0,0 l/m 16,4 km/h (3 Bft) W-SW 252 0 min 0,000 mm 0,0 UV-I 0 W/m 2,9 C 7,3 C 20,9 km/h (4 Bft) 100,00 %
23.02.2016 01:15 12,1 C 53 % 1008,1 hPa 0,0 l/m 18,3 km/h (3 Bft) W-NW 287 0 min 0,000 mm 0,0 UV-I 0 W/m 2,8 C 6,5 C 25,7 km/h (4 Bft) 100,00 %
23.02.2016 01:16 12,1 C 54 % 1008,0 hPa 0,0 l/m 17,9 km/h (3 Bft) W-SW 238 0 min 0,000 mm 0,0 UV-I 0 W/m 3,1 C 6,7 C 20,9 km/h (4 Bft) 100,00 %
23.02.2016 01:17 12,1 C 53 % 1008,0 hPa 0,0 l/m 19,2 km/h (3 Bft) SW 231 0 min 0,000 mm 0,0 UV-I 0 W/m 2,8 C 6,2 C 27,4 km/h (4 Bft) 100,00 %
23.02.2016 01:18 12,2 C 53 % 1008,0 hPa 0,0 l/m 18,1 km/h (3 Bft) SW 228 0 min 0,000 mm 0,0 UV-I 0 W/m 2,9 C 6,7 C 24,1 km/h (4 Bft) 100,00 %
23.02.2016 01:19 12,2 C 53 % 1007,9 hPa 0,0 l/m 19,9 km/h (4 Bft) W 267 0 min 0,000 mm 0,0 UV-I 0 W/m 2,9 C 6,2 C 33,8 km/h (5 Bft) 100,00 %
23.02.2016 01:20 12,2 C 52 % 1007,9 hPa 0,0 l/m 17,6 km/h (3 Bft) W-SW 252 0 min 0,000 mm 0,0 UV-I 0 W/m 2,6 C 6,9 C 25,7 km/h (4 Bft) 95,65 %
23.02.2016 01:21 12,2 C 53 % 1007,9 hPa 0,0 l/m 16,1 km/h (3 Bft) SW 224 0 min 0,000 mm 0,0 UV-I 0 W/m 2,9 C 7,4 C 22,5 km/h (4 Bft) 100,00 %
23.02.2016 01:22 12,3 C 53 % 1007,9 hPa 0,0 l/m 13,2 km/h (3 Bft) W 269 0 min 0,000 mm 0,0 UV-I 0 W/m 3,0 C 8,6 C 20,9 km/h (4 Bft) 100,00 %
23.02.2016 01:23 12,3 C 53 % 1007,9 hPa 0,0 l/m 18,2 km/h (3 Bft) W-SW 251 0 min 0,000 mm 0,0 UV-I 0 W/m 3,0 C 6,8 C 25,7 km/h (4 Bft) 100,00 %
23.02.2016 01:24 12,3 C 52 % 1007,8 hPa 0,0 l/m 17,5 km/h (3 Bft) W-SW 253 0 min 0,000 mm 0,0 UV-I 0 W/m 2,7 C 7,0 C 27,4 km/h (4 Bft) 100,00 %
23.02.2016 01:25 12,3 C 51 % 1007,8 hPa 0,0 l/m 23,9 km/h (4 Bft) SW 224 0 min 0,000 mm 0,0 UV-I 0 W/m 2,5 C 5,2 C 30,6 km/h (5 Bft) 100,00 %
23.02.2016 01:26 12,3 C 51 % 1007,8 hPa 0,0 l/m 20,4 km/h (4 Bft) W-SW 246 0 min 0,000 mm 0,0 UV-I 0 W/m 2,5 C 6,1 C 25,7 km/h (4 Bft) 100,00 %
23.02.2016 01:27 12,4 C 51 % 1007,8 hPa 0,0 l/m 21,1 km/h (4 Bft) W 273 0 min 0,000 mm 0,0 UV-I 0 W/m 2,6 C 6,1 C 24,1 km/h (4 Bft) 100,00 %
23.02.2016 01:28 12,4 C 51 % 1007,8 hPa 0,0 l/m 18,5 km/h (3 Bft) W 263 0 min 0,000 mm 0,0 UV-I 0 W/m 2,6 C 6,8 C 22,5 km/h (4 Bft) 100,00 %
23.02.2016 01:29 12,4 C 51 % 1007,8 hPa 0,0 l/m 17,8 km/h (3 Bft) W-SW 245 0 min 0,000 mm 0,0 UV-I 0 W/m 2,6 C 7,1 C 22,5 km/h (4 Bft) 100,00 %
23.02.2016 01:30 12,5 C 51 % 1007,8 hPa 0,0 l/m 13,2 km/h (3 Bft) SW 232 0 min 0,000 mm 0,0 UV-I 0 W/m 2,6 C 8,9 C 20,9 km/h (4 Bft) 100,00 %
23.02.2016 01:31 12,5 C 51 % 1007,8 hPa 0,0 l/m 15,1 km/h (3 Bft) W-SW 250 0 min 0,000 mm 0,0 UV-I 0 W/m 2,6 C 8,1 C 17,7 km/h (3 Bft) 100,00 %
23.02.2016 01:32 12,5 C 51 % 1007,8 hPa 0,0 l/m 14,3 km/h (3 Bft) W-SW 250 0 min 0,000 mm 0,0 UV-I 0 W/m 2,6 C 8,4 C 19,3 km/h (3 Bft) 100,00 %
23.02.2016 01:33 12,5 C 51 % 1007,8 hPa 0,0 l/m 16,0 km/h (3 Bft) W 259 0 min 0,000 mm 0,0 UV-I 0 W/m 2,6 C 7,8 C 20,9 km/h (4 Bft) 95,65 %
23.02.2016 01:34 12,5 C 51 % 1007,8 hPa 0,0 l/m 13,4 km/h (3 Bft) W 272 0 min 0,000 mm 0,0 UV-I 0 W/m 2,6 C 8,8 C 17,7 km/h (3 Bft) 100,00 %
23.02.2016 01:35 12,5 C 51 % 1007,9 hPa 0,0 l/m 12,9 km/h (3 Bft) W-SW 252 0 min 0,000 mm 0,0 UV-I 0 W/m 2,6 C 9,0 C 16,1 km/h (3 Bft) 100,00 %
23.02.2016 01:36 12,4 C 51 % 1007,9 hPa 0,0 l/m 12,7 km/h (3 Bft) W-SW 248 0 min 0,000 mm 0,0 UV-I 0 W/m 2,6 C 9,0 C 16,1 km/h (3 Bft) 100,00 %
23.02.2016 01:37 12,4 C 52 % 1007,9 hPa 0,0 l/m 13,0 km/h (3 Bft) W-SW 242 0 min 0,000 mm 0,0 UV-I 0 W/m 2,8 C 8,8 C 16,1 km/h (3 Bft) 100,00 %
23.02.2016 01:38 12,4 C 52 % 1007,9 hPa 0,0 l/m 10,5 km/h (2 Bft) W-SW 238 0 min 0,000 mm 0,0 UV-I 0 W/m 2,8 C 10,0 C 16,1 km/h (3 Bft) 100,00 %
23.02.2016 01:39 12,4 C 52 % 1007,9 hPa 0,0 l/m 11,6 km/h (2 Bft) W-SW 242 0 min 0,000 mm 0,0 UV-I 0 W/m 2,8 C 9,5 C 14,5 km/h (3 Bft) 100,00 %
23.02.2016 01:40 12,3 C 53 % 1007,9 hPa 0,0 l/m 8,6 km/h (2 Bft) SW 219 0 min 0,000 mm 0,0 UV-I 0 W/m 3,0 C 10,9 C 12,9 km/h (3 Bft) 97,62 %
23.02.2016 01:41 12,3 C 53 % 1007,9 hPa 0,0 l/m 10,9 km/h (2 Bft) SW 218 0 min 0,000 mm 0,0 UV-I 0 W/m 3,0 C 9,7 C 16,1 km/h (3 Bft) 100,00 %
23.02.2016 01:42 12,3 C 53 % 1007,9 hPa 0,0 l/m 11,9 km/h (2 Bft) S-SW 207 0 min 0,000 mm 0,0 UV-I 0 W/m 3,0 C 9,2 C 17,7 km/h (3 Bft) 100,00 %
23.02.2016 01:43 12,2 C 53 % 1007,8 hPa 0,0 l/m 12,9 km/h (3 Bft) W-SW 246 0 min 0,000 mm 0,0 UV-I 0 W/m 2,9 C 8,6 C 16,1 km/h (3 Bft) 100,00 %
23.02.2016 01:44 12,2 C 53 % 1007,9 hPa 0,0 l/m 12,3 km/h (3 Bft) SW 236 0 min 0,000 mm 0,0 UV-I 0 W/m 2,9 C 8,9 C 17,7 km/h (3 Bft) 100,00 %
23.02.2016 01:45 12,2 C 53 % 1007,8 hPa 0,0 l/m 12,1 km/h (2 Bft) SW 226 0 min 0,000 mm 0,0 UV-I 0 W/m 2,9 C 9,0 C 16,1 km/h (3 Bft) 100,00 %
23.02.2016 01:46 12,2 C 53 % 1007,9 hPa 0,0 l/m 10,7 km/h (2 Bft) SW 214 0 min 0,000 mm 0,0 UV-I 0 W/m 2,9 C 9,7 C 14,5 km/h (3 Bft) 95,65 %
23.02.2016 01:47 12,2 C 53 % 1007,9 hPa 0,0 l/m 12,4 km/h (3 Bft) W-SW 240 0 min 0,000 mm 0,0 UV-I 0 W/m 2,9 C 8,9 C 19,3 km/h (3 Bft) 100,00 %
23.02.2016 01:48 12,2 C 54 % 1007,9 hPa 0,0 l/m 13,1 km/h (3 Bft) SW 232 0 min 0,000 mm 0,0 UV-I 0 W/m 3,2 C 8,6 C 17,7 km/h (3 Bft) 100,00 %
23.02.2016 01:49 12,2 C 54 % 1007,9 hPa 0,0 l/m 12,1 km/h (2 Bft) S-SW 212 0 min 0,000 mm 0,0 UV-I 0 W/m 3,2 C 9,0 C 16,1 km/h (3 Bft) 100,00 %
23.02.2016 01:50 12,2 C 54 % 1007,9 hPa 0,0 l/m 10,7 km/h (2 Bft) SW 226 0 min 0,000 mm 0,0 UV-I 0 W/m 3,2 C 9,7 C 14,5 km/h (3 Bft) 100,00 %
23.02.2016 01:51 12,2 C 55 % 1007,9 hPa 0,0 l/m 11,2 km/h (2 Bft) W-SW 243 0 min 0,000 mm 0,0 UV-I 0 W/m 3,4 C 9,4 C 20,9 km/h (4 Bft) 100,00 %
23.02.2016 01:52 12,1 C 55 % 1007,9 hPa 0,0 l/m 12,1 km/h (2 Bft) SW 235 0 min 0,000 mm 0,0 UV-I 0 W/m 3,3 C 8,9 C 17,7 km/h (3 Bft) 98,73 %
23.02.2016 01:53 12,1 C 55 % 1007,9 hPa 0,0 l/m 11,3 km/h (2 Bft) S-SW 204 0 min 0,000 mm 0,0 UV-I 0 W/m 3,3 C 9,3 C 17,7 km/h (3 Bft) 97,73 %
23.02.2016 01:54 12,0 C 55 % 1007,9 hPa 0,0 l/m 9,2 km/h (2 Bft) W-SW 255 0 min 0,000 mm 0,0 UV-I 0 W/m 3,2 C 10,2 C 12,9 km/h (3 Bft) 96,15 %
23.02.2016 01:55 12,0 C 55 % 1007,9 hPa 0,0 l/m 12,6 km/h (3 Bft) SW 232 0 min 0,000 mm 0,0 UV-I 0 W/m 3,2 C 8,5 C 19,3 km/h (3 Bft) 100,00 %
23.02.2016 01:56 12,0 C 55 % 1007,9 hPa 0,0 l/m 10,0 km/h (2 Bft) S-SW 213 0 min 0,000 mm 0,0 UV-I 0 W/m 3,2 C 9,8 C 14,5 km/h (3 Bft) 100,00 %
23.02.2016 01:57 11,9 C 55 % 1007,9 hPa 0,0 l/m 7,9 km/h (2 Bft) S-SW 192 0 min 0,000 mm 0,0 UV-I 0 W/m 3,2 C 10,9 C 12,9 km/h (3 Bft) 100,00 %
23.02.2016 01:58 11,9 C 55 % 1007,9 hPa 0,0 l/m 10,7 km/h (2 Bft) W-SW 238 0 min 0,000 mm 0,0 UV-I 0 W/m 3,2 C 9,3 C 17,7 km/h (3 Bft) 100,00 %
23.02.2016 01:59 11,9 C 56 % 1007,9 hPa 0,0 l/m 12,2 km/h (2 Bft) W-SW 239 0 min 0,000 mm 0,0 UV-I 0 W/m 3,4 C 8,6 C 16,1 km/h (3 Bft) 100,00 %
23.02.2016 02:00 11,9 C 56 % 1007,9 hPa 0,0 l/m 14,1 km/h (3 Bft) W-SW 238 0 min 0,076 mm 0,0 UV-I 0 W/m 3,4 C 7,8 C 19,3 km/h (3 Bft) 95,65 %
23.02.2016 02:01 11,9 C 56 % 1007,8 hPa 0,0 l/m 13,2 km/h (3 Bft) S-SW 212 0 min 0,000 mm 0,0 UV-I 0 W/m 3,4 C 8,2 C 22,5 km/h (4 Bft) 100,00 %
23.02.2016 02:02 11,9 C 56 % 1007,9 hPa 0,0 l/m 12,1 km/h (2 Bft) W 261 0 min 0,000 mm 0,0 UV-I 0 W/m 3,4 C 8,7 C 16,1 km/h (3 Bft) 100,00 %
23.02.2016 02:03 11,9 C 56 % 1007,8 hPa 0,0 l/m 13,0 km/h (3 Bft) SW 227 0 min 0,000 mm 0,0 UV-I 0 W/m 3,4 C 8,3 C 17,7 km/h (3 Bft) 95,83 %
23.02.2016 02:04 11,9 C 56 % 1007,8 hPa 0,0 l/m 10,1 km/h (2 Bft) SW 225 0 min 0,000 mm 0,0 UV-I 0 W/m 3,4 C 9,6 C 16,1 km/h (3 Bft) 100,00 %
23.02.2016 02:05 11,9 C 56 % 1007,8 hPa 0,0 l/m 13,0 km/h (3 Bft) SW 228 0 min 0,000 mm 0,0 UV-I 0 W/m 3,4 C 8,3 C 17,7 km/h (3 Bft) 92,31 %
23.02.2016 02:06 11,9 C 56 % 1007,8 hPa 0,0 l/m 8,8 km/h (2 Bft) S-SW 205 0 min 0,000 mm 0,0 UV-I 0 W/m 3,4 C 10,4 C 14,5 km/h (3 Bft) 100,00 %
23.02.2016 02:07 11,9 C 56 % 1007,8 hPa 0,0 l/m 11,2 km/h (2 Bft) SW 230 0 min 0,000 mm 0,0 UV-I 0 W/m 3,4 C 9,1 C 16,1 km/h (3 Bft) 100,00 %
23.02.2016 02:08 11,9 C 57 % 1007,8 hPa 0,0 l/m 8,5 km/h (2 Bft) SW 229 0 min 0,000 mm 0,0 UV-I 0 W/m 3,7 C 10,5 C 12,9 km/h (3 Bft) 93,33 %
23.02.2016 02:09 11,9 C 57 % 1007,8 hPa 0,0 l/m 8,6 km/h (2 Bft) SW 225 0 min 0,000 mm 0,0 UV-I 0 W/m 3,7 C 10,5 C 11,3 km/h (2 Bft) 100,00 %
23.02.2016 02:10 11,9 C 57 % 1007,8 hPa 0,0 l/m 11,4 km/h (2 Bft) SW 232 0 min 0,000 mm 0,0 UV-I 0 W/m 3,7 C 9,0 C 16,1 km/h (3 Bft) 100,00 %
23.02.2016 02:11 11,9 C 57 % 1007,8 hPa 0,0 l/m 12,0 km/h (2 Bft) SW 221 0 min 0,000 mm 0,0 UV-I 0 W/m 3,7 C 8,7 C 16,1 km/h (3 Bft) 92,31 %
23.02.2016 02:12 11,9 C 57 % 1007,8 hPa 0,0 l/m 13,4 km/h (3 Bft) SW 226 0 min 0,000 mm 0,0 UV-I 0 W/m 3,7 C 8,1 C 19,3 km/h (3 Bft) 100,00 %
23.02.2016 02:13 11,8 C 57 % 1007,7 hPa 0,0 l/m 13,7 km/h (3 Bft) SW 235 0 min 0,000 mm 0,0 UV-I 0 W/m 3,6 C 7,8 C 19,3 km/h (3 Bft) 100,00 %
23.02.2016 02:14 11,8 C 57 % 1007,7 hPa 0,0 l/m 11,9 km/h (2 Bft) W-SW 249 0 min 0,000 mm 0,0 UV-I 0 W/m 3,6 C 8,6 C 17,7 km/h (3 Bft) 100,00 %
23.02.2016 02:15 11,9 C 57 % 1007,7 hPa 0,0 l/m 11,3 km/h (2 Bft) S-SW 192 0 min 0,000 mm 0,0 UV-I 0 W/m 3,7 C 9,0 C 16,1 km/h (3 Bft) 100,00 %
23.02.2016 02:16 11,9 C 57 % 1007,7 hPa 0,0 l/m 11,8 km/h (2 Bft) S-SW 198 0 min 0,000 mm 0,0 UV-I 0 W/m 3,7 C 8,8 C 19,3 km/h (3 Bft) 96,30 %
23.02.2016 02:17 11,9 C 57 % 1007,7 hPa 0,0 l/m 10,9 km/h (2 Bft) W-SW 258 0 min 0,000 mm 0,0 UV-I 0 W/m 3,7 C 9,2 C 19,3 km/h (3 Bft) 90,91 %
23.02.2016 02:18 11,9 C 58 % 1007,7 hPa 0,0 l/m 13,9 km/h (3 Bft) S-SW 212 0 min 0,000 mm 0,0 UV-I 0 W/m 3,9 C 7,9 C 17,7 km/h (3 Bft) 100,00 %
23.02.2016 02:19 11,9 C 57 % 1007,7 hPa 0,0 l/m 13,3 km/h (3 Bft) W-SW 246 0 min 0,000 mm 0,0 UV-I 0 W/m 3,7 C 8,1 C 17,7 km/h (3 Bft) 100,00 %
23.02.2016 02:20 11,8 C 58 % 1007,7 hPa 0,0 l/m 12,1 km/h (2 Bft) SW 229 0 min 0,000 mm 0,0 UV-I 0 W/m 3,8 C 8,5 C 16,1 km/h (3 Bft) 100,00 %
23.02.2016 02:21 11,8 C 58 % 1007,7 hPa 0,0 l/m 12,2 km/h (2 Bft) SW 229 0 min 0,000 mm 0,0 UV-I 0 W/m 3,8 C 8,5 C 16,1 km/h (3 Bft) 100,00 %
23.02.2016 02:22 11,8 C 58 % 1007,7 hPa 0,0 l/m 12,1 km/h (2 Bft) SW 224 0 min 0,000 mm 0,0 UV-I 0 W/m 3,8 C 8,5 C 16,1 km/h (3 Bft) 96,30 %
23.02.2016 02:23 11,8 C 58 % 1007,7 hPa 0,0 l/m 11,5 km/h (2 Bft) W-SW 248 0 min 0,000 mm 0,0 UV-I 0 W/m 3,8 C 8,8 C 16,1 km/h (3 Bft) 98,65 %
23.02.2016 02:24 11,8 C 58 % 1007,8 hPa 0,0 l/m 12,2 km/h (2 Bft) SW 221 0 min 0,000 mm 0,0 UV-I 0 W/m 3,8 C 8,5 C 17,7 km/h (3 Bft) 100,00 %
23.02.2016 02:25 11,8 C 58 % 1007,8 hPa 0,0 l/m 12,9 km/h (3 Bft) W-SW 256 0 min 0,000 mm 0,0 UV-I 0 W/m 3,8 C 8,2 C 17,7 km/h (3 Bft) 96,15 %
23.02.2016 02:26 11,7 C 59 % 1007,8 hPa 0,0 l/m 13,0 km/h (3 Bft) SW 219 0 min 0,000 mm 0,0 UV-I 0 W/m 4,0 C 8,0 C 16,1 km/h (3 Bft) 100,00 %
23.02.2016 02:27 11,7 C 59 % 1007,8 hPa 0,0 l/m 13,5 km/h (3 Bft) SW 229 0 min 0,000 mm 0,0 UV-I 0 W/m 4,0 C 7,8 C 19,3 km/h (3 Bft) 100,00 %
23.02.2016 02:28 11,6 C 59 % 1007,8 hPa 0,0 l/m 15,8 km/h (3 Bft) SW 232 0 min 0,000 mm 0,0 UV-I 0 W/m 3,9 C 6,8 C 20,9 km/h (4 Bft) 95,65 %
23.02.2016 02:29 11,6 C 59 % 1007,7 hPa 0,0 l/m 13,8 km/h (3 Bft) S-SW 194 0 min 0,000 mm 0,0 UV-I 0 W/m 3,9 C 7,6 C 20,9 km/h (4 Bft) 100,00 %
23.02.2016 02:30 11,6 C 59 % 1007,7 hPa 0,0 l/m 13,0 km/h (3 Bft) S 180 0 min 0,000 mm 0,0 UV-I 0 W/m 3,9 C 7,9 C 16,1 km/h (3 Bft) 100,00 %
23.02.2016 02:31 11,6 C 59 % 1007,7 hPa 0,0 l/m 15,6 km/h (3 Bft) W-SW 239 0 min 0,000 mm 0,0 UV-I 0 W/m 3,9 C 6,8 C 24,1 km/h (4 Bft) 100,00 %
23.02.2016 02:32 11,7 C 58 % 1007,8 hPa 0,0 l/m 19,3 km/h (3 Bft) W-SW 237 0 min 0,000 mm 0,0 UV-I 0 W/m 3,7 C 5,7 C 32,2 km/h (5 Bft) 100,00 %
23.02.2016 02:33 11,7 C 58 % 1007,8 hPa 0,0 l/m 18,5 km/h (3 Bft) W-SW 238 0 min 0,000 mm 0,0 UV-I 0 W/m 3,7 C 6,0 C 27,4 km/h (4 Bft) 100,00 %
23.02.2016 02:34 11,8 C 58 % 1007,8 hPa 0,0 l/m 22,4 km/h (4 Bft) SW 235 0 min 0,000 mm 0,0 UV-I 0 W/m 3,8 C 4,9 C 29,0 km/h (5 Bft) 96,15 %
23.02.2016 02:35 11,8 C 57 % 1007,8 hPa 0,0 l/m 29,9 km/h (5 Bft) SW 234 0 min 0,000 mm 0,0 UV-I 0 W/m 3,6 C 3,2 C 37,0 km/h (5 Bft) 100,00 %
23.02.2016 02:36 11,9 C 57 % 1007,7 hPa 0,0 l/m 29,1 km/h (5 Bft) W-SW 244 0 min 0,000 mm 0,0 UV-I 0 W/m 3,7 C 3,5 C 37,0 km/h (5 Bft) 100,00 %
23.02.2016 02:37 12,0 C 56 % 1007,8 hPa 0,0 l/m 22,8 km/h (4 Bft) W-SW 246 0 min 0,000 mm 0,0 UV-I 0 W/m 3,5 C 5,1 C 29,0 km/h (5 Bft) 92,59 %
23.02.2016 02:38 12,1 C 56 % 1007,8 hPa 0,0 l/m 22,8 km/h (4 Bft) W-SW 248 0 min 0,000 mm 0,0 UV-I 0 W/m 3,6 C 5,2 C 30,6 km/h (5 Bft) 100,00 %
23.02.2016 02:39 12,1 C 55 % 1007,7 hPa 0,0 l/m 27,3 km/h (4 Bft) W-SW 254 0 min 0,000 mm 0,0 UV-I 0 W/m 3,3 C 4,2 C 38,6 km/h (5 Bft) 96,30 %
23.02.2016 02:40 12,2 C 55 % 1007,9 hPa 0,0 l/m 22,6 km/h (4 Bft) W-NW 284 0 min 0,000 mm 0,0 UV-I 0 W/m 3,4 C 5,4 C 35,4 km/h (5 Bft) 100,00 %
23.02.2016 02:41 12,3 C 55 % 1007,9 hPa 0,0 l/m 26,6 km/h (4 Bft) SW 236 0 min 0,000 mm 0,0 UV-I 0 W/m 3,5 C 4,6 C 38,6 km/h (5 Bft) 93,10 %
23.02.2016 02:42 12,3 C 54 % 1008,0 hPa 0,0 l/m 25,4 km/h (4 Bft) W 259 0 min 0,000 mm 0,0 UV-I 0 W/m 3,3 C 4,9 C 32,2 km/h (5 Bft) 100,00 %
23.02.2016 02:43 12,4 C 54 % 1008,0 hPa 0,0 l/m 31,4 km/h (5 Bft) W-SW 240 0 min 0,000 mm 0,0 UV-I 0 W/m 3,4 C 3,8 C 43,5 km/h (6 Bft) 96,55 %
23.02.2016 02:44 12,4 C 54 % 1007,9 hPa 0,0 l/m 20,2 km/h (4 Bft) W-SW 252 0 min 0,000 mm 0,0 UV-I 0 W/m 3,4 C 6,3 C 29,0 km/h (5 Bft) 100,00 %
23.02.2016 02:45 12,5 C 54 % 1008,0 hPa 0,0 l/m 18,7 km/h (3 Bft) W-SW 251 0 min 0,000 mm 0,0 UV-I 0 W/m 3,5 C 6,9 C 32,2 km/h (5 Bft) 95,65 %
23.02.2016 02:46 12,5 C 54 % 1008,0 hPa 0,0 l/m 33,0 km/h (5 Bft) W-SW 250 0 min 0,000 mm 0,0 UV-I 0 W/m 3,5 C 3,6 C 41,8 km/h (6 Bft) 93,10 %
23.02.2016 02:47 12,6 C 54 % 1008,0 hPa 0,0 l/m 19,5 km/h (3 Bft) S 191 0 min 0,000 mm 0,0 UV-I 0 W/m 3,5 C 6,8 C 24,1 km/h (4 Bft) 100,00 %
23.02.2016 02:48 12,6 C 53 % 1008,0 hPa 0,0 l/m 27,4 km/h (4 Bft) W 271 0 min 0,000 mm 0,0 UV-I 0 W/m 3,3 C 4,8 C 40,2 km/h (6 Bft) 96,67 %
23.02.2016 02:49 12,6 C 54 % 1008,0 hPa 0,0 l/m 18,4 km/h (3 Bft) SW 216 0 min 0,000 mm 0,0 UV-I 0 W/m 3,5 C 7,1 C 24,1 km/h (4 Bft) 96,15 %
23.02.2016 02:50 12,6 C 54 % 1008,0 hPa 0,0 l/m 19,5 km/h (3 Bft) W 260 0 min 0,000 mm 0,0 UV-I 0 W/m 3,5 C 6,8 C 30,6 km/h (5 Bft) 91,67 %
23.02.2016 02:51 12,6 C 54 % 1008,1 hPa 0,0 l/m 22,6 km/h (4 Bft) W 277 0 min 0,000 mm 0,0 UV-I 0 W/m 3,5 C 5,9 C 30,6 km/h (5 Bft) 96,55 %
23.02.2016 02:52 12,6 C 54 % 1008,1 hPa 0,0 l/m 18,9 km/h (3 Bft) W 270 0 min 0,000 mm 0,0 UV-I 0 W/m 3,5 C 7,0 C 29,0 km/h (5 Bft) 96,30 %
23.02.2016 02:53 12,5 C 54 % 1008,1 hPa 0,0 l/m 24,4 km/h (4 Bft) W-SW 246 0 min 0,000 mm 0,0 UV-I 0 W/m 3,5 C 5,4 C 37,0 km/h (5 Bft) 96,15 %
23.02.2016 02:54 12,5 C 54 % 1008,1 hPa 0,0 l/m 28,4 km/h (4 Bft) W 277 0 min 0,000 mm 0,0 UV-I 0 W/m 3,5 C 4,5 C 48,3 km/h (6 Bft) 98,44 %
23.02.2016 02:55 12,5 C 54 % 1007,9 hPa 0,0 l/m 28,8 km/h (4 Bft) W-NW 284 0 min 0,000 mm 0,0 UV-I 0 W/m 3,5 C 4,4 C 40,2 km/h (6 Bft) 97,56 %
23.02.2016 02:56 12,5 C 54 % 1008,0 hPa 0,0 l/m 34,9 km/h (5 Bft) W 267 0 min 0,000 mm 0,0 UV-I 0 W/m 3,5 C 3,3 C 54,7 km/h (7 Bft) 96,30 %
23.02.2016 02:57 12,4 C 55 % 1008,0 hPa 0,0 l/m 20,5 km/h (4 Bft) W 265 0 min 0,000 mm 0,0 UV-I 0 W/m 3,6 C 6,2 C 30,6 km/h (5 Bft) 96,15 %
23.02.2016 02:58 12,4 C 56 % 1008,1 hPa 0,0 l/m 22,4 km/h (4 Bft) W-NW 290 0 min 0,000 mm 0,0 UV-I 0 W/m 3,9 C 5,7 C 35,4 km/h (5 Bft) 100,00 %
23.02.2016 02:59 12,3 C 57 % 1008,1 hPa 0,0 l/m 18,6 km/h (3 Bft) W 278 0 min 0,000 mm 0,0 UV-I 0 W/m 4,0 C 6,7 C 25,7 km/h (4 Bft) 96,15 %
23.02.2016 03:00 12,3 C 58 % 1008,1 hPa 0,0 l/m 20,8 km/h (4 Bft) W-SW 257 0 min 0,102 mm 0,0 UV-I 0 W/m 4,3 C 6,0 C 32,2 km/h (5 Bft) 100,00 %
23.02.2016 03:02 12,2 C 58 % 1008,2 hPa 0,0 l/m 22,7 km/h (4 Bft) NW 309 0 min 0,000 mm 0,0 UV-I 0 W/m 4,2 C 5,4 C 30,6 km/h (5 Bft) 97,56 %
23.02.2016 03:03 12,1 C 59 % 1008,1 hPa 0,0 l/m 29,2 km/h (5 Bft) W-SW 247 0 min 0,000 mm 0,0 UV-I 0 W/m 4,3 C 3,8 C 46,7 km/h (6 Bft) 95,83 %
23.02.2016 03:04 11,9 C 59 % 1008,2 hPa 0,0 l/m 24,6 km/h (4 Bft) W 259 0 min 0,000 mm 0,0 UV-I 0 W/m 4,1 C 4,5 C 32,2 km/h (5 Bft) 91,30 %
23.02.2016 03:05 11,8 C 60 % 1008,2 hPa 0,0 l/m 18,6 km/h (3 Bft) W-SW 250 0 min 0,000 mm 0,0 UV-I 0 W/m 4,3 C 6,0 C 29,0 km/h (5 Bft) 100,00 %
23.02.2016 03:06 11,8 C 60 % 1008,2 hPa 0,0 l/m 21,1 km/h (4 Bft) W-NW 284 0 min 0,000 mm 0,0 UV-I 0 W/m 4,3 C 5,3 C 29,0 km/h (5 Bft) 96,15 %
23.02.2016 03:07 11,7 C 61 % 1008,1 hPa 0,0 l/m 23,2 km/h (4 Bft) W 271 0 min 0,000 mm 0,0 UV-I 0 W/m 4,4 C 4,6 C 33,8 km/h (5 Bft) 100,00 %
23.02.2016 03:08 11,7 C 61 % 1008,1 hPa 0,0 l/m 30,2 km/h (5 Bft) W-SW 254 0 min 0,000 mm 0,0 UV-I 0 W/m 4,4 C 3,0 C 43,5 km/h (6 Bft) 96,15 %
23.02.2016 03:09 11,6 C 61 % 1008,1 hPa 0,0 l/m 18,3 km/h (3 Bft) W-SW 246 0 min 0,000 mm 0,0 UV-I 0 W/m 4,3 C 5,9 C 27,4 km/h (4 Bft) 100,00 %
23.02.2016 03:10 11,6 C 61 % 1008,1 hPa 0,0 l/m 13,9 km/h (3 Bft) W-SW 255 0 min 0,000 mm 0,0 UV-I 0 W/m 4,3 C 7,5 C 17,7 km/h (3 Bft) 95,65 %
23.02.2016 03:11 11,5 C 61 % 1008,0 hPa 0,0 l/m 19,0 km/h (3 Bft) W-SW 255 0 min 0,000 mm 0,0 UV-I 0 W/m 4,2 C 5,5 C 25,7 km/h (4 Bft) 100,00 %
23.02.2016 03:12 11,4 C 61 % 1008,0 hPa 0,0 l/m 19,6 km/h (3 Bft) SW 227 0 min 0,000 mm 0,0 UV-I 0 W/m 4,2 C 5,2 C 29,0 km/h (5 Bft) 100,00 %
23.02.2016 03:13 11,4 C 61 % 1008,0 hPa 0,0 l/m 19,3 km/h (3 Bft) W 259 0 min 0,000 mm 0,0 UV-I 0 W/m 4,2 C 5,3 C 27,4 km/h (4 Bft) 95,83 %
23.02.2016 03:14 11,3 C 62 % 1008,0 hPa 0,0 l/m 16,8 km/h (3 Bft) SW 236 0 min 0,000 mm 0,0 UV-I 0 W/m 4,3 C 6,0 C 24,1 km/h (4 Bft) 100,00 %
23.02.2016 03:15 11,3 C 61 % 1008,0 hPa 0,0 l/m 16,2 km/h (3 Bft) W-SW 251 0 min 0,000 mm 0,0 UV-I 0 W/m 4,1 C 6,2 C 20,9 km/h (4 Bft) 100,00 %
23.02.2016 03:16 11,3 C 62 % 1008,0 hPa 0,0 l/m 16,8 km/h (3 Bft) S-SW 202 0 min 0,000 mm 0,0 UV-I 0 W/m 4,3 C 6,0 C 20,9 km/h (4 Bft) 100,00 %
23.02.2016 03:17 11,3 C 61 % 1008,0 hPa 0,0 l/m 16,2 km/h (3 Bft) SW 216 0 min 0,000 mm 0,0 UV-I 0 W/m 4,1 C 6,2 C 20,9 km/h (4 Bft) 96,30 %
23.02.2016 03:18 11,2 C 62 % 1008,0 hPa 0,0 l/m 12,9 km/h (3 Bft) W-SW 237 0 min 0,000 mm 0,0 UV-I 0 W/m 4,2 C 7,5 C 16,1 km/h (3 Bft) 100,00 %
23.02.2016 03:19 11,2 C 62 % 1008,0 hPa 0,0 l/m 12,9 km/h (3 Bft) S-SW 207 0 min 0,000 mm 0,0 UV-I 0 W/m 4,2 C 7,5 C 16,1 km/h (3 Bft) 100,00 %
23.02.2016 03:20 11,2 C 62 % 1008,1 hPa 0,0 l/m 21,0 km/h (4 Bft) W 259 0 min 0,000 mm 0,0 UV-I 0 W/m 4,2 C 4,5 C 29,0 km/h (5 Bft) 100,00 %
23.02.2016 03:21 11,2 C 62 % 1008,1 hPa 0,0 l/m 17,3 km/h (3 Bft) W 267 0 min 0,000 mm 0,0 UV-I 0 W/m 4,2 C 5,7 C 22,5 km/h (4 Bft) 100,00 %
23.02.2016 03:22 11,2 C 62 % 1008,1 hPa 0,0 l/m 19,3 km/h (3 Bft) SW 223 0 min 0,000 mm 0,0 UV-I 0 W/m 4,2 C 5,1 C 32,2 km/h (5 Bft) 100,00 %
23.02.2016 03:23 11,2 C 62 % 1008,1 hPa 0,0 l/m 17,8 km/h (3 Bft) W-SW 248 0 min 0,000 mm 0,0 UV-I 0 W/m 4,2 C 5,6 C 22,5 km/h (4 Bft) 100,00 %
23.02.2016 03:24 11,2 C 61 % 1008,1 hPa 0,0 l/m 22,6 km/h (4 Bft) W-SW 238 0 min 0,000 mm 0,0 UV-I 0 W/m 4,0 C 4,1 C 30,6 km/h (5 Bft) 100,00 %
23.02.2016 03:25 11,2 C 61 % 1008,1 hPa 0,0 l/m 23,5 km/h (4 Bft) W-SW 244 0 min 0,000 mm 0,0 UV-I 0 W/m 4,0 C 3,8 C 27,4 km/h (4 Bft) 100,00 %
23.02.2016 03:26 11,2 C 61 % 1008,1 hPa 0,0 l/m 19,4 km/h (3 Bft) SW 219 0 min 0,000 mm 0,0 UV-I 0 W/m 4,0 C 5,0 C 25,7 km/h (4 Bft) 100,00 %
23.02.2016 03:27 11,3 C 61 % 1008,1 hPa 0,0 l/m 21,4 km/h (4 Bft) W-SW 246 0 min 0,000 mm 0,0 UV-I 0 W/m 4,1 C 4,6 C 27,4 km/h (4 Bft) 96,15 %
23.02.2016 03:28 11,3 C 62 % 1008,1 hPa 0,0 l/m 23,3 km/h (4 Bft) S-SW 195 0 min 0,000 mm 0,0 UV-I 0 W/m 4,3 C 4,0 C 30,6 km/h (5 Bft) 100,00 %
23.02.2016 03:29 11,3 C 61 % 1008,1 hPa 0,0 l/m 17,1 km/h (3 Bft) W-SW 250 0 min 0,000 mm 0,0 UV-I 0 W/m 4,1 C 5,9 C 24,1 km/h (4 Bft) 100,00 %
23.02.2016 03:30 11,3 C 61 % 1008,1 hPa 0,0 l/m 19,6 km/h (3 Bft) SW 236 0 min 0,000 mm 0,0 UV-I 0 W/m 4,1 C 5,1 C 30,6 km/h (5 Bft) 100,00 %
23.02.2016 03:31 11,4 C 61 % 1008,1 hPa 0,0 l/m 25,7 km/h (4 Bft) W-SW 240 0 min 0,000 mm 0,0 UV-I 0 W/m 4,2 C 3,6 C 32,2 km/h (5 Bft) 100,00 %
23.02.2016 03:32 11,3 C 61 % 1008,1 hPa 0,0 l/m 23,3 km/h (4 Bft) SW 220 0 min 0,000 mm 0,0 UV-I 0 W/m 4,1 C 4,0 C 30,6 km/h (5 Bft) 100,00 %
23.02.2016 03:33 11,4 C 61 % 1008,1 hPa 0,0 l/m 21,1 km/h (4 Bft) SW 233 0 min 0,000 mm 0,0 UV-I 0 W/m 4,2 C 4,8 C 27,4 km/h (4 Bft) 100,00 %
23.02.2016 03:34 11,3 C 62 % 1008,1 hPa 0,0 l/m 21,3 km/h (4 Bft) W 269 0 min 0,000 mm 0,0 UV-I 0 W/m 4,3 C 4,6 C 29,0 km/h (5 Bft) 100,00 %
23.02.2016 03:35 11,3 C 62 % 1008,2 hPa 0,0 l/m 20,1 km/h (4 Bft) SW 234 0 min 0,000 mm 0,0 UV-I 0 W/m 4,3 C 4,9 C 29,0 km/h (5 Bft) 100,00 %
23.02.2016 03:36 11,3 C 62 % 1008,1 hPa 0,0 l/m 18,8 km/h (3 Bft) SW 228 0 min 0,000 mm 0,0 UV-I 0 W/m 4,3 C 5,3 C 32,2 km/h (5 Bft) 100,00 %
23.02.2016 03:37 11,3 C 62 % 1008,1 hPa 0,0 l/m 23,1 km/h (4 Bft) S-SW 198 0 min 0,000 mm 0,0 UV-I 0 W/m 4,3 C 4,1 C 30,6 km/h (5 Bft) 100,00 %
23.02.2016 03:38 11,3 C 62 % 1008,1 hPa 0,0 l/m 17,4 km/h (3 Bft) W-SW 250 0 min 0,000 mm 0,0 UV-I 0 W/m 4,3 C 5,8 C 22,5 km/h (4 Bft) 100,00 %
23.02.2016 03:39 11,3 C 62 % 1008,1 hPa 0,0 l/m 24,1 km/h (4 Bft) SW 232 0 min 0,000 mm 0,0 UV-I 0 W/m 4,3 C 3,8 C 35,4 km/h (5 Bft) 100,00 %
23.02.2016 03:40 11,3 C 62 % 1008,2 hPa 0,0 l/m 20,0 km/h (4 Bft) W-SW 238 0 min 0,000 mm 0,0 UV-I 0 W/m 4,3 C 5,0 C 29,0 km/h (5 Bft) 100,00 %
23.02.2016 03:41 11,3 C 62 % 1008,1 hPa 0,0 l/m 19,9 km/h (4 Bft) S-SW 213 0 min 0,000 mm 0,0 UV-I 0 W/m 4,3 C 5,0 C 29,0 km/h (5 Bft) 100,00 %
23.02.2016 03:42 11,2 C 62 % 1008,2 hPa 0,0 l/m 16,9 km/h (3 Bft) SO 130 0 min 0,000 mm 0,0 UV-I 0 W/m 4,2 C 5,9 C 24,1 km/h (4 Bft) 95,65 %
23.02.2016 03:43 11,2 C 62 % 1008,2 hPa 0,0 l/m 20,0 km/h (4 Bft) SW 223 0 min 0,000 mm 0,0 UV-I 0 W/m 4,2 C 4,8 C 29,0 km/h (5 Bft) 100,00 %
23.02.2016 03:44 11,2 C 62 % 1008,1 hPa 0,0 l/m 21,4 km/h (4 Bft) SW 234 0 min 0,000 mm 0,0 UV-I 0 W/m 4,2 C 4,4 C 30,6 km/h (5 Bft) 100,00 %
23.02.2016 03:45 11,2 C 62 % 1008,2 hPa 0,0 l/m 20,2 km/h (4 Bft) W-SW 252 0 min 0,000 mm 0,0 UV-I 0 W/m 4,2 C 4,8 C 25,7 km/h (4 Bft) 100,00 %
23.02.2016 03:46 11,2 C 62 % 1008,2 hPa 0,0 l/m 16,1 km/h (3 Bft) W-SW 251 0 min 0,000 mm 0,0 UV-I 0 W/m 4,2 C 6,2 C 22,5 km/h (4 Bft) 100,00 %
23.02.2016 03:47 11,2 C 63 % 1008,2 hPa 0,0 l/m 16,7 km/h (3 Bft) W-SW 238 0 min 0,000 mm 0,0 UV-I 0 W/m 4,4 C 5,9 C 27,4 km/h (4 Bft) 100,00 %
23.02.2016 03:48 11,2 C 63 % 1008,1 hPa 0,0 l/m 20,5 km/h (4 Bft) W-SW 255 0 min 0,000 mm 0,0 UV-I 0 W/m 4,4 C 4,7 C 32,2 km/h (5 Bft) 100,00 %
23.02.2016 03:49 11,1 C 63 % 1008,1 hPa 0,0 l/m 20,1 km/h (4 Bft) W-SW 248 0 min 0,000 mm 0,0 UV-I 0 W/m 4,3 C 4,7 C 24,1 km/h (4 Bft) 100,00 %
23.02.2016 03:50 11,1 C 63 % 1008,1 hPa 0,0 l/m 18,9 km/h (3 Bft) W-SW 245 0 min 0,000 mm 0,0 UV-I 0 W/m 4,3 C 5,1 C 25,7 km/h (4 Bft) 100,00 %
23.02.2016 03:51 11,1 C 64 % 1008,1 hPa 0,0 l/m 23,4 km/h (4 Bft) SW 234 0 min 0,000 mm 0,0 UV-I 0 W/m 4,6 C 3,7 C 27,4 km/h (4 Bft) 100,00 %
23.02.2016 03:52 11,0 C 64 % 1008,1 hPa 0,0 l/m 18,7 km/h (3 Bft) S-SW 193 0 min 0,000 mm 0,0 UV-I 0 W/m 4,5 C 5,0 C 25,7 km/h (4 Bft) 100,00 %
23.02.2016 03:53 11,0 C 64 % 1008,1 hPa 0,0 l/m 19,2 km/h (3 Bft) S-SW 210 0 min 0,000 mm 0,0 UV-I 0 W/m 4,5 C 4,8 C 24,1 km/h (4 Bft) 100,00 %
23.02.2016 03:54 10,9 C 65 % 1008,1 hPa 0,0 l/m 19,2 km/h (3 Bft) W-SW 248 0 min 0,000 mm 0,0 UV-I 0 W/m 4,6 C 4,7 C 22,5 km/h (4 Bft) 100,00 %
23.02.2016 03:55 10,9 C 65 % 1008,1 hPa 0,0 l/m 19,8 km/h (3 Bft) S-SW 213 0 min 0,000 mm 0,0 UV-I 0 W/m 4,6 C 4,5 C 29,0 km/h (5 Bft) 100,00 %
23.02.2016 03:56 10,8 C 65 % 1008,1 hPa 0,0 l/m 19,2 km/h (3 Bft) SW 236 0 min 0,000 mm 0,0 UV-I 0 W/m 4,5 C 4,6 C 29,0 km/h (5 Bft) 100,00 %
23.02.2016 03:57 10,8 C 66 % 1008,0 hPa 0,0 l/m 16,3 km/h (3 Bft) SW 232 0 min 0,000 mm 0,0 UV-I 0 W/m 4,7 C 5,6 C 29,0 km/h (5 Bft) 100,00 %
23.02.2016 03:58 10,8 C 66 % 1008,0 hPa 0,0 l/m 13,3 km/h (3 Bft) W-SW 242 0 min 0,000 mm 0,0 UV-I 0 W/m 4,7 C 6,8 C 19,3 km/h (3 Bft) 100,00 %
23.02.2016 03:59 10,7 C 66 % 1008,0 hPa 0,0 l/m 15,5 km/h (3 Bft) SW 233 0 min 0,000 mm 0,0 UV-I 0 W/m 4,6 C 5,8 C 24,1 km/h (4 Bft) 100,00 %
23.02.2016 04:00 10,7 C 66 % 1008,0 hPa 0,0 l/m 16,7 km/h (3 Bft) S-SW 194 0 min 0,076 mm 0,0 UV-I 0 W/m 4,6 C 5,3 C 19,3 km/h (3 Bft) 100,00 %
23.02.2016 04:03 10,7 C 67 % 1007,9 hPa 0,0 l/m 21,5 km/h (4 Bft) SW 230 0 min 0,000 mm 0,0 UV-I 0 W/m 4,8 C 3,7 C 29,0 km/h (5 Bft) 100,00 %
23.02.2016 04:04 10,7 C 66 % 1007,9 hPa 0,0 l/m 21,2 km/h (4 Bft) W-SW 244 0 min 0,000 mm 0,0 UV-I 0 W/m 4,6 C 3,8 C 27,4 km/h (4 Bft) 100,00 %
23.02.2016 04:05 10,7 C 67 % 1008,0 hPa 0,0 l/m 16,3 km/h (3 Bft) S-SW 194 0 min 0,000 mm 0,0 UV-I 0 W/m 4,8 C 5,5 C 22,5 km/h (4 Bft) 100,00 %
23.02.2016 04:06 10,7 C 67 % 1008,0 hPa 0,0 l/m 19,2 km/h (3 Bft) SW 225 0 min 0,000 mm 0,0 UV-I 0 W/m 4,8 C 4,4 C 25,7 km/h (4 Bft) 100,00 %
23.02.2016 04:07 10,7 C 67 % 1008,0 hPa 0,0 l/m 17,4 km/h (3 Bft) S 178 0 min 0,000 mm 0,0 UV-I 0 W/m 4,8 C 5,1 C 25,7 km/h (4 Bft) 100,00 %
23.02.2016 04:08 10,7 C 67 % 1008,0 hPa 0,0 l/m 21,5 km/h (4 Bft) S-SO 167 0 min 0,000 mm 0,0 UV-I 0 W/m 4,8 C 3,7 C 30,6 km/h (5 Bft) 100,00 %
23.02.2016 04:09 10,7 C 67 % 1007,9 hPa 0,0 l/m 21,4 km/h (4 Bft) SW 225 0 min 0,000 mm 0,0 UV-I 0 W/m 4,8 C 3,8 C 30,6 km/h (5 Bft) 100,00 %
23.02.2016 04:10 10,7 C 67 % 1007,9 hPa 0,0 l/m 13,8 km/h (3 Bft) SW 215 0 min 0,000 mm 0,0 UV-I 0 W/m 4,8 C 6,5 C 22,5 km/h (4 Bft) 100,00 %
23.02.2016 04:11 10,7 C 67 % 1008,0 hPa 0,0 l/m 14,7 km/h (3 Bft) S-SW 202 0 min 0,000 mm 0,0 UV-I 0 W/m 4,8 C 6,1 C 27,4 km/h (4 Bft) 100,00 %
23.02.2016 04:12 10,6 C 67 % 1008,0 hPa 0,0 l/m 16,2 km/h (3 Bft) SW 215 0 min 0,000 mm 0,0 UV-I 0 W/m 4,7 C 5,4 C 20,9 km/h (4 Bft) 100,00 %
23.02.2016 04:13 10,6 C 67 % 1008,0 hPa 0,0 l/m 18,4 km/h (3 Bft) S-SW 192 0 min 0,000 mm 0,0 UV-I 0 W/m 4,7 C 4,6 C 22,5 km/h (4 Bft) 100,00 %
23.02.2016 04:14 10,6 C 67 % 1008,0 hPa 0,0 l/m 13,2 km/h (3 Bft) S-SW 193 0 min 0,000 mm 0,0 UV-I 0 W/m 4,7 C 6,6 C 17,7 km/h (3 Bft) 100,00 %
23.02.2016 04:15 10,6 C 68 % 1008,1 hPa 0,0 l/m 15,8 km/h (3 Bft) SW 226 0 min 0,000 mm 0,0 UV-I 0 W/m 4,9 C 5,5 C 25,7 km/h (4 Bft) 100,00 %
23.02.2016 04:16 10,6 C 67 % 1008,1 hPa 0,0 l/m 16,5 km/h (3 Bft) W-SW 240 0 min 0,000 mm 0,0 UV-I 0 W/m 4,7 C 5,3 C 20,9 km/h (4 Bft) 100,00 %
23.02.2016 04:17 10,5 C 68 % 1008,2 hPa 0,0 l/m 18,3 km/h (3 Bft) SW 235 0 min 0,000 mm 0,0 UV-I 0 W/m 4,8 C 4,5 C 25,7 km/h (4 Bft) 100,00 %
23.02.2016 04:18 10,5 C 68 % 1008,2 hPa 0,0 l/m 17,9 km/h (3 Bft) SW 228 0 min 0,000 mm 0,0 UV-I 0 W/m 4,8 C 4,6 C 20,9 km/h (4 Bft) 100,00 %
23.02.2016 04:19 10,6 C 68 % 1008,2 hPa 0,0 l/m 20,6 km/h (4 Bft) W-NW 283 0 min 0,000 mm 0,0 UV-I 0 W/m 4,9 C 3,9 C 29,0 km/h (5 Bft) 100,00 %
23.02.2016 04:20 10,5 C 68 % 1008,2 hPa 0,0 l/m 18,7 km/h (3 Bft) SW 229 0 min 0,000 mm 0,0 UV-I 0 W/m 4,8 C 4,4 C 25,7 km/h (4 Bft) 100,00 %
23.02.2016 04:21 10,5 C 68 % 1008,2 hPa 0,0 l/m 17,9 km/h (3 Bft) SW 226 0 min 0,000 mm 0,0 UV-I 0 W/m 4,8 C 4,6 C 24,1 km/h (4 Bft) 100,00 %
23.02.2016 04:22 10,5 C 69 % 1008,2 hPa 0,0 l/m 15,8 km/h (3 Bft) SW 235 0 min 0,000 mm 0,0 UV-I 0 W/m 5,1 C 5,4 C 20,9 km/h (4 Bft) 100,00 %
23.02.2016 04:23 10,5 C 68 % 1008,2 hPa 0,0 l/m 19,6 km/h (3 Bft) S-SW 192 0 min 0,000 mm 0,0 UV-I 0 W/m 4,8 C 4,1 C 27,4 km/h (4 Bft) 100,00 %
23.02.2016 04:24 10,5 C 69 % 1008,2 hPa 0,0 l/m 20,6 km/h (4 Bft) S-SW 208 0 min 0,000 mm 0,0 UV-I 0 W/m 5,1 C 3,7 C 29,0 km/h (5 Bft) 100,00 %
23.02.2016 04:25 10,4 C 69 % 1008,2 hPa 0,0 l/m 17,8 km/h (3 Bft) SW 221 0 min 0,000 mm 0,0 UV-I 0 W/m 5,0 C 4,5 C 27,4 km/h (4 Bft) 100,00 %
23.02.2016 04:26 10,4 C 70 % 1008,2 hPa 0,0 l/m 13,3 km/h (3 Bft) S 180 0 min 0,000 mm 0,0 UV-I 0 W/m 5,2 C 6,4 C 19,3 km/h (3 Bft) 100,00 %
23.02.2016 04:27 10,4 C 70 % 1008,2 hPa 0,0 l/m 19,5 km/h (3 Bft) S-SW 197 0 min 0,000 mm 0,0 UV-I 0 W/m 5,2 C 4,0 C 29,0 km/h (5 Bft) 100,00 %
23.02.2016 04:28 10,3 C 70 % 1008,2 hPa 0,0 l/m 17,9 km/h (3 Bft) S-SW 202 0 min 0,000 mm 0,0 UV-I 0 W/m 5,1 C 4,4 C 22,5 km/h (4 Bft) 96,15 %
23.02.2016 04:29 10,3 C 71 % 1008,2 hPa 0,0 l/m 14,3 km/h (3 Bft) S 188 0 min 0,000 mm 0,0 UV-I 0 W/m 5,3 C 5,8 C 22,5 km/h (4 Bft) 100,00 %
23.02.2016 04:30 10,2 C 71 % 1008,2 hPa 0,0 l/m 15,4 km/h (3 Bft) S 181 0 min 0,000 mm 0,0 UV-I 0 W/m 5,2 C 5,2 C 24,1 km/h (4 Bft) 100,00 %
23.02.2016 04:31 10,2 C 72 % 1008,2 hPa 0,0 l/m 17,5 km/h (3 Bft) SW 218 0 min 0,000 mm 0,0 UV-I 0 W/m 5,4 C 4,4 C 27,4 km/h (4 Bft) 100,00 %
23.02.2016 04:32 10,1 C 72 % 1008,2 hPa 0,0 l/m 20,9 km/h (4 Bft) S 183 0 min 0,000 mm 0,0 UV-I 0 W/m 5,3 C 3,1 C 37,0 km/h (5 Bft) 95,65 %
23.02.2016 04:33 10,1 C 73 % 1008,2 hPa 0,0 l/m 14,1 km/h (3 Bft) S-SW 198 0 min 0,000 mm 0,0 UV-I 0 W/m 5,5 C 5,6 C 22,5 km/h (4 Bft) 100,00 %
23.02.2016 04:34 10,0 C 74 % 1008,2 hPa 0,0 l/m 16,2 km/h (3 Bft) S-SW 196 0 min 0,000 mm 0,0 UV-I 0 W/m 5,6 C 4,6 C 20,9 km/h (4 Bft) 100,00 %
23.02.2016 04:35 9,9 C 74 % 1008,2 hPa 0,0 l/m 15,0 km/h (3 Bft) S-SW 199 0 min 0,000 mm 0,0 UV-I 0 W/m 5,5 C 5,0 C 19,3 km/h (3 Bft) 100,00 %
23.02.2016 04:36 9,9 C 74 % 1008,2 hPa 0,0 l/m 12,2 km/h (2 Bft) S-SO 159 0 min 0,000 mm 0,0 UV-I 0 W/m 5,5 C 6,3 C 20,9 km/h (4 Bft) 96,55 %
23.02.2016 04:37 9,8 C 75 % 1008,3 hPa 0,0 l/m 10,7 km/h (2 Bft) S 191 0 min 0,000 mm 0,0 UV-I 0 W/m 5,6 C 7,0 C 14,5 km/h (3 Bft) 95,83 %
23.02.2016 04:38 9,8 C 75 % 1008,3 hPa 0,0 l/m 19,1 km/h (3 Bft) S-SW 193 0 min 0,000 mm 0,0 UV-I 0 W/m 5,6 C 3,3 C 27,4 km/h (4 Bft) 100,00 %
23.02.2016 04:39 9,7 C 76 % 1008,2 hPa 0,0 l/m 16,9 km/h (3 Bft) S-SW 193 0 min 0,000 mm 0,0 UV-I 0 W/m 5,7 C 4,0 C 20,9 km/h (4 Bft) 92,59 %
23.02.2016 04:40 9,7 C 76 % 1008,3 hPa 0,0 l/m 17,8 km/h (3 Bft) S-SW 192 0 min 0,000 mm 0,0 UV-I 0 W/m 5,7 C 3,7 C 22,5 km/h (4 Bft) 100,00 %
23.02.2016 04:41 9,6 C 76 % 1008,3 hPa 0,0 l/m 15,7 km/h (3 Bft) S 190 0 min 0,000 mm 0,0 UV-I 0 W/m 5,6 C 4,4 C 22,5 km/h (4 Bft) 95,83 %
23.02.2016 04:42 9,6 C 77 % 1008,3 hPa 0,0 l/m 15,6 km/h (3 Bft) SW 231 0 min 0,000 mm 0,0 UV-I 0 W/m 5,8 C 4,4 C 24,1 km/h (4 Bft) 100,00 %
23.02.2016 04:43 9,6 C 77 % 1008,2 hPa 0,0 l/m 19,5 km/h (3 Bft) S-SW 192 0 min 0,000 mm 0,0 UV-I 0 W/m 5,8 C 2,9 C 29,0 km/h (5 Bft) 95,83 %
23.02.2016 04:44 9,5 C 77 % 1008,3 hPa 0,0 l/m 19,2 km/h (3 Bft) SW 224 0 min 0,000 mm 0,0 UV-I 0 W/m 5,7 C 2,9 C 25,7 km/h (4 Bft) 95,65 %
23.02.2016 04:45 9,5 C 78 % 1008,3 hPa 0,0 l/m 17,2 km/h (3 Bft) SW 223 0 min 0,000 mm 0,0 UV-I 0 W/m 5,9 C 3,6 C 24,1 km/h (4 Bft) 95,83 %
23.02.2016 04:46 9,4 C 77 % 1008,3 hPa 0,0 l/m 18,0 km/h (3 Bft) S-SW 207 0 min 0,000 mm 0,0 UV-I 0 W/m 5,6 C 3,2 C 25,7 km/h (4 Bft) 100,00 %
23.02.2016 04:47 9,4 C 78 % 1008,3 hPa 0,0 l/m 17,2 km/h (3 Bft) S 183 0 min 0,000 mm 0,0 UV-I 0 W/m 5,8 C 3,5 C 25,7 km/h (4 Bft) 96,15 %
23.02.2016 04:48 9,4 C 78 % 1008,3 hPa 0,0 l/m 19,5 km/h (3 Bft) S-SO 157 0 min 0,000 mm 0,0 UV-I 0 W/m 5,8 C 2,7 C 22,5 km/h (4 Bft) 96,30 %
23.02.2016 04:49 9,4 C 78 % 1008,3 hPa 0,0 l/m 16,3 km/h (3 Bft) S 175 0 min 0,000 mm 0,0 UV-I 0 W/m 5,8 C 3,9 C 20,9 km/h (4 Bft) 100,00 %
23.02.2016 04:50 9,4 C 78 % 1008,2 hPa 0,0 l/m 17,8 km/h (3 Bft) S 184 0 min 0,000 mm 0,0 UV-I 0 W/m 5,8 C 3,3 C 25,7 km/h (4 Bft) 96,30 %
23.02.2016 04:51 9,4 C 78 % 1008,2 hPa 0,0 l/m 15,2 km/h (3 Bft) S-SW 196 0 min 0,000 mm 0,0 UV-I 0 W/m 5,8 C 4,3 C 19,3 km/h (3 Bft) 100,00 %
23.02.2016 04:52 9,4 C 78 % 1008,2 hPa 0,0 l/m 18,5 km/h (3 Bft) SO 143 0 min 0,000 mm 0,0 UV-I 0 W/m 5,8 C 3,0 C 27,4 km/h (4 Bft) 96,67 %
23.02.2016 04:53 9,4 C 78 % 1008,2 hPa 0,0 l/m 18,7 km/h (3 Bft) SO 130 0 min 0,000 mm 0,0 UV-I 0 W/m 5,8 C 3,0 C 24,1 km/h (4 Bft) 100,00 %
23.02.2016 04:54 9,4 C 79 % 1008,2 hPa 0,0 l/m 17,8 km/h (3 Bft) S 190 0 min 0,000 mm 0,0 UV-I 0 W/m 5,9 C 3,3 C 25,7 km/h (4 Bft) 92,59 %
23.02.2016 04:55 9,3 C 79 % 1008,2 hPa 0,0 l/m 20,0 km/h (4 Bft) S 186 0 min 0,000 mm 0,0 UV-I 0 W/m 5,8 C 2,4 C 25,7 km/h (4 Bft) 100,00 %
23.02.2016 04:56 9,3 C 79 % 1008,2 hPa 0,0 l/m 16,8 km/h (3 Bft) S 176 0 min 0,000 mm 0,0 UV-I 0 W/m 5,8 C 3,5 C 20,9 km/h (4 Bft) 95,83 %
23.02.2016 04:57 9,3 C 80 % 1008,2 hPa 0,0 l/m 15,6 km/h (3 Bft) S-SW 202 0 min 0,000 mm 0,0 UV-I 0 W/m 6,0 C 4,0 C 32,2 km/h (5 Bft) 91,30 %
23.02.2016 04:58 9,3 C 80 % 1008,2 hPa 0,0 l/m 16,1 km/h (3 Bft) S-SW 207 0 min 0,000 mm 0,0 UV-I 0 W/m 6,0 C 3,8 C 20,9 km/h (4 Bft) 100,00 %
23.02.2016 04:59 9,2 C 80 % 1008,2 hPa 0,0 l/m 15,4 km/h (3 Bft) S-SW 200 0 min 0,000 mm 0,0 UV-I 0 W/m 5,9 C 4,0 C 22,5 km/h (4 Bft) 95,65 %
23.02.2016 05:00 9,2 C 80 % 1008,2 hPa 0,0 l/m 19,3 km/h (3 Bft) S-SW 192 0 min 0,051 mm 0,0 UV-I 0 W/m 5,9 C 2,5 C 32,2 km/h (5 Bft) 100,00 %
23.02.2016 05:01 9,2 C 80 % 1008,2 hPa 0,0 l/m 14,2 km/h (3 Bft) S-SW 194 0 min 0,000 mm 0,0 UV-I 0 W/m 5,9 C 4,5 C 20,9 km/h (4 Bft) 96,15 %
23.02.2016 05:02 9,2 C 80 % 1008,1 hPa 0,0 l/m 12,4 km/h (3 Bft) S 174 0 min 0,000 mm 0,0 UV-I 0 W/m 5,9 C 5,4 C 14,5 km/h (3 Bft) 100,00 %
23.02.2016 05:03 9,2 C 80 % 1008,1 hPa 0,0 l/m 12,9 km/h (3 Bft) S-SW 204 0 min 0,000 mm 0,0 UV-I 0 W/m 5,9 C 5,1 C 17,7 km/h (3 Bft) 96,30 %
23.02.2016 05:04 9,2 C 80 % 1008,1 hPa 0,0 l/m 18,3 km/h (3 Bft) S 175 0 min 0,000 mm 0,0 UV-I 0 W/m 5,9 C 2,8 C 30,6 km/h (5 Bft) 96,15 %
23.02.2016 05:05 9,1 C 81 % 1008,1 hPa 0,0 l/m 17,5 km/h (3 Bft) S-SW 203 0 min 0,000 mm 0,0 UV-I 0 W/m 6,0 C 3,0 C 29,0 km/h (5 Bft) 100,00 %
23.02.2016 05:06 9,1 C 81 % 1008,1 hPa 0,0 l/m 15,8 km/h (3 Bft) S-SW 195 0 min 0,000 mm 0,0 UV-I 0 W/m 6,0 C 3,7 C 20,9 km/h (4 Bft) 92,86 %
23.02.2016 05:07 9,1 C 81 % 1008,1 hPa 0,0 l/m 14,5 km/h (3 Bft) S 175 0 min 0,000 mm 0,0 UV-I 0 W/m 6,0 C 4,3 C 24,1 km/h (4 Bft) 95,83 %
23.02.2016 05:08 9,1 C 81 % 1008,1 hPa 0,0 l/m 12,8 km/h (3 Bft) S 182 0 min 0,000 mm 0,0 UV-I 0 W/m 6,0 C 5,1 C 19,3 km/h (3 Bft) 96,15 %
23.02.2016 05:09 9,1 C 81 % 1008,1 hPa 0,0 l/m 13,1 km/h (3 Bft) S-SW 199 0 min 0,000 mm 0,0 UV-I 0 W/m 6,0 C 4,9 C 16,1 km/h (3 Bft) 100,00 %
23.02.2016 05:10 9,1 C 81 % 1008,1 hPa 0,0 l/m 12,7 km/h (3 Bft) S 172 0 min 0,000 mm 0,0 UV-I 0 W/m 6,0 C 5,1 C 17,7 km/h (3 Bft) 95,65 %
23.02.2016 05:11 9,1 C 81 % 1008,1 hPa 0,0 l/m 12,3 km/h (3 Bft) SW 214 0 min 0,000 mm 0,0 UV-I 0 W/m 6,0 C 5,3 C 17,7 km/h (3 Bft) 95,83 %
23.02.2016 05:12 9,0 C 81 % 1008,0 hPa 0,0 l/m 14,1 km/h (3 Bft) S-SW 209 0 min 0,000 mm 0,0 UV-I 0 W/m 5,9 C 4,3 C 24,1 km/h (4 Bft) 100,00 %
23.02.2016 05:13 9,0 C 81 % 1007,9 hPa 0,0 l/m 15,0 km/h (3 Bft) S 173 0 min 0,000 mm 0,0 UV-I 0 W/m 5,9 C 3,9 C 20,9 km/h (4 Bft) 87,50 %
23.02.2016 05:14 9,0 C 81 % 1007,9 hPa 0,0 l/m 12,8 km/h (3 Bft) S-SW 202 0 min 0,000 mm 0,0 UV-I 0 W/m 5,9 C 5,0 C 17,7 km/h (3 Bft) 100,00 %
23.02.2016 05:15 9,0 C 81 % 1007,9 hPa 0,0 l/m 14,4 km/h (3 Bft) S 182 0 min 0,000 mm 0,0 UV-I 0 W/m 5,9 C 4,2 C 20,9 km/h (4 Bft) 100,00 %
23.02.2016 05:16 9,0 C 81 % 1007,9 hPa 0,0 l/m 13,3 km/h (3 Bft) S 173 0 min 0,000 mm 0,0 UV-I 0 W/m 5,9 C 4,7 C 17,7 km/h (3 Bft) 100,00 %
23.02.2016 05:17 9,0 C 81 % 1007,9 hPa 0,0 l/m 9,7 km/h (2 Bft) S-SW 210 0 min 0,000 mm 0,0 UV-I 0 W/m 5,9 C 6,7 C 12,9 km/h (3 Bft) 100,00 %
23.02.2016 05:18 9,0 C 81 % 1007,9 hPa 0,0 l/m 10,3 km/h (2 Bft) S-SW 196 0 min 0,000 mm 0,0 UV-I 0 W/m 5,9 C 6,3 C 14,5 km/h (3 Bft) 100,00 %
23.02.2016 05:19 9,0 C 81 % 1007,9 hPa 0,0 l/m 10,5 km/h (2 Bft) S-SW 194 0 min 0,000 mm 0,0 UV-I 0 W/m 5,9 C 6,2 C 14,5 km/h (3 Bft) 96,55 %
23.02.2016 05:20 9,0 C 81 % 1007,9 hPa 0,0 l/m 13,2 km/h (3 Bft) S-SW 213 0 min 0,000 mm 0,0 UV-I 0 W/m 5,9 C 4,8 C 20,9 km/h (4 Bft) 96,30 %
23.02.2016 05:21 8,9 C 82 % 1007,9 hPa 0,0 l/m 13,4 km/h (3 Bft) S 185 0 min 0,000 mm 0,0 UV-I 0 W/m 6,0 C 4,5 C 17,7 km/h (3 Bft) 100,00 %
23.02.2016 05:22 8,9 C 81 % 1007,9 hPa 0,0 l/m 10,9 km/h (2 Bft) S-SW 203 0 min 0,000 mm 0,0 UV-I 0 W/m 5,8 C 5,9 C 17,7 km/h (3 Bft) 96,55 %
23.02.2016 05:23 8,9 C 81 % 1007,9 hPa 0,0 l/m 13,1 km/h (3 Bft) S 176 0 min 0,000 mm 0,0 UV-I 0 W/m 5,8 C 4,7 C 19,3 km/h (3 Bft) 91,67 %
23.02.2016 05:24 9,0 C 81 % 1007,9 hPa 0,0 l/m 12,8 km/h (3 Bft) SW 217 0 min 0,000 mm 0,0 UV-I 0 W/m 5,9 C 5,0 C 16,1 km/h (3 Bft) 100,00 %
23.02.2016 05:25 9,0 C 81 % 1007,9 hPa 0,0 l/m 14,9 km/h (3 Bft) S 184 0 min 0,000 mm 0,0 UV-I 0 W/m 5,9 C 4,0 C 19,3 km/h (3 Bft) 100,00 %
23.02.2016 05:26 9,0 C 81 % 1007,9 hPa 0,0 l/m 12,4 km/h (3 Bft) SW 214 0 min 0,000 mm 0,0 UV-I 0 W/m 5,9 C 5,2 C 19,3 km/h (3 Bft) 100,00 %
23.02.2016 05:27 9,0 C 81 % 1007,9 hPa 0,0 l/m 12,8 km/h (3 Bft) S 188 0 min 0,000 mm 0,0 UV-I 0 W/m 5,9 C 5,0 C 19,3 km/h (3 Bft) 100,00 %
23.02.2016 05:28 9,0 C 81 % 1007,9 hPa 0,0 l/m 15,3 km/h (3 Bft) S 170 0 min 0,000 mm 0,0 UV-I 0 W/m 5,9 C 3,8 C 19,3 km/h (3 Bft) 100,00 %
23.02.2016 05:29 9,0 C 81 % 1007,9 hPa 0,0 l/m 15,0 km/h (3 Bft) S-SO 159 0 min 0,000 mm 0,0 UV-I 0 W/m 5,9 C 3,9 C 19,3 km/h (3 Bft) 96,55 %
23.02.2016 05:30 9,0 C 81 % 1007,9 hPa 0,0 l/m 13,0 km/h (3 Bft) S-SW 197 0 min 0,000 mm 0,0 UV-I 0 W/m 5,9 C 4,9 C 16,1 km/h (3 Bft) 100,00 %
23.02.2016 05:31 9,0 C 81 % 1007,9 hPa 0,0 l/m 11,4 km/h (2 Bft) S-SW 200 0 min 0,000 mm 0,0 UV-I 0 W/m 5,9 C 5,7 C 14,5 km/h (3 Bft) 100,00 %
23.02.2016 05:32 9,0 C 81 % 1007,9 hPa 0,0 l/m 11,3 km/h (2 Bft) S-SW 202 0 min 0,000 mm 0,0 UV-I 0 W/m 5,9 C 5,7 C 16,1 km/h (3 Bft) 100,00 %
23.02.2016 05:33 9,0 C 81 % 1007,9 hPa 0,0 l/m 15,0 km/h (3 Bft) S 169 0 min 0,000 mm 0,0 UV-I 0 W/m 5,9 C 3,9 C 20,9 km/h (4 Bft) 95,65 %
23.02.2016 05:34 9,0 C 81 % 1007,9 hPa 0,0 l/m 13,6 km/h (3 Bft) S 187 0 min 0,000 mm 0,0 UV-I 0 W/m 5,9 C 4,6 C 17,7 km/h (3 Bft) 100,00 %
23.02.2016 05:35 9,0 C 81 % 1007,9 hPa 0,0 l/m 11,1 km/h (2 Bft) S 178 0 min 0,000 mm 0,0 UV-I 0 W/m 5,9 C 5,9 C 14,5 km/h (3 Bft) 100,00 %
23.02.2016 05:36 9,0 C 81 % 1007,9 hPa 0,0 l/m 10,9 km/h (2 Bft) S 185 0 min 0,000 mm 0,0 UV-I 0 W/m 5,9 C 6,0 C 16,1 km/h (3 Bft) 100,00 %
23.02.2016 05:37 9,0 C 81 % 1007,9 hPa 0,0 l/m 13,0 km/h (3 Bft) S 176 0 min 0,000 mm 0,0 UV-I 0 W/m 5,9 C 4,9 C 17,7 km/h (3 Bft) 100,00 %
23.02.2016 05:38 9,0 C 81 % 1007,9 hPa 0,0 l/m 9,7 km/h (2 Bft) S-SO 149 0 min 0,000 mm 0,0 UV-I 0 W/m 5,9 C 6,7 C 19,3 km/h (3 Bft) 100,00 %
23.02.2016 05:39 9,0 C 81 % 1007,9 hPa 0,0 l/m 14,0 km/h (3 Bft) S-SW 198 0 min 0,000 mm 0,0 UV-I 0 W/m 5,9 C 4,4 C 20,9 km/h (4 Bft) 95,65 %
23.02.2016 05:40 9,0 C 81 % 1007,9 hPa 0,0 l/m 10,7 km/h (2 Bft) S-SW 200 0 min 0,000 mm 0,0 UV-I 0 W/m 5,9 C 6,1 C 14,5 km/h (3 Bft) 100,00 %
23.02.2016 05:41 9,0 C 81 % 1007,9 hPa 0,0 l/m 11,8 km/h (2 Bft) S-SW 194 0 min 0,000 mm 0,0 UV-I 0 W/m 5,9 C 5,5 C 14,5 km/h (3 Bft) 100,00 %
23.02.2016 05:42 9,0 C 81 % 1007,9 hPa 0,0 l/m 13,2 km/h (3 Bft) SW 234 0 min 0,000 mm 0,0 UV-I 0 W/m 5,9 C 4,8 C 17,7 km/h (3 Bft) 94,12 %
23.02.2016 05:43 9,0 C 81 % 1007,9 hPa 0,0 l/m 11,3 km/h (2 Bft) S-SW 211 0 min 0,000 mm 0,0 UV-I 0 W/m 5,9 C 5,7 C 16,1 km/h (3 Bft) 100,00 %
23.02.2016 05:44 9,0 C 81 % 1008,0 hPa 0,0 l/m 10,7 km/h (2 Bft) S 186 0 min 0,000 mm 0,0 UV-I 0 W/m 5,9 C 6,1 C 17,7 km/h (3 Bft) 100,00 %
23.02.2016 05:45 9,0 C 81 % 1008,0 hPa 0,0 l/m 10,3 km/h (2 Bft) S 182 0 min 0,000 mm 0,0 UV-I 0 W/m 5,9 C 6,3 C 16,1 km/h (3 Bft) 100,00 %
23.02.2016 05:46 9,0 C 81 % 1007,9 hPa 0,0 l/m 10,6 km/h (2 Bft) S-SW 213 0 min 0,000 mm 0,0 UV-I 0 W/m 5,9 C 6,1 C 16,1 km/h (3 Bft) 100,00 %
23.02.2016 05:47 9,0 C 81 % 1008,0 hPa 0,0 l/m 9,6 km/h (2 Bft) S 183 0 min 0,000 mm 0,0 UV-I 0 W/m 5,9 C 6,7 C 11,3 km/h (2 Bft) 100,00 %
23.02.2016 05:48 9,0 C 81 % 1008,0 hPa 0,0 l/m 12,9 km/h (3 Bft) SW 215 0 min 0,000 mm 0,0 UV-I 0 W/m 5,9 C 4,9 C 17,7 km/h (3 Bft) 92,86 %
23.02.2016 05:49 9,0 C 80 % 1007,9 hPa 0,0 l/m 10,9 km/h (2 Bft) W-SW 245 0 min 0,000 mm 0,0 UV-I 0 W/m 5,7 C 6,0 C 14,5 km/h (3 Bft) 100,00 %
23.02.2016 05:50 9,0 C 80 % 1007,9 hPa 0,0 l/m 8,6 km/h (2 Bft) S 191 0 min 0,000 mm 0,0 UV-I 0 W/m 5,7 C 7,4 C 11,3 km/h (2 Bft) 92,31 %
23.02.2016 05:51 9,0 C 81 % 1008,0 hPa 0,0 l/m 10,3 km/h (2 Bft) SW 221 0 min 0,000 mm 0,0 UV-I 0 W/m 5,9 C 6,3 C 14,5 km/h (3 Bft) 100,00 %
23.02.2016 05:52 9,0 C 81 % 1008,0 hPa 0,0 l/m 10,4 km/h (2 Bft) S-SW 202 0 min 0,000 mm 0,0 UV-I 0 W/m 5,9 C 6,3 C 14,5 km/h (3 Bft) 100,00 %
23.02.2016 05:53 8,9 C 81 % 1008,0 hPa 0,0 l/m 11,7 km/h (2 Bft) S-SW 200 0 min 0,000 mm 0,0 UV-I 0 W/m 5,8 C 5,4 C 16,1 km/h (3 Bft) 100,00 %
23.02.2016 05:54 9,0 C 81 % 1007,9 hPa 0,0 l/m 13,6 km/h (3 Bft) S-SW 212 0 min 0,000 mm 0,0 UV-I 0 W/m 5,9 C 4,6 C 16,1 km/h (3 Bft) 98,40 %
23.02.2016 05:55 8,9 C 81 % 1007,9 hPa 0,0 l/m 13,8 km/h (3 Bft) SW 217 0 min 0,000 mm 0,0 UV-I 0 W/m 5,8 C 4,3 C 17,7 km/h (3 Bft) 100,00 %
23.02.2016 05:56 8,9 C 81 % 1008,0 hPa 0,0 l/m 11,4 km/h (2 Bft) S 190 0 min 0,000 mm 0,0 UV-I 0 W/m 5,8 C 5,6 C 19,3 km/h (3 Bft) 100,00 %
23.02.2016 05:57 8,9 C 81 % 1008,0 hPa 0,0 l/m 10,9 km/h (2 Bft) SW 217 0 min 0,000 mm 0,0 UV-I 0 W/m 5,8 C 5,9 C 16,1 km/h (3 Bft) 100,00 %
23.02.2016 05:58 8,9 C 81 % 1008,0 hPa 0,0 l/m 13,4 km/h (3 Bft) SW 223 0 min 0,000 mm 0,0 UV-I 0 W/m 5,8 C 4,5 C 16,1 km/h (3 Bft) 100,00 %
23.02.2016 05:59 8,9 C 81 % 1008,0 hPa 0,0 l/m 11,1 km/h (2 Bft) S 183 0 min 0,000 mm 0,0 UV-I 0 W/m 5,8 C 5,7 C 16,1 km/h (3 Bft) 100,00 %
23.02.2016 06:00 8,9 C 81 % 1008,0 hPa 0,0 l/m 11,3 km/h (2 Bft) S-SW 194 0 min 0,000 mm 0,0 UV-I 0 W/m 5,8 C 5,6 C 14,5 km/h (3 Bft) 100,00 %
23.02.2016 06:01 8,9 C 81 % 1007,9 hPa 0,0 l/m 12,3 km/h (3 Bft) S 180 0 min 0,025 mm 0,0 UV-I 0 W/m 5,8 C 5,1 C 16,1 km/h (3 Bft) 100,00 %
23.02.2016 06:02 8,9 C 81 % 1008,0 hPa 0,0 l/m 12,6 km/h (3 Bft) S 177 0 min 0,000 mm 0,0 UV-I 0 W/m 5,8 C 4,9 C 17,7 km/h (3 Bft) 93,33 %
23.02.2016 06:03 8,9 C 81 % 1007,9 hPa 0,0 l/m 12,2 km/h (2 Bft) S-SO 161 0 min 0,000 mm 0,0 UV-I 0 W/m 5,8 C 5,1 C 17,7 km/h (3 Bft) 100,00 %
23.02.2016 06:04 9,0 C 80 % 1007,9 hPa 0,0 l/m 13,0 km/h (3 Bft) S 188 0 min 0,000 mm 0,0 UV-I 0 W/m 5,7 C 4,9 C 14,5 km/h (3 Bft) 100,00 %
23.02.2016 06:05 9,0 C 81 % 1007,9 hPa 0,0 l/m 12,6 km/h (3 Bft) S-SW 202 0 min 0,000 mm 0,0 UV-I 0 W/m 5,9 C 5,1 C 16,1 km/h (3 Bft) 100,00 %
23.02.2016 06:06 9,0 C 80 % 1007,9 hPa 0,0 l/m 12,0 km/h (2 Bft) S 171 0 min 0,000 mm 0,0 UV-I 0 W/m 5,7 C 5,4 C 17,7 km/h (3 Bft) 100,00 %
23.02.2016 06:07 9,0 C 80 % 1007,9 hPa 0,0 l/m 13,9 km/h (3 Bft) S-SW 209 0 min 0,000 mm 0,0 UV-I 0 W/m 5,7 C 4,4 C 17,7 km/h (3 Bft) 100,00 %
23.02.2016 06:08 9,1 C 80 % 1007,9 hPa 0,0 l/m 11,1 km/h (2 Bft) S-SO 165 0 min 0,000 mm 0,0 UV-I 0 W/m 5,8 C 6,0 C 14,5 km/h (3 Bft) 100,00 %
23.02.2016 06:09 9,1 C 80 % 1007,9 hPa 0,0 l/m 12,2 km/h (2 Bft) S 188 0 min 0,000 mm 0,0 UV-I 0 W/m 5,8 C 5,4 C 16,1 km/h (3 Bft) 100,00 %
23.02.2016 06:10 9,1 C 80 % 1007,9 hPa 0,0 l/m 15,5 km/h (3 Bft) SW 221 0 min 0,000 mm 0,0 UV-I 0 W/m 5,8 C 3,8 C 20,9 km/h (4 Bft) 100,00 %
23.02.2016 06:11 9,1 C 80 % 1007,8 hPa 0,0 l/m 11,1 km/h (2 Bft) S-SW 204 0 min 0,000 mm 0,0 UV-I 0 W/m 5,8 C 6,0 C 17,7 km/h (3 Bft) 100,00 %
23.02.2016 06:12 9,1 C 80 % 1007,9 hPa 0,0 l/m 11,3 km/h (2 Bft) SW 224 0 min 0,000 mm 0,0 UV-I 0 W/m 5,8 C 5,9 C 16,1 km/h (3 Bft) 100,00 %
23.02.2016 06:13 9,1 C 80 % 1007,8 hPa 0,0 l/m 10,5 km/h (2 Bft) SW 229 0 min 0,000 mm 0,0 UV-I 0 W/m 5,8 C 6,3 C 17,7 km/h (3 Bft) 100,00 %
23.02.2016 06:14 9,1 C 80 % 1007,9 hPa 0,0 l/m 9,9 km/h (2 Bft) S-SW 206 0 min 0,000 mm 0,0 UV-I 0 W/m 5,8 C 6,7 C 16,1 km/h (3 Bft) 100,00 %
23.02.2016 06:15 9,2 C 80 % 1007,9 hPa 0,0 l/m 11,3 km/h (2 Bft) S-SW 210 0 min 0,000 mm 0,0 UV-I 0 W/m 5,9 C 6,0 C 17,7 km/h (3 Bft) 100,00 %
23.02.2016 06:16 9,2 C 80 % 1007,9 hPa 0,0 l/m 7,7 km/h (2 Bft) S-SW 208 0 min 0,000 mm 0,0 UV-I 0 W/m 5,9 C 8,2 C 11,3 km/h (2 Bft) 100,00 %
23.02.2016 06:17 9,2 C 80 % 1007,8 hPa 0,0 l/m 9,7 km/h (2 Bft) SW 225 0 min 0,000 mm 0,0 UV-I 0 W/m 5,9 C 6,9 C 12,9 km/h (3 Bft) 100,00 %
23.02.2016 06:18 9,2 C 80 % 1007,8 hPa 0,0 l/m 11,0 km/h (2 Bft) S-SW 194 0 min 0,000 mm 0,0 UV-I 0 W/m 5,9 C 6,1 C 14,5 km/h (3 Bft) 100,00 %
23.02.2016 06:19 9,2 C 79 % 1007,7 hPa 0,0 l/m 11,3 km/h (2 Bft) SW 221 0 min 0,000 mm 0,0 UV-I 0 W/m 5,8 C 6,0 C 16,1 km/h (3 Bft) 96,15 %
23.02.2016 06:20 9,2 C 79 % 1007,7 hPa 0,0 l/m 8,7 km/h (2 Bft) SW 216 0 min 0,000 mm 0,0 UV-I 0 W/m 5,8 C 7,5 C 12,9 km/h (3 Bft) 100,00 %
23.02.2016 06:21 9,2 C 79 % 1007,7 hPa 0,0 l/m 8,1 km/h (2 Bft) SW 236 0 min 0,000 mm 0,0 UV-I 0 W/m 5,8 C 7,9 C 14,5 km/h (3 Bft) 100,00 %
23.02.2016 06:22 9,2 C 79 % 1007,7 hPa 0,0 l/m 7,8 km/h (2 Bft) SW 215 0 min 0,000 mm 0,0 UV-I 0 W/m 5,8 C 8,2 C 11,3 km/h (2 Bft) 100,00 %
23.02.2016 06:23 9,2 C 79 % 1007,7 hPa 0,0 l/m 10,0 km/h (2 Bft) S-SW 211 0 min 0,000 mm 0,0 UV-I 0 W/m 5,8 C 6,7 C 14,5 km/h (3 Bft) 100,00 %
23.02.2016 06:24 9,3 C 79 % 1007,6 hPa 0,0 l/m 10,1 km/h (2 Bft) S-SW 208 0 min 0,000 mm 0,0 UV-I 0 W/m 5,8 C 6,8 C 16,1 km/h (3 Bft) 100,00 %
23.02.2016 06:25 9,3 C 79 % 1007,6 hPa 0,0 l/m 8,1 km/h (2 Bft) SW 229 0 min 0,000 mm 0,0 UV-I 0 W/m 5,8 C 8,0 C 14,5 km/h (3 Bft) 100,00 %
23.02.2016 06:26 9,3 C 79 % 1007,6 hPa 0,0 l/m 10,3 km/h (2 Bft) S-SW 194 0 min 0,000 mm 0,0 UV-I 0 W/m 5,8 C 6,6 C 12,9 km/h (3 Bft) 100,00 %
23.02.2016 06:27 9,3 C 79 % 1007,6 hPa 0,0 l/m 8,0 km/h (2 Bft) S-SW 213 0 min 0,000 mm 0,0 UV-I 0 W/m 5,8 C 8,1 C 12,9 km/h (3 Bft) 100,00 %
23.02.2016 06:28 9,3 C 79 % 1007,6 hPa 0,0 l/m 10,2 km/h (2 Bft) SW 215 0 min 0,000 mm 0,0 UV-I 0 W/m 5,8 C 6,7 C 14,5 km/h (3 Bft) 100,00 %
23.02.2016 06:29 9,3 C 79 % 1007,6 hPa 0,0 l/m 9,5 km/h (2 Bft) S-SO 164 0 min 0,000 mm 0,0 UV-I 0 W/m 5,8 C 7,1 C 14,5 km/h (3 Bft) 100,00 %
23.02.2016 06:30 9,3 C 79 % 1007,6 hPa 0,0 l/m 9,6 km/h (2 Bft) S 178 0 min 0,000 mm 0,0 UV-I 0 W/m 5,8 C 7,1 C 14,5 km/h (3 Bft) 100,00 %
23.02.2016 06:31 9,3 C 79 % 1007,7 hPa 0,0 l/m 7,4 km/h (2 Bft) SW 223 0 min 0,000 mm 0,0 UV-I 0 W/m 5,8 C 8,6 C 12,9 km/h (3 Bft) 98,74 %
23.02.2016 06:32 9,3 C 79 % 1007,6 hPa 0,0 l/m 11,3 km/h (2 Bft) S-SW 198 0 min 0,000 mm 0,0 UV-I 0 W/m 5,8 C 6,1 C 14,5 km/h (3 Bft) 100,00 %
23.02.2016 06:33 9,3 C 79 % 1007,6 hPa 0,0 l/m 8,8 km/h (2 Bft) S-SW 200 0 min 0,000 mm 0,0 UV-I 0 W/m 5,8 C 7,6 C 12,9 km/h (3 Bft) 100,00 %
23.02.2016 06:34 9,3 C 79 % 1007,6 hPa 0,0 l/m 7,4 km/h (2 Bft) S 171 0 min 0,000 mm 0,0 UV-I 0 W/m 5,8 C 8,6 C 11,3 km/h (2 Bft) 100,00 %
23.02.2016 06:35 9,3 C 79 % 1007,6 hPa 0,0 l/m 8,8 km/h (2 Bft) W-SW 238 0 min 0,000 mm 0,0 UV-I 0 W/m 5,8 C 7,6 C 11,3 km/h (2 Bft) 96,30 %
23.02.2016 06:36 9,3 C 79 % 1007,6 hPa 0,0 l/m 5,0 km/h (1 Bft) S-SW 207 0 min 0,000 mm 0,0 UV-I 0 W/m 5,8 C 9,3 C 8,0 km/h (2 Bft) 100,00 %
23.02.2016 06:37 9,3 C 79 % 1007,7 hPa 0,0 l/m 7,5 km/h (2 Bft) S-SW 207 0 min 0,000 mm 0,0 UV-I 0 W/m 5,8 C 8,5 C 12,9 km/h (3 Bft) 100,00 %
23.02.2016 06:38 9,3 C 79 % 1007,7 hPa 0,0 l/m 8,4 km/h (2 Bft) W-SW 237 0 min 0,000 mm 0,0 UV-I 0 W/m 5,8 C 7,8 C 12,9 km/h (3 Bft) 100,00 %
23.02.2016 06:39 9,3 C 79 % 1007,7 hPa 0,0 l/m 6,3 km/h (2 Bft) SW 218 0 min 0,000 mm 0,0 UV-I 0 W/m 5,8 C 9,3 C 11,3 km/h (2 Bft) 100,00 %
23.02.2016 06:40 9,3 C 79 % 1007,7 hPa 0,0 l/m 5,5 km/h (1 Bft) S-SW 209 0 min 0,000 mm 0,0 UV-I 0 W/m 5,8 C 9,3 C 8,0 km/h (2 Bft) 100,00 %
23.02.2016 06:41 9,3 C 79 % 1007,7 hPa 0,0 l/m 6,2 km/h (2 Bft) SW 214 0 min 0,000 mm 0,0 UV-I 0 W/m 5,8 C 9,3 C 8,0 km/h (2 Bft) 100,00 %
23.02.2016 06:42 9,3 C 79 % 1007,6 hPa 0,0 l/m 7,6 km/h (2 Bft) S-SW 212 0 min 0,000 mm 0,0 UV-I 0 W/m 5,8 C 8,4 C 11,3 km/h (2 Bft) 100,00 %
23.02.2016 06:43 9,3 C 79 % 1007,6 hPa 0,0 l/m 5,1 km/h (1 Bft) S 179 0 min 0,000 mm 0,0 UV-I 0 W/m 5,8 C 9,3 C 8,0 km/h (2 Bft) 100,00 %
23.02.2016 06:44 9,3 C 79 % 1007,6 hPa 0,0 l/m 6,9 km/h (2 Bft) S-SW 211 0 min 0,000 mm 0,0 UV-I 0 W/m 5,8 C 8,9 C 9,7 km/h (2 Bft) 100,00 %
23.02.2016 06:45 9,3 C 80 % 1007,6 hPa 0,0 l/m 9,2 km/h (2 Bft) SW 215 0 min 0,000 mm 0,0 UV-I 0 W/m 6,0 C 7,3 C 11,3 km/h (2 Bft) 95,65 %
23.02.2016 06:46 9,3 C 80 % 1007,6 hPa 0,0 l/m 7,7 km/h (2 Bft) S 190 0 min 0,000 mm 0,0 UV-I 0 W/m 6,0 C 8,3 C 9,7 km/h (2 Bft) 100,00 %
23.02.2016 06:47 9,3 C 80 % 1007,6 hPa 0,0 l/m 8,0 km/h (2 Bft) S-SW 209 0 min 0,000 mm 0,0 UV-I 0 W/m 6,0 C 8,1 C 9,7 km/h (2 Bft) 96,15 %
23.02.2016 06:48 9,2 C 80 % 1007,6 hPa 0,0 l/m 6,0 km/h (2 Bft) S-SW 205 0 min 0,000 mm 0,0 UV-I 0 W/m 5,9 C 9,2 C 8,0 km/h (2 Bft) 100,00 %
23.02.2016 06:49 9,2 C 81 % 1007,5 hPa 0,0 l/m 4,3 km/h (1 Bft) S-SO 165 0 min 0,000 mm 0,0 UV-I 0 W/m 6,1 C 9,2 C 6,4 km/h (2 Bft) 96,15 %
23.02.2016 06:50 9,2 C 81 % 1007,5 hPa 0,0 l/m 7,2 km/h (2 Bft) S-SW 198 0 min 0,000 mm 0,0 UV-I 0 W/m 6,1 C 8,6 C 9,7 km/h (2 Bft) 96,30 %
23.02.2016 06:51 9,1 C 81 % 1007,5 hPa 0,0 l/m 7,4 km/h (2 Bft) S-SW 194 0 min 0,000 mm 0,0 UV-I 0 W/m 6,0 C 8,3 C 11,3 km/h (2 Bft) 100,00 %
23.02.2016 06:52 9,1 C 81 % 1007,5 hPa 0,0 l/m 5,9 km/h (2 Bft) S 184 0 min 0,000 mm 0,0 UV-I 0 W/m 6,0 C 9,1 C 8,0 km/h (2 Bft) 92,31 %
23.02.2016 06:53 9,1 C 81 % 1007,5 hPa 0,0 l/m 5,6 km/h (1 Bft) S 184 0 min 0,000 mm 0,0 UV-I 0 W/m 6,0 C 9,1 C 6,4 km/h (2 Bft) 100,00 %
23.02.2016 06:54 9,1 C 81 % 1007,5 hPa 0,0 l/m 5,8 km/h (2 Bft) S-SW 204 0 min 0,000 mm 0,0 UV-I 0 W/m 6,0 C 9,1 C 8,0 km/h (2 Bft) 95,83 %
23.02.2016 06:55 9,1 C 81 % 1007,5 hPa 0,0 l/m 5,6 km/h (1 Bft) S-SW 198 0 min 0,000 mm 0,0 UV-I 0 W/m 6,0 C 9,1 C 6,4 km/h (2 Bft) 100,00 %
23.02.2016 06:56 9,1 C 81 % 1007,5 hPa 0,0 l/m 9,1 km/h (2 Bft) S-SW 207 0 min 0,000 mm 0,0 UV-I 0 W/m 6,0 C 7,2 C 12,9 km/h (3 Bft) 95,83 %
23.02.2016 06:57 9,0 C 81 % 1007,5 hPa 0,0 l/m 6,7 km/h (2 Bft) S 178 0 min 0,000 mm 0,0 UV-I 0 W/m 5,9 C 8,8 C 9,7 km/h (2 Bft) 95,65 %
23.02.2016 06:58 9,1 C 81 % 1007,5 hPa 0,0 l/m 8,6 km/h (2 Bft) S 187 0 min 0,000 mm 0,0 UV-I 0 W/m 6,0 C 7,5 C 9,7 km/h (2 Bft) 96,67 %
23.02.2016 06:59 9,0 C 81 % 1007,6 hPa 0,0 l/m 7,8 km/h (2 Bft) S-SW 202 0 min 0,000 mm 0,0 UV-I 0 W/m 5,9 C 7,9 C 12,9 km/h (3 Bft) 91,67 %
23.02.2016 07:00 9,1 C 81 % 1007,5 hPa 0,0 l/m 10,3 km/h (2 Bft) S-SO 168 0 min 0,026 mm 0,0 UV-I 0 W/m 6,0 C 6,4 C 14,5 km/h (3 Bft) 100,00 %
23.02.2016 07:01 9,1 C 81 % 1007,5 hPa 0,0 l/m 8,7 km/h (2 Bft) S 191 0 min 0,000 mm 0,0 UV-I 0 W/m 6,0 C 7,4 C 11,3 km/h (2 Bft) 91,67 %
23.02.2016 07:02 9,1 C 81 % 1007,5 hPa 0,0 l/m 9,2 km/h (2 Bft) S-SO 158 0 min 0,000 mm 0,0 UV-I 0 W/m 6,0 C 7,1 C 11,3 km/h (2 Bft) 96,88 %
23.02.2016 07:03 9,1 C 81 % 1007,5 hPa 0,0 l/m 10,2 km/h (2 Bft) S-SW 193 0 min 0,000 mm 0,0 UV-I 0 W/m 6,0 C 6,5 C 14,5 km/h (3 Bft) 96,30 %
23.02.2016 07:04 9,1 C 81 % 1007,5 hPa 0,0 l/m 10,1 km/h (2 Bft) S-SW 198 0 min 0,000 mm 0,0 UV-I 0 W/m 6,0 C 6,5 C 12,9 km/h (3 Bft) 98,62 %
23.02.2016 07:05 9,1 C 81 % 1007,4 hPa 0,0 l/m 9,1 km/h (2 Bft) S 188 0 min 0,000 mm 0,0 UV-I 0 W/m 6,0 C 7,2 C 12,9 km/h (3 Bft) 95,12 %
23.02.2016 07:06 9,1 C 81 % 1007,5 hPa 0,0 l/m 8,0 km/h (2 Bft) S-SW 201 0 min 0,000 mm 0,0 UV-I 0 W/m 6,0 C 7,9 C 11,3 km/h (2 Bft) 96,55 %
23.02.2016 07:07 9,1 C 81 % 1007,5 hPa 0,0 l/m 9,6 km/h (2 Bft) S-SW 208 0 min 0,000 mm 0,0 UV-I 0 W/m 6,0 C 6,8 C 12,9 km/h (3 Bft) 100,00 %
23.02.2016 07:08 9,1 C 81 % 1007,5 hPa 0,0 l/m 9,0 km/h (2 Bft) S-SW 199 0 min 0,000 mm 0,0 UV-I 0 W/m 6,0 C 7,2 C 11,3 km/h (2 Bft) 95,65 %
23.02.2016 07:09 9,1 C 81 % 1007,4 hPa 0,0 l/m 7,6 km/h (2 Bft) S 190 0 min 0,000 mm 0,0 UV-I 0 W/m 6,0 C 8,2 C 9,7 km/h (2 Bft) 100,00 %
23.02.2016 07:10 9,1 C 81 % 1007,4 hPa 0,0 l/m 9,0 km/h (2 Bft) S-SW 202 0 min 0,000 mm 0,0 UV-I 0 W/m 6,0 C 7,2 C 12,9 km/h (3 Bft) 91,30 %
23.02.2016 07:11 9,1 C 81 % 1007,4 hPa 0,0 l/m 9,1 km/h (2 Bft) S-SW 212 0 min 0,000 mm 0,0 UV-I 0 W/m 6,0 C 7,2 C 14,5 km/h (3 Bft) 96,67 %
23.02.2016 07:12 9,1 C 81 % 1007,4 hPa 0,0 l/m 9,0 km/h (2 Bft) S-SW 213 0 min 0,000 mm 0,0 UV-I 0 W/m 6,0 C 7,2 C 11,3 km/h (2 Bft) 96,15 %
23.02.2016 07:13 9,1 C 80 % 1007,4 hPa 0,0 l/m 9,3 km/h (2 Bft) S 186 0 min 0,000 mm 0,0 UV-I 5 W/m 5,8 C 7,0 C 12,9 km/h (3 Bft) 100,00 %
23.02.2016 07:14 9,1 C 80 % 1007,5 hPa 0,0 l/m 8,1 km/h (2 Bft) S 190 0 min 0,000 mm 0,0 UV-I 5 W/m 5,8 C 7,8 C 11,3 km/h (2 Bft) 96,15 %
23.02.2016 07:15 9,2 C 80 % 1007,5 hPa 0,0 l/m 11,9 km/h (2 Bft) S-SW 213 0 min 0,000 mm 0,0 UV-I 6 W/m 5,9 C 5,6 C 16,1 km/h (3 Bft) 96,30 %
23.02.2016 07:16 9,2 C 80 % 1007,5 hPa 0,0 l/m 12,2 km/h (2 Bft) SW 214 0 min 0,000 mm 0,0 UV-I 7 W/m 5,9 C 5,5 C 19,3 km/h (3 Bft) 100,00 %
23.02.2016 07:17 9,3 C 79 % 1007,4 hPa 0,0 l/m 9,8 km/h (2 Bft) SW 226 0 min 0,000 mm 0,0 UV-I 8 W/m 5,8 C 6,9 C 14,5 km/h (3 Bft) 95,83 %
23.02.2016 07:18 9,3 C 79 % 1007,5 hPa 0,0 l/m 9,9 km/h (2 Bft) W-SW 254 0 min 0,000 mm 0,0 UV-I 9 W/m 5,8 C 6,9 C 14,5 km/h (3 Bft) 100,00 %
23.02.2016 07:19 9,4 C 79 % 1007,5 hPa 0,0 l/m 8,0 km/h (2 Bft) S-SW 196 0 min 0,000 mm 0,0 UV-I 9 W/m 5,9 C 8,2 C 11,3 km/h (2 Bft) 96,43 %
23.02.2016 07:20 9,4 C 79 % 1007,5 hPa 0,0 l/m 6,8 km/h (2 Bft) SW 231 0 min 0,000 mm 0,0 UV-I 9 W/m 5,9 C 9,1 C 11,3 km/h (2 Bft) 100,00 %
23.02.2016 07:21 9,4 C 79 % 1007,5 hPa 0,0 l/m 9,9 km/h (2 Bft) W-SW 246 0 min 0,000 mm 0,0 UV-I 9 W/m 5,9 C 7,0 C 16,1 km/h (3 Bft) 100,00 %
23.02.2016 07:22 9,4 C 79 % 1007,5 hPa 0,0 l/m 9,5 km/h (2 Bft) S-SW 211 0 min 0,000 mm 0,0 UV-I 9 W/m 5,9 C 7,2 C 12,9 km/h (3 Bft) 100,00 %
23.02.2016 07:23 9,5 C 78 % 1007,5 hPa 0,0 l/m 8,6 km/h (2 Bft) S 184 0 min 0,000 mm 0,0 UV-I 8 W/m 5,9 C 7,9 C 12,9 km/h (3 Bft) 100,00 %
23.02.2016 07:24 9,5 C 78 % 1007,5 hPa 0,0 l/m 10,0 km/h (2 Bft) S-SW 202 0 min 0,000 mm 0,0 UV-I 7 W/m 5,9 C 7,0 C 14,5 km/h (3 Bft) 100,00 %
23.02.2016 07:25 9,6 C 78 % 1007,5 hPa 0,0 l/m 8,0 km/h (2 Bft) SW 223 0 min 0,000 mm 0,0 UV-I 7 W/m 6,0 C 8,4 C 12,9 km/h (3 Bft) 100,00 %
23.02.2016 07:26 9,6 C 78 % 1007,5 hPa 0,0 l/m 9,9 km/h (2 Bft) S-SW 205 0 min 0,000 mm 0,0 UV-I 7 W/m 6,0 C 7,2 C 16,1 km/h (3 Bft) 100,00 %
23.02.2016 07:27 9,6 C 78 % 1007,4 hPa 0,0 l/m 11,1 km/h (2 Bft) S 174 0 min 0,000 mm 0,0 UV-I 9 W/m 6,0 C 6,5 C 14,5 km/h (3 Bft) 100,00 %
23.02.2016 07:28 9,6 C 78 % 1007,5 hPa 0,0 l/m 10,5 km/h (2 Bft) W-SW 243 0 min 0,000 mm 0,0 UV-I 10 W/m 6,0 C 6,9 C 16,1 km/h (3 Bft) 96,30 %
23.02.2016 07:29 9,6 C 78 % 1007,5 hPa 0,0 l/m 10,1 km/h (2 Bft) W-SW 244 0 min 0,000 mm 0,0 UV-I 11 W/m 6,0 C 7,1 C 12,9 km/h (3 Bft) 100,00 %
23.02.2016 07:30 9,6 C 78 % 1007,5 hPa 0,0 l/m 10,7 km/h (2 Bft) S-SW 213 0 min 0,000 mm 0,0 UV-I 11 W/m 6,0 C 6,8 C 17,7 km/h (3 Bft) 100,00 %
23.02.2016 07:31 9,6 C 78 % 1007,5 hPa 0,0 l/m 12,9 km/h (3 Bft) W-SW 252 0 min 0,000 mm 0,0 UV-I 11 W/m 6,0 C 5,6 C 22,5 km/h (4 Bft) 100,00 %
23.02.2016 07:32 9,6 C 78 % 1007,5 hPa 0,0 l/m 11,7 km/h (2 Bft) S 180 0 min 0,000 mm 0,0 UV-I 11 W/m 6,0 C 6,2 C 17,7 km/h (3 Bft) 100,00 %
23.02.2016 07:33 9,7 C 77 % 1007,5 hPa 0,0 l/m 12,7 km/h (3 Bft) SW 229 0 min 0,000 mm 0,0 UV-I 11 W/m 5,9 C 5,8 C 19,3 km/h (3 Bft) 100,00 %
23.02.2016 07:34 9,7 C 77 % 1007,5 hPa 0,0 l/m 15,4 km/h (3 Bft) W-SW 251 0 min 0,000 mm 0,0 UV-I 12 W/m 5,9 C 4,6 C 25,7 km/h (4 Bft) 96,30 %
23.02.2016 07:35 9,7 C 77 % 1007,4 hPa 0,0 l/m 13,6 km/h (3 Bft) SW 220 0 min 0,000 mm 0,0 UV-I 12 W/m 5,9 C 5,4 C 20,9 km/h (4 Bft) 100,00 %
23.02.2016 07:36 9,7 C 77 % 1007,5 hPa 0,0 l/m 11,2 km/h (2 Bft) SW 226 0 min 0,000 mm 0,0 UV-I 12 W/m 5,9 C 6,6 C 16,1 km/h (3 Bft) 100,00 %
23.02.2016 07:37 9,7 C 77 % 1007,4 hPa 0,0 l/m 11,3 km/h (2 Bft) W-SW 253 0 min 0,000 mm 0,0 UV-I 12 W/m 5,9 C 6,5 C 16,1 km/h (3 Bft) 100,00 %
23.02.2016 07:38 9,7 C 77 % 1007,5 hPa 0,0 l/m 10,8 km/h (2 Bft) W-SW 238 0 min 0,000 mm 0,0 UV-I 14 W/m 5,9 C 6,8 C 16,1 km/h (3 Bft) 100,00 %
23.02.2016 07:39 9,7 C 77 % 1007,5 hPa 0,0 l/m 14,6 km/h (3 Bft) SW 220 0 min 0,000 mm 0,0 UV-I 14 W/m 5,9 C 4,9 C 19,3 km/h (3 Bft) 100,00 %
23.02.2016 07:40 9,7 C 77 % 1007,5 hPa 0,0 l/m 17,2 km/h (3 Bft) W-SW 240 0 min 0,000 mm 0,0 UV-I 15 W/m 5,9 C 3,9 C 20,9 km/h (4 Bft) 100,00 %
23.02.2016 07:41 9,7 C 77 % 1007,5 hPa 0,0 l/m 13,6 km/h (3 Bft) SW 234 0 min 0,000 mm 0,0 UV-I 16 W/m 5,9 C 5,4 C 19,3 km/h (3 Bft) 100,00 %
23.02.2016 07:42 9,7 C 78 % 1007,5 hPa 0,0 l/m 13,9 km/h (3 Bft) SW 217 0 min 0,000 mm 0,0 UV-I 18 W/m 6,1 C 5,3 C 19,3 km/h (3 Bft) 100,00 %
23.02.2016 07:43 9,7 C 78 % 1007,5 hPa 0,0 l/m 13,7 km/h (3 Bft) SW 230 0 min 0,000 mm 0,0 UV-I 18 W/m 6,1 C 5,3 C 20,9 km/h (4 Bft) 100,00 %
23.02.2016 07:44 9,6 C 78 % 1007,5 hPa 0,0 l/m 12,3 km/h (3 Bft) W-SW 237 0 min 0,000 mm 0,0 UV-I 18 W/m 6,0 C 5,9 C 17,7 km/h (3 Bft) 100,00 %
23.02.2016 07:45 9,6 C 78 % 1007,5 hPa 0,0 l/m 13,2 km/h (3 Bft) SW 236 0 min 0,000 mm 0,0 UV-I 18 W/m 6,0 C 5,5 C 17,7 km/h (3 Bft) 100,00 %
23.02.2016 07:46 9,6 C 78 % 1007,5 hPa 0,0 l/m 13,9 km/h (3 Bft) SW 232 0 min 0,000 mm 0,0 UV-I 19 W/m 6,0 C 5,1 C 17,7 km/h (3 Bft) 100,00 %
23.02.2016 07:47 9,6 C 78 % 1007,5 hPa 0,0 l/m 11,4 km/h (2 Bft) SW 231 0 min 0,000 mm 0,0 UV-I 19 W/m 6,0 C 6,4 C 19,3 km/h (3 Bft) 100,00 %
23.02.2016 07:48 9,5 C 78 % 1007,5 hPa 0,0 l/m 11,9 km/h (2 Bft) W-SW 238 0 min 0,000 mm 0,0 UV-I 19 W/m 5,9 C 6,0 C 19,3 km/h (3 Bft) 96,55 %
23.02.2016 07:49 9,5 C 78 % 1007,5 hPa 0,0 l/m 9,7 km/h (2 Bft) W-SW 253 0 min 0,000 mm 0,0 UV-I 21 W/m 5,9 C 7,2 C 14,5 km/h (3 Bft) 100,00 %
23.02.2016 07:50 9,4 C 78 % 1007,5 hPa 0,0 l/m 11,3 km/h (2 Bft) W-SW 242 0 min 0,000 mm 0,0 UV-I 21 W/m 5,8 C 6,2 C 12,9 km/h (3 Bft) 100,00 %
23.02.2016 07:51 9,4 C 78 % 1007,5 hPa 0,0 l/m 10,0 km/h (2 Bft) W-SW 254 0 min 0,000 mm 0,0 UV-I 21 W/m 5,8 C 6,9 C 14,5 km/h (3 Bft) 92,59 %
23.02.2016 07:52 9,4 C 78 % 1007,5 hPa 0,0 l/m 8,7 km/h (2 Bft) S-SW 211 0 min 0,000 mm 0,0 UV-I 22 W/m 5,8 C 7,7 C 12,9 km/h (3 Bft) 94,12 %
23.02.2016 07:53 9,4 C 78 % 1007,5 hPa 0,0 l/m 10,6 km/h (2 Bft) SW 221 0 min 0,000 mm 0,0 UV-I 23 W/m 5,8 C 6,6 C 12,9 km/h (3 Bft) 100,00 %
23.02.2016 07:54 9,4 C 79 % 1007,5 hPa 0,0 l/m 8,1 km/h (2 Bft) S-SW 199 0 min 0,000 mm 0,0 UV-I 23 W/m 5,9 C 8,2 C 11,3 km/h (2 Bft) 100,00 %
23.02.2016 07:55 9,3 C 79 % 1007,5 hPa 0,0 l/m 8,9 km/h (2 Bft) SW 225 0 min 0,000 mm 0,0 UV-I 23 W/m 5,8 C 7,5 C 12,9 km/h (3 Bft) 100,00 %
23.02.2016 07:56 9,3 C 79 % 1007,5 hPa 0,0 l/m 6,6 km/h (2 Bft) SW 218 0 min 0,000 mm 0,0 UV-I 23 W/m 5,8 C 9,2 C 9,7 km/h (2 Bft) 95,83 %
23.02.2016 07:57 9,3 C 79 % 1007,5 hPa 0,0 l/m 7,2 km/h (2 Bft) S 190 0 min 0,000 mm 0,0 UV-I 23 W/m 5,8 C 8,7 C 9,7 km/h (2 Bft) 100,00 %
23.02.2016 07:58 9,3 C 79 % 1007,6 hPa 0,0 l/m 8,6 km/h (2 Bft) S-SW 198 0 min 0,000 mm 0,0 UV-I 23 W/m 5,8 C 7,7 C 12,9 km/h (3 Bft) 100,00 %
23.02.2016 07:59 9,3 C 79 % 1007,6 hPa 0,0 l/m 9,0 km/h (2 Bft) SW 227 0 min 0,000 mm 0,0 UV-I 22 W/m 5,8 C 7,4 C 11,3 km/h (2 Bft) 100,00 %
23.02.2016 08:00 9,3 C 79 % 1007,6 hPa 0,0 l/m 7,1 km/h (2 Bft) S-SW 197 0 min 0,000 mm 0,0 UV-I 19 W/m 5,8 C 8,8 C 9,7 km/h (2 Bft) 100,00 %
23.02.2016 08:01 9,3 C 79 % 1007,6 hPa 0,0 l/m 7,4 km/h (2 Bft) S 177 0 min 0,025 mm 0,0 UV-I 19 W/m 5,8 C 8,6 C 9,7 km/h (2 Bft) 95,45 %
23.02.2016 08:02 9,3 C 79 % 1007,5 hPa 0,0 l/m 8,9 km/h (2 Bft) S 191 0 min 0,000 mm 0,0 UV-I 20 W/m 5,8 C 7,5 C 12,9 km/h (3 Bft) 100,00 %
23.02.2016 08:03 9,2 C 79 % 1007,6 hPa 0,0 l/m 10,7 km/h (2 Bft) S 185 0 min 0,000 mm 0,0 UV-I 21 W/m 5,8 C 6,3 C 12,9 km/h (3 Bft) 100,00 %
23.02.2016 08:04 9,2 C 79 % 1007,6 hPa 0,0 l/m 8,1 km/h (2 Bft) S-SW 199 0 min 0,000 mm 0,0 UV-I 22 W/m 5,8 C 7,9 C 9,7 km/h (2 Bft) 100,00 %
23.02.2016 08:05 9,2 C 79 % 1007,6 hPa 0,0 l/m 12,4 km/h (3 Bft) S-SW 194 0 min 0,000 mm 0,0 UV-I 23 W/m 5,8 C 5,4 C 16,1 km/h (3 Bft) 96,15 %
23.02.2016 08:06 9,2 C 79 % 1007,6 hPa 0,0 l/m 10,5 km/h (2 Bft) S-SW 213 0 min 0,000 mm 0,0 UV-I 23 W/m 5,8 C 6,4 C 16,1 km/h (3 Bft) 100,00 %
23.02.2016 08:07 9,2 C 79 % 1007,6 hPa 0,0 l/m 10,8 km/h (2 Bft) S-SW 195 0 min 0,000 mm 0,0 UV-I 25 W/m 5,8 C 6,2 C 14,5 km/h (3 Bft) 100,00 %
23.02.2016 08:08 9,2 C 79 % 1007,6 hPa 0,0 l/m 13,3 km/h (3 Bft) S 179 0 min 0,000 mm 0,0 UV-I 25 W/m 5,8 C 4,9 C 17,7 km/h (3 Bft) 100,00 %
23.02.2016 08:09 9,2 C 79 % 1007,6 hPa 0,0 l/m 10,9 km/h (2 Bft) SW 216 0 min 0,000 mm 0,0 UV-I 26 W/m 5,8 C 6,2 C 14,5 km/h (3 Bft) 100,00 %
23.02.2016 08:10 9,2 C 79 % 1007,6 hPa 0,0 l/m 11,9 km/h (2 Bft) S-SW 192 0 min 0,000 mm 0,0 UV-I 26 W/m 5,8 C 5,6 C 14,5 km/h (3 Bft) 100,00 %
23.02.2016 08:11 9,3 C 79 % 1007,6 hPa 0,0 l/m 9,9 km/h (2 Bft) S-SW 200 0 min 0,000 mm 0,0 UV-I 26 W/m 5,8 C 6,9 C 14,5 km/h (3 Bft) 100,00 %
23.02.2016 08:12 9,3 C 79 % 1007,6 hPa 0,0 l/m 9,3 km/h (2 Bft) S 188 0 min 0,000 mm 0,0 UV-I 25 W/m 5,8 C 7,3 C 12,9 km/h (3 Bft) 100,00 %
23.02.2016 08:13 9,3 C 79 % 1007,6 hPa 0,0 l/m 9,4 km/h (2 Bft) SW 217 0 min 0,000 mm 0,0 UV-I 25 W/m 5,8 C 7,2 C 11,3 km/h (2 Bft) 98,62 %
23.02.2016 08:14 9,3 C 79 % 1007,6 hPa 0,0 l/m 10,8 km/h (2 Bft) S-SW 193 0 min 0,000 mm 0,0 UV-I 25 W/m 5,8 C 6,4 C 14,5 km/h (3 Bft) 97,73 %
23.02.2016 08:15 9,3 C 79 % 1007,6 hPa 0,0 l/m 9,4 km/h (2 Bft) S 182 0 min 0,000 mm 0,0 UV-I 26 W/m 5,8 C 7,2 C 16,1 km/h (3 Bft) 100,00 %
23.02.2016 08:16 9,3 C 79 % 1007,6 hPa 0,0 l/m 11,4 km/h (2 Bft) S-SW 210 0 min 0,000 mm 0,0 UV-I 26 W/m 5,8 C 6,0 C 16,1 km/h (3 Bft) 100,00 %
23.02.2016 08:17 9,3 C 79 % 1007,6 hPa 0,0 l/m 11,1 km/h (2 Bft) S-SW 205 0 min 0,000 mm 0,0 UV-I 28 W/m 5,8 C 6,2 C 14,5 km/h (3 Bft) 100,00 %
23.02.2016 08:18 9,3 C 79 % 1007,6 hPa 0,0 l/m 11,3 km/h (2 Bft) S 180 0 min 0,000 mm 0,0 UV-I 28 W/m 5,8 C 6,1 C 16,1 km/h (3 Bft) 100,00 %
23.02.2016 08:19 9,3 C 79 % 1007,6 hPa 0,0 l/m 10,8 km/h (2 Bft) S-SW 204 0 min 0,000 mm 0,0 UV-I 30 W/m 5,8 C 6,4 C 12,9 km/h (3 Bft) 100,00 %
23.02.2016 08:20 9,3 C 79 % 1007,6 hPa 0,0 l/m 8,8 km/h (2 Bft) S-SW 196 0 min 0,000 mm 0,0 UV-I 32 W/m 5,8 C 7,6 C 11,3 km/h (2 Bft) 100,00 %
23.02.2016 08:21 9,3 C 79 % 1007,6 hPa 0,0 l/m 10,1 km/h (2 Bft) SW 217 0 min 0,000 mm 0,0 UV-I 33 W/m 5,8 C 6,8 C 12,9 km/h (3 Bft) 100,00 %
23.02.2016 08:22 9,3 C 79 % 1007,6 hPa 0,0 l/m 11,1 km/h (2 Bft) S-SW 213 0 min 0,000 mm 0,0 UV-I 33 W/m 5,8 C 6,2 C 16,1 km/h (3 Bft) 100,00 %
23.02.2016 08:23 9,3 C 78 % 1007,6 hPa 0,0 l/m 9,3 km/h (2 Bft) SW 232 0 min 0,000 mm 0,0 UV-I 35 W/m 5,7 C 7,3 C 12,9 km/h (3 Bft) 100,00 %
23.02.2016 08:24 9,3 C 78 % 1007,7 hPa 0,0 l/m 8,8 km/h (2 Bft) SW 228 0 min 0,000 mm 0,0 UV-I 40 W/m 5,7 C 7,6 C 14,5 km/h (3 Bft) 95,65 %
23.02.2016 08:25 9,3 C 79 % 1007,7 hPa 0,0 l/m 10,0 km/h (2 Bft) W-SW 247 0 min 0,000 mm 0,0 UV-I 42 W/m 5,8 C 6,8 C 14,5 km/h (3 Bft) 100,00 %
23.02.2016 08:26 9,3 C 79 % 1007,6 hPa 0,0 l/m 10,1 km/h (2 Bft) SW 217 0 min 0,000 mm 0,0 UV-I 45 W/m 5,8 C 6,8 C 14,5 km/h (3 Bft) 100,00 %
23.02.2016 08:27 9,3 C 79 % 1007,6 hPa 0,0 l/m 7,4 km/h (2 Bft) SW 214 0 min 0,000 mm 0,0 UV-I 48 W/m 5,8 C 8,6 C 11,3 km/h (2 Bft) 100,00 %
23.02.2016 08:28 9,3 C 79 % 1007,6 hPa 0,0 l/m 6,7 km/h (2 Bft) SW 218 0 min 0,000 mm 0,0 UV-I 50 W/m 5,8 C 9,1 C 12,9 km/h (3 Bft) 100,00 %
23.02.2016 08:29 9,3 C 79 % 1007,6 hPa 0,0 l/m 8,0 km/h (2 Bft) SW 223 0 min 0,000 mm 0,0 UV-I 53 W/m 5,8 C 8,1 C 11,3 km/h (2 Bft) 100,00 %
23.02.2016 08:30 9,3 C 79 % 1007,6 hPa 0,0 l/m 6,9 km/h (2 Bft) SW 214 0 min 0,000 mm 0,0 UV-I 54 W/m 5,8 C 8,9 C 9,7 km/h (2 Bft) 96,15 %
23.02.2016 08:31 9,3 C 79 % 1007,6 hPa 0,0 l/m 9,6 km/h (2 Bft) W-SW 238 0 min 0,000 mm 0,0 UV-I 57 W/m 5,8 C 7,1 C 12,9 km/h (3 Bft) 100,00 %
23.02.2016 08:32 9,3 C 79 % 1007,6 hPa 0,0 l/m 8,9 km/h (2 Bft) SW 227 0 min 0,000 mm 0,0 UV-I 58 W/m 5,8 C 7,5 C 11,3 km/h (2 Bft) 100,00 %
23.02.2016 08:33 9,2 C 79 % 1007,6 hPa 0,0 l/m 8,2 km/h (2 Bft) S-SW 212 0 min 0,000 mm 0,0 UV-I 59 W/m 5,8 C 7,9 C 9,7 km/h (2 Bft) 100,00 %
23.02.2016 08:34 9,2 C 80 % 1007,6 hPa 0,0 l/m 12,9 km/h (3 Bft) SW 219 0 min 0,000 mm 0,0 UV-I 60 W/m 5,9 C 5,1 C 16,1 km/h (3 Bft) 92,31 %
23.02.2016 08:35 9,1 C 80 % 1007,6 hPa 0,0 l/m 9,8 km/h (2 Bft) W-SW 240 0 min 0,000 mm 0,0 UV-I 62 W/m 5,8 C 6,7 C 12,9 km/h (3 Bft) 100,00 %
23.02.2016 08:36 9,1 C 80 % 1007,5 hPa 0,0 l/m 9,9 km/h (2 Bft) SW 222 0 min 0,000 mm 0,0 UV-I 62 W/m 5,8 C 6,7 C 11,3 km/h (2 Bft) 91,67 %
23.02.2016 08:37 9,1 C 80 % 1007,6 hPa 0,0 l/m 11,3 km/h (2 Bft) SW 224 0 min 0,000 mm 0,0 UV-I 64 W/m 5,8 C 5,9 C 16,1 km/h (3 Bft) 100,00 %
23.02.2016 08:38 9,1 C 80 % 1007,6 hPa 0,0 l/m 9,8 km/h (2 Bft) SW 232 0 min 0,000 mm 0,0 UV-I 66 W/m 5,8 C 6,7 C 12,9 km/h (3 Bft) 100,00 %
23.02.2016 08:39 9,1 C 80 % 1007,6 hPa 0,0 l/m 10,7 km/h (2 Bft) W-SW 240 0 min 0,000 mm 0,0 UV-I 69 W/m 5,8 C 6,2 C 16,1 km/h (3 Bft) 100,00 %
23.02.2016 08:40 9,1 C 80 % 1007,6 hPa 0,0 l/m 9,2 km/h (2 Bft) W-SW 246 0 min 0,000 mm 0,0 UV-I 73 W/m 5,8 C 7,1 C 12,9 km/h (3 Bft) 100,00 %
23.02.2016 08:41 9,1 C 80 % 1007,6 hPa 0,0 l/m 12,1 km/h (2 Bft) W-SW 240 0 min 0,000 mm 0,0 UV-I 76 W/m 5,8 C 5,4 C 17,7 km/h (3 Bft) 100,00 %
23.02.2016 08:42 9,1 C 80 % 1007,5 hPa 0,0 l/m 10,5 km/h (2 Bft) W 265 0 min 0,000 mm 0,0 UV-I 80 W/m 5,8 C 6,3 C 12,9 km/h (3 Bft) 100,00 %
23.02.2016 08:43 9,1 C 80 % 1007,5 hPa 0,0 l/m 10,3 km/h (2 Bft) W-SW 246 0 min 0,000 mm 0,0 UV-I 82 W/m 5,8 C 6,4 C 14,5 km/h (3 Bft) 100,00 %
23.02.2016 08:44 9,1 C 80 % 1007,5 hPa 0,0 l/m 8,9 km/h (2 Bft) W-SW 250 0 min 0,000 mm 0,0 UV-I 87 W/m 5,8 C 7,3 C 12,9 km/h (3 Bft) 100,00 %
23.02.2016 08:45 9,2 C 80 % 1007,5 hPa 0,0 l/m 10,5 km/h (2 Bft) SW 232 0 min 0,000 mm 0,0 UV-I 90 W/m 5,9 C 6,4 C 12,9 km/h (3 Bft) 100,00 %
23.02.2016 08:46 9,2 C 80 % 1007,5 hPa 0,0 l/m 8,6 km/h (2 Bft) W-SW 239 0 min 0,000 mm 0,0 UV-I 96 W/m 5,9 C 7,6 C 11,3 km/h (2 Bft) 100,00 %
23.02.2016 08:47 9,2 C 80 % 1007,5 hPa 0,0 l/m 8,3 km/h (2 Bft) SW 228 0 min 0,000 mm 0,0 UV-I 104 W/m 5,9 C 7,8 C 12,9 km/h (3 Bft) 100,00 %
23.02.2016 08:48 9,2 C 79 % 1007,5 hPa 0,0 l/m 9,6 km/h (2 Bft) W-SW 238 0 min 0,000 mm 0,0 UV-I 113 W/m 5,8 C 7,0 C 16,1 km/h (3 Bft) 100,00 %
23.02.2016 08:49 9,3 C 79 % 1007,5 hPa 0,0 l/m 7,9 km/h (2 Bft) W-SW 245 0 min 0,000 mm 0,0 UV-I 113 W/m 5,8 C 8,2 C 9,7 km/h (2 Bft) 96,15 %
23.02.2016 08:50 9,3 C 79 % 1007,5 hPa 0,0 l/m 7,4 km/h (2 Bft) SW 231 0 min 0,000 mm 0,0 UV-I 119 W/m 5,8 C 8,6 C 9,7 km/h (2 Bft) 95,83 %
23.02.2016 08:51 9,3 C 79 % 1007,5 hPa 0,0 l/m 6,7 km/h (2 Bft) S 190 0 min 0,000 mm 0,0 UV-I 133 W/m 5,8 C 9,1 C 9,7 km/h (2 Bft) 100,00 %
23.02.2016 08:52 9,4 C 79 % 1007,5 hPa 0,0 l/m 9,2 km/h (2 Bft) W-SW 238 0 min 0,000 mm 0,0 UV-I 129 W/m 5,9 C 7,4 C 12,9 km/h (3 Bft) 95,83 %
23.02.2016 08:53 9,4 C 79 % 1007,5 hPa 0,0 l/m 8,8 km/h (2 Bft) SW 232 0 min 0,000 mm 0,0 UV-I 132 W/m 5,9 C 7,7 C 14,5 km/h (3 Bft) 100,00 %
23.02.2016 08:54 9,4 C 79 % 1007,5 hPa 0,0 l/m 7,6 km/h (2 Bft) SW 234 0 min 0,000 mm 0,0 UV-I 131 W/m 5,9 C 8,5 C 11,3 km/h (2 Bft) 93,33 %
23.02.2016 08:55 9,5 C 79 % 1007,5 hPa 0,0 l/m 8,0 km/h (2 Bft) W-SW 246 0 min 0,000 mm 0,0 UV-I 144 W/m 6,0 C 8,3 C 11,3 km/h (2 Bft) 96,30 %
23.02.2016 08:56 9,5 C 79 % 1007,5 hPa 0,0 l/m 8,9 km/h (2 Bft) W-SW 240 0 min 0,000 mm 0,0 UV-I 161 W/m 6,0 C 7,7 C 14,5 km/h (3 Bft) 96,15 %
23.02.2016 08:57 9,6 C 79 % 1007,5 hPa 0,0 l/m 8,4 km/h (2 Bft) W-SW 250 1 min 0,000 mm 0,0 UV-I 171 W/m 6,1 C 8,2 C 12,9 km/h (3 Bft) 96,15 %
23.02.2016 08:58 9,6 C 79 % 1007,5 hPa 0,0 l/m 7,7 km/h (2 Bft) SW 222 1 min 0,000 mm 0,0 UV-I 184 W/m 6,1 C 8,6 C 9,7 km/h (2 Bft) 96,30 %
23.02.2016 08:59 9,7 C 78 % 1007,5 hPa 0,0 l/m 9,7 km/h (2 Bft) W 259 1 min 0,000 mm 0,0 UV-I 186 W/m 6,1 C 7,4 C 16,1 km/h (3 Bft) 100,00 %
23.02.2016 09:00 9,7 C 78 % 1007,5 hPa 0,0 l/m 7,4 km/h (2 Bft) SW 222 1 min 0,051 mm 0,0 UV-I 203 W/m 6,1 C 9,0 C 9,7 km/h (2 Bft) 96,88 %
23.02.2016 09:01 9,8 C 78 % 1007,5 hPa 0,0 l/m 8,1 km/h (2 Bft) SW 232 1 min 0,000 mm 0,0 UV-I 202 W/m 6,1 C 8,6 C 11,3 km/h (2 Bft) 92,59 %
23.02.2016 09:02 9,8 C 78 % 1007,5 hPa 0,0 l/m 12,0 km/h (2 Bft) W-SW 254 1 min 0,000 mm 0,0 UV-I 220 W/m 6,1 C 6,3 C 14,5 km/h (3 Bft) 100,00 %
23.02.2016 09:03 9,9 C 77 % 1007,5 hPa 0,0 l/m 10,1 km/h (2 Bft) SW 229 1 min 0,000 mm 0,0 UV-I 254 W/m 6,1 C 7,4 C 14,5 km/h (3 Bft) 96,67 %
23.02.2016 09:04 10,1 C 77 % 1007,5 hPa 0,0 l/m 11,5 km/h (2 Bft) W-SW 251 1 min 0,000 mm 0,0 UV-I 258 W/m 6,3 C 6,9 C 14,5 km/h (3 Bft) 96,55 %
23.02.2016 09:05 10,1 C 76 % 1007,5 hPa 0,0 l/m 11,5 km/h (2 Bft) W-SW 241 1 min 0,000 mm 0,4 UV-I 261 W/m 6,1 C 6,9 C 17,7 km/h (3 Bft) 100,00 %
23.02.2016 09:06 10,2 C 76 % 1007,5 hPa 0,0 l/m 13,3 km/h (3 Bft) W-SW 248 1 min 0,000 mm 0,5 UV-I 267 W/m 6,2 C 6,1 C 17,7 km/h (3 Bft) 100,00 %
23.02.2016 09:07 10,3 C 77 % 1007,5 hPa 0,0 l/m 9,5 km/h (2 Bft) W-SW 246 1 min 0,000 mm 0,0 UV-I 249 W/m 6,4 C 8,2 C 14,5 km/h (3 Bft) 96,67 %
23.02.2016 09:08 10,3 C 76 % 1007,5 hPa 0,0 l/m 10,5 km/h (2 Bft) SW 234 1 min 0,000 mm 0,0 UV-I 235 W/m 6,3 C 7,6 C 16,1 km/h (3 Bft) 92,86 %
23.02.2016 09:09 10,4 C 76 % 1007,5 hPa 0,0 l/m 15,4 km/h (3 Bft) SW 225 1 min 0,000 mm 0,3 UV-I 246 W/m 6,4 C 5,5 C 20,9 km/h (4 Bft) 100,00 %
23.02.2016 09:10 10,4 C 76 % 1007,4 hPa 0,0 l/m 12,1 km/h (2 Bft) S-SW 200 1 min 0,000 mm 0,5 UV-I 258 W/m 6,4 C 6,9 C 16,1 km/h (3 Bft) 96,15 %
23.02.2016 09:11 10,6 C 76 % 1007,4 hPa 0,0 l/m 12,7 km/h (3 Bft) SW 215 1 min 0,000 mm 0,5 UV-I 229 W/m 6,5 C 6,9 C 16,1 km/h (3 Bft) 100,00 %
23.02.2016 09:12 10,6 C 76 % 1007,4 hPa 0,0 l/m 10,2 km/h (2 Bft) S-SW 201 1 min 0,000 mm 0,5 UV-I 205 W/m 6,5 C 8,1 C 14,5 km/h (3 Bft) 93,33 %
23.02.2016 09:13 10,7 C 75 % 1007,4 hPa 0,0 l/m 15,4 km/h (3 Bft) S-SW 211 1 min 0,000 mm 0,5 UV-I 185 W/m 6,5 C 5,8 C 20,9 km/h (4 Bft) 100,00 %
23.02.2016 09:14 10,7 C 74 % 1007,4 hPa 0,0 l/m 8,9 km/h (2 Bft) SW 223 0 min 0,000 mm 0,5 UV-I 174 W/m 6,3 C 9,0 C 16,1 km/h (3 Bft) 96,15 %
23.02.2016 09:15 10,7 C 74 % 1007,4 hPa 0,0 l/m 11,5 km/h (2 Bft) SW 224 0 min 0,000 mm 0,5 UV-I 170 W/m 6,3 C 7,6 C 16,1 km/h (3 Bft) 96,30 %
23.02.2016 09:16 10,7 C 74 % 1007,4 hPa 0,0 l/m 14,3 km/h (3 Bft) SW 229 0 min 0,000 mm 0,5 UV-I 162 W/m 6,3 C 6,3 C 24,1 km/h (4 Bft) 100,00 %
23.02.2016 09:17 10,7 C 74 % 1007,3 hPa 0,0 l/m 18,8 km/h (3 Bft) W-SW 242 0 min 0,000 mm 0,5 UV-I 175 W/m 6,3 C 4,6 C 25,7 km/h (4 Bft) 96,43 %
23.02.2016 09:18 10,7 C 74 % 1007,3 hPa 0,0 l/m 17,5 km/h (3 Bft) W-SW 237 0 min 0,000 mm 0,5 UV-I 181 W/m 6,3 C 5,0 C 20,9 km/h (4 Bft) 100,00 %
23.02.2016 09:19 10,7 C 74 % 1007,3 hPa 0,0 l/m 11,6 km/h (2 Bft) SW 226 0 min 0,000 mm 0,5 UV-I 169 W/m 6,3 C 7,5 C 16,1 km/h (3 Bft) 100,00 %
23.02.2016 09:20 10,7 C 74 % 1007,3 hPa 0,0 l/m 9,9 km/h (2 Bft) S 177 0 min 0,000 mm 0,5 UV-I 169 W/m 6,3 C 8,4 C 16,1 km/h (3 Bft) 100,00 %
23.02.2016 09:21 10,7 C 73 % 1007,3 hPa 0,0 l/m 13,9 km/h (3 Bft) W-SW 241 0 min 0,000 mm 0,5 UV-I 172 W/m 6,1 C 6,4 C 20,9 km/h (4 Bft) 100,00 %
23.02.2016 09:22 10,8 C 73 % 1007,3 hPa 0,0 l/m 12,4 km/h (3 Bft) SW 236 0 min 0,000 mm 0,5 UV-I 172 W/m 6,2 C 7,2 C 16,1 km/h (3 Bft) 100,00 %
23.02.2016 09:23 10,8 C 73 % 1007,3 hPa 0,0 l/m 16,4 km/h (3 Bft) SW 229 0 min 0,000 mm 0,5 UV-I 172 W/m 6,2 C 5,6 C 22,5 km/h (4 Bft) 100,00 %
23.02.2016 09:24 10,8 C 73 % 1007,3 hPa 0,0 l/m 13,8 km/h (3 Bft) W-SW 239 0 min 0,000 mm 0,5 UV-I 168 W/m 6,2 C 6,6 C 16,1 km/h (3 Bft) 96,30 %
23.02.2016 09:25 10,8 C 73 % 1007,4 hPa 0,0 l/m 10,9 km/h (2 Bft) W-SW 250 0 min 0,000 mm 0,5 UV-I 181 W/m 6,2 C 8,0 C 14,5 km/h (3 Bft) 100,00 %
23.02.2016 09:26 10,8 C 72 % 1007,4 hPa 0,0 l/m 16,5 km/h (3 Bft) SW 227 1 min 0,000 mm 0,5 UV-I 208 W/m 6,0 C 5,5 C 24,1 km/h (4 Bft) 95,83 %
23.02.2016 09:27 10,8 C 72 % 1007,4 hPa 0,0 l/m 11,7 km/h (2 Bft) SW 229 1 min 0,000 mm 0,6 UV-I 227 W/m 6,0 C 7,6 C 16,1 km/h (3 Bft) 100,00 %
23.02.2016 09:28 10,9 C 72 % 1007,3 hPa 0,0 l/m 11,2 km/h (2 Bft) S-SW 204 1 min 0,000 mm 0,6 UV-I 212 W/m 6,1 C 7,9 C 16,1 km/h (3 Bft) 100,00 %
23.02.2016 09:29 10,9 C 72 % 1007,3 hPa 0,0 l/m 9,3 km/h (2 Bft) SW 234 1 min 0,000 mm 0,6 UV-I 214 W/m 6,1 C 9,0 C 14,5 km/h (3 Bft) 100,00 %
23.02.2016 09:30 10,9 C 73 % 1007,3 hPa 0,0 l/m 10,8 km/h (2 Bft) SW 222 1 min 0,000 mm 0,6 UV-I 210 W/m 6,3 C 8,2 C 14,5 km/h (3 Bft) 93,33 %
23.02.2016 09:31 10,9 C 72 % 1007,3 hPa 0,0 l/m 13,3 km/h (3 Bft) W-SW 242 1 min 0,000 mm 0,6 UV-I 212 W/m 6,1 C 6,9 C 25,7 km/h (4 Bft) 100,00 %
23.02.2016 09:32 11,0 C 70 % 1007,2 hPa 0,0 l/m 16,3 km/h (3 Bft) SW 230 1 min 0,000 mm 0,6 UV-I 222 W/m 5,7 C 5,8 C 24,1 km/h (4 Bft) 100,00 %
23.02.2016 09:33 11,1 C 71 % 1007,3 hPa 0,0 l/m 12,0 km/h (2 Bft) SW 236 1 min 0,000 mm 0,5 UV-I 214 W/m 6,0 C 7,8 C 17,7 km/h (3 Bft) 100,00 %
23.02.2016 09:34 11,1 C 71 % 1007,3 hPa 0,0 l/m 15,8 km/h (3 Bft) SW 224 0 min 0,000 mm 0,6 UV-I 180 W/m 6,0 C 6,2 C 20,9 km/h (4 Bft) 100,00 %
23.02.2016 09:35 11,1 C 70 % 1007,2 hPa 0,0 l/m 14,2 km/h (3 Bft) W 260 0 min 0,000 mm 0,5 UV-I 171 W/m 5,8 C 6,8 C 20,9 km/h (4 Bft) 100,00 %
23.02.2016 09:36 11,1 C 70 % 1007,4 hPa 0,0 l/m 15,3 km/h (3 Bft) SW 225 0 min 0,000 mm 0,5 UV-I 168 W/m 5,8 C 6,3 C 24,1 km/h (4 Bft) 100,00 %
23.02.2016 09:37 11,2 C 70 % 1007,3 hPa 0,0 l/m 13,3 km/h (3 Bft) SW 215 0 min 0,000 mm 0,5 UV-I 148 W/m 5,9 C 7,3 C 19,3 km/h (3 Bft) 95,83 %
23.02.2016 09:38 11,2 C 70 % 1007,2 hPa 0,0 l/m 13,3 km/h (3 Bft) W-SW 248 0 min 0,000 mm 0,5 UV-I 129 W/m 5,9 C 7,3 C 20,9 km/h (4 Bft) 100,00 %
23.02.2016 09:39 11,2 C 69 % 1007,2 hPa 0,0 l/m 15,5 km/h (3 Bft) W-SW 242 0 min 0,000 mm 0,5 UV-I 128 W/m 5,7 C 6,4 C 24,1 km/h (4 Bft) 100,00 %
23.02.2016 09:40 11,2 C 70 % 1007,2 hPa 0,0 l/m 14,6 km/h (3 Bft) SW 227 0 min 0,000 mm 0,5 UV-I 131 W/m 5,9 C 6,7 C 22,5 km/h (4 Bft) 100,00 %
23.02.2016 09:41 11,2 C 69 % 1007,2 hPa 0,0 l/m 22,5 km/h (4 Bft) SW 232 0 min 0,000 mm 0,5 UV-I 137 W/m 5,7 C 4,1 C 29,0 km/h (5 Bft) 100,00 %
23.02.2016 09:42 11,2 C 68 % 1007,2 hPa 0,0 l/m 20,6 km/h (4 Bft) SW 217 0 min 0,000 mm 0,5 UV-I 142 W/m 5,5 C 4,7 C 30,6 km/h (5 Bft) 100,00 %
23.02.2016 09:43 11,2 C 68 % 1007,2 hPa 0,0 l/m 18,2 km/h (3 Bft) W 264 0 min 0,000 mm 0,5 UV-I 148 W/m 5,5 C 5,4 C 24,1 km/h (4 Bft) 100,00 %
23.02.2016 09:44 11,2 C 69 % 1007,2 hPa 0,0 l/m 18,2 km/h (3 Bft) S-SW 213 0 min 0,000 mm 0,5 UV-I 152 W/m 5,7 C 5,4 C 24,1 km/h (4 Bft) 100,00 %
23.02.2016 09:45 11,2 C 68 % 1007,2 hPa 0,0 l/m 16,9 km/h (3 Bft) W-SW 240 0 min 0,000 mm 0,6 UV-I 156 W/m 5,5 C 5,9 C 22,5 km/h (4 Bft) 96,30 %
23.02.2016 09:46 11,2 C 68 % 1007,2 hPa 0,0 l/m 13,9 km/h (3 Bft) W-SW 242 0 min 0,000 mm 0,6 UV-I 156 W/m 5,5 C 7,0 C 19,3 km/h (3 Bft) 100,00 %
23.02.2016 09:47 11,2 C 68 % 1007,2 hPa 0,0 l/m 22,9 km/h (4 Bft) W 269 0 min 0,000 mm 0,6 UV-I 167 W/m 5,5 C 4,0 C 29,0 km/h (5 Bft) 100,00 %
23.02.2016 09:48 11,2 C 68 % 1007,1 hPa 0,0 l/m 17,9 km/h (3 Bft) SW 236 0 min 0,000 mm 0,6 UV-I 178 W/m 5,5 C 5,5 C 24,1 km/h (4 Bft) 100,00 %
23.02.2016 09:49 11,2 C 68 % 1007,2 hPa 0,0 l/m 13,7 km/h (3 Bft) SW 234 0 min 0,000 mm 0,6 UV-I 184 W/m 5,5 C 7,1 C 20,9 km/h (4 Bft) 100,00 %
23.02.2016 09:50 11,2 C 68 % 1007,2 hPa 0,0 l/m 15,9 km/h (3 Bft) W-SW 245 0 min 0,000 mm 0,6 UV-I 186 W/m 5,5 C 6,2 C 19,3 km/h (3 Bft) 95,65 %
23.02.2016 09:51 11,2 C 68 % 1007,2 hPa 0,0 l/m 17,6 km/h (3 Bft) SW 229 0 min 0,000 mm 0,7 UV-I 191 W/m 5,5 C 5,6 C 27,4 km/h (4 Bft) 100,00 %
23.02.2016 09:52 11,2 C 68 % 1007,2 hPa 0,0 l/m 10,3 km/h (2 Bft) W-SW 239 0 min 0,000 mm 0,7 UV-I 184 W/m 5,5 C 8,8 C 17,7 km/h (3 Bft) 100,00 %
23.02.2016 09:53 11,2 C 68 % 1007,2 hPa 0,0 l/m 12,1 km/h (2 Bft) S-SW 210 0 min 0,000 mm 0,7 UV-I 179 W/m 5,5 C 7,8 C 19,3 km/h (3 Bft) 100,00 %
23.02.2016 09:54 11,2 C 67 % 1007,2 hPa 0,0 l/m 11,3 km/h (2 Bft) W-SW 254 0 min 0,000 mm 0,7 UV-I 179 W/m 5,3 C 8,2 C 14,5 km/h (3 Bft) 100,00 %
23.02.2016 09:55 11,2 C 67 % 1007,1 hPa 0,0 l/m 14,8 km/h (3 Bft) SW 223 0 min 0,000 mm 0,7 UV-I 175 W/m 5,3 C 6,7 C 19,3 km/h (3 Bft) 100,00 %
23.02.2016 09:56 11,2 C 68 % 1007,1 hPa 0,0 l/m 12,6 km/h (3 Bft) W-SW 242 0 min 0,000 mm 0,7 UV-I 167 W/m 5,5 C 7,6 C 20,9 km/h (4 Bft) 100,00 %
23.02.2016 09:57 11,2 C 68 % 1007,1 hPa 0,0 l/m 14,1 km/h (3 Bft) S-SW 206 0 min 0,000 mm 0,6 UV-I 160 W/m 5,5 C 7,0 C 20,9 km/h (4 Bft) 100,00 %
23.02.2016 09:58 11,2 C 68 % 1007,1 hPa 0,0 l/m 16,8 km/h (3 Bft) SW 234 0 min 0,000 mm 0,6 UV-I 154 W/m 5,5 C 5,9 C 24,1 km/h (4 Bft) 100,00 %
23.02.2016 09:59 11,2 C 68 % 1007,1 hPa 0,0 l/m 13,9 km/h (3 Bft) SW 224 0 min 0,000 mm 0,6 UV-I 149 W/m 5,5 C 7,0 C 19,3 km/h (3 Bft) 100,00 %
23.02.2016 10:00 11,2 C 68 % 1007,1 hPa 0,0 l/m 10,4 km/h (2 Bft) W-SW 240 0 min 0,000 mm 0,6 UV-I 147 W/m 5,5 C 8,7 C 16,1 km/h (3 Bft) 100,00 %
23.02.2016 10:01 11,2 C 68 % 1007,1 hPa 0,0 l/m 11,1 km/h (2 Bft) SW 222 0 min 0,127 mm 0,6 UV-I 146 W/m 5,5 C 8,3 C 16,1 km/h (3 Bft) 100,00 %
23.02.2016 10:02 11,2 C 68 % 1007,1 hPa 0,0 l/m 14,5 km/h (3 Bft) SW 216 0 min 0,000 mm 0,6 UV-I 146 W/m 5,5 C 6,8 C 19,3 km/h (3 Bft) 100,00 %
23.02.2016 10:03 11,2 C 68 % 1007,1 hPa 0,0 l/m 13,3 km/h (3 Bft) SW 224 0 min 0,000 mm 0,6 UV-I 146 W/m 5,5 C 7,3 C 19,3 km/h (3 Bft) 98,66 %
23.02.2016 10:04 11,2 C 69 % 1007,1 hPa 0,0 l/m 10,5 km/h (2 Bft) W-SW 257 0 min 0,000 mm 0,7 UV-I 161 W/m 5,7 C 8,7 C 16,1 km/h (3 Bft) 100,00 %
23.02.2016 10:05 11,2 C 68 % 1007,1 hPa 0,0 l/m 18,2 km/h (3 Bft) W-SW 253 0 min 0,000 mm 0,7 UV-I 150 W/m 5,5 C 5,4 C 24,1 km/h (4 Bft) 100,00 %
23.02.2016 10:06 11,2 C 68 % 1007,0 hPa 0,0 l/m 15,4 km/h (3 Bft) SW 223 0 min 0,000 mm 0,7 UV-I 143 W/m 5,5 C 6,4 C 24,1 km/h (4 Bft) 100,00 %
23.02.2016 10:07 11,2 C 67 % 1007,1 hPa 0,0 l/m 15,8 km/h (3 Bft) W-SW 242 0 min 0,000 mm 0,7 UV-I 145 W/m 5,3 C 6,3 C 17,7 km/h (3 Bft) 100,00 %
23.02.2016 10:08 11,2 C 67 % 1007,1 hPa 0,0 l/m 16,0 km/h (3 Bft) W-SW 246 0 min 0,000 mm 0,7 UV-I 143 W/m 5,3 C 6,2 C 20,9 km/h (4 Bft) 100,00 %
23.02.2016 10:09 11,2 C 67 % 1007,1 hPa 0,0 l/m 17,0 km/h (3 Bft) W-SW 257 0 min 0,000 mm 0,7 UV-I 144 W/m 5,3 C 5,8 C 24,1 km/h (4 Bft) 95,65 %
23.02.2016 10:10 11,2 C 68 % 1007,1 hPa 0,0 l/m 13,8 km/h (3 Bft) W-SW 238 0 min 0,000 mm 0,7 UV-I 146 W/m 5,5 C 7,1 C 17,7 km/h (3 Bft) 100,00 %
23.02.2016 10:11 11,2 C 67 % 1007,1 hPa 0,0 l/m 17,9 km/h (3 Bft) SW 232 0 min 0,000 mm 0,7 UV-I 147 W/m 5,3 C 5,5 C 32,2 km/h (5 Bft) 100,00 %
23.02.2016 10:12 11,2 C 66 % 1007,1 hPa 0,0 l/m 19,0 km/h (3 Bft) W-SW 250 0 min 0,000 mm 0,7 UV-I 150 W/m 5,1 C 5,2 C 29,0 km/h (5 Bft) 100,00 %
23.02.2016 10:13 11,2 C 66 % 1007,1 hPa 0,0 l/m 15,9 km/h (3 Bft) W-SW 237 0 min 0,000 mm 0,7 UV-I 152 W/m 5,1 C 6,2 C 20,9 km/h (4 Bft) 100,00 %
23.02.2016 10:14 11,2 C 67 % 1007,1 hPa 0,0 l/m 14,4 km/h (3 Bft) W-SW 247 0 min 0,000 mm 0,8 UV-I 157 W/m 5,3 C 6,8 C 24,1 km/h (4 Bft) 100,00 %
23.02.2016 10:15 11,2 C 67 % 1007,0 hPa 0,0 l/m 10,9 km/h (2 Bft) W 274 0 min 0,000 mm 0,8 UV-I 164 W/m 5,3 C 8,4 C 19,3 km/h (3 Bft) 100,00 %
23.02.2016 10:16 11,2 C 66 % 1007,0 hPa 0,0 l/m 13,8 km/h (3 Bft) W 277 0 min 0,000 mm 0,8 UV-I 168 W/m 5,1 C 7,1 C 17,7 km/h (3 Bft) 96,15 %
23.02.2016 10:17 11,2 C 66 % 1007,1 hPa 0,0 l/m 14,6 km/h (3 Bft) SW 223 0 min 0,000 mm 0,8 UV-I 173 W/m 5,1 C 6,7 C 17,7 km/h (3 Bft) 98,69 %
23.02.2016 10:18 11,3 C 67 % 1007,1 hPa 0,0 l/m 11,1 km/h (2 Bft) W-SW 238 0 min 0,000 mm 0,8 UV-I 183 W/m 5,4 C 8,5 C 19,3 km/h (3 Bft) 100,00 %
23.02.2016 10:19 11,3 C 67 % 1007,0 hPa 0,0 l/m 15,0 km/h (3 Bft) W-SW 241 0 min 0,000 mm 0,9 UV-I 200 W/m 5,4 C 6,7 C 19,3 km/h (3 Bft) 100,00 %
23.02.2016 10:20 11,3 C 67 % 1007,0 hPa 0,0 l/m 15,8 km/h (3 Bft) W-SW 243 0 min 0,000 mm 0,9 UV-I 227 W/m 5,4 C 6,4 C 20,9 km/h (4 Bft) 100,00 %
23.02.2016 10:21 11,3 C 66 % 1007,0 hPa 0,0 l/m 15,0 km/h (3 Bft) W-SW 248 1 min 0,000 mm 1,0 UV-I 268 W/m 5,2 C 6,7 C 19,3 km/h (3 Bft) 100,00 %
23.02.2016 10:22 11,4 C 66 % 1007,0 hPa 0,0 l/m 19,0 km/h (3 Bft) W-SW 242 1 min 0,000 mm 1,0 UV-I 301 W/m 5,3 C 5,4 C 24,1 km/h (4 Bft) 100,00 %
23.02.2016 10:23 11,4 C 66 % 1007,0 hPa 0,0 l/m 20,8 km/h (4 Bft) SW 232 1 min 0,000 mm 1,0 UV-I 351 W/m 5,3 C 4,9 C 24,1 km/h (4 Bft) 100,00 %
23.02.2016 10:24 11,5 C 66 % 1007,0 hPa 0,0 l/m 16,7 km/h (3 Bft) W 266 1 min 0,000 mm 1,1 UV-I 358 W/m 5,4 C 6,3 C 22,5 km/h (4 Bft) 100,00 %
23.02.2016 10:25 11,6 C 66 % 1007,0 hPa 0,0 l/m 13,1 km/h (3 Bft) W-SW 250 1 min 0,000 mm 0,9 UV-I 272 W/m 5,5 C 7,9 C 16,1 km/h (3 Bft) 100,00 %
23.02.2016 10:26 11,6 C 66 % 1007,0 hPa 0,0 l/m 17,1 km/h (3 Bft) W-SW 245 1 min 0,000 mm 0,9 UV-I 278 W/m 5,5 C 6,3 C 22,5 km/h (4 Bft) 100,00 %
23.02.2016 10:27 11,7 C 66 % 1007,0 hPa 0,0 l/m 14,7 km/h (3 Bft) W-SW 246 1 min 0,000 mm 0,8 UV-I 258 W/m 5,6 C 7,3 C 20,9 km/h (4 Bft) 100,00 %
23.02.2016 10:28 11,7 C 66 % 1007,0 hPa 0,0 l/m 11,5 km/h (2 Bft) W 259 0 min 0,000 mm 0,9 UV-I 245 W/m 5,6 C 8,7 C 25,7 km/h (4 Bft) 92,86 %
23.02.2016 10:29 11,8 C 66 % 1007,0 hPa 0,0 l/m 16,3 km/h (3 Bft) W-SW 243 0 min 0,000 mm 0,7 UV-I 213 W/m 5,7 C 6,8 C 20,9 km/h (4 Bft) 100,00 %
23.02.2016 10:30 11,8 C 66 % 1007,1 hPa 0,0 l/m 14,6 km/h (3 Bft) W-SW 248 0 min 0,000 mm 0,6 UV-I 178 W/m 5,7 C 7,5 C 22,5 km/h (4 Bft) 100,00 %
23.02.2016 10:31 11,8 C 65 % 1007,1 hPa 0,0 l/m 14,7 km/h (3 Bft) W-SW 244 0 min 0,000 mm 0,5 UV-I 154 W/m 5,4 C 7,4 C 19,3 km/h (3 Bft) 100,00 %
23.02.2016 10:32 11,8 C 65 % 1007,1 hPa 0,0 l/m 20,2 km/h (4 Bft) W 259 0 min 0,000 mm 0,5 UV-I 149 W/m 5,4 C 5,6 C 29,0 km/h (5 Bft) 100,00 %
23.02.2016 10:33 11,7 C 65 % 1007,0 hPa 0,0 l/m 21,6 km/h (4 Bft) W-SW 257 0 min 0,000 mm 0,6 UV-I 150 W/m 5,3 C 5,0 C 29,0 km/h (5 Bft) 100,00 %
23.02.2016 10:34 11,7 C 66 % 1007,1 hPa 0,0 l/m 18,8 km/h (3 Bft) SW 223 0 min 0,000 mm 0,6 UV-I 159 W/m 5,6 C 5,9 C 24,1 km/h (4 Bft) 100,00 %
23.02.2016 10:35 11,6 C 67 % 1007,1 hPa 0,0 l/m 18,8 km/h (3 Bft) W-SW 238 0 min 0,000 mm 0,7 UV-I 177 W/m 5,7 C 5,7 C 32,2 km/h (5 Bft) 91,30 %
23.02.2016 10:36 11,6 C 67 % 1007,1 hPa 0,0 l/m 18,1 km/h (3 Bft) W 265 0 min 0,000 mm 0,7 UV-I 189 W/m 5,7 C 6,0 C 25,7 km/h (4 Bft) 96,55 %
23.02.2016 10:37 11,5 C 67 % 1007,1 hPa 0,0 l/m 18,4 km/h (3 Bft) W 268 0 min 0,000 mm 0,7 UV-I 182 W/m 5,6 C 5,7 C 27,4 km/h (4 Bft) 100,00 %
23.02.2016 10:38 11,4 C 67 % 1007,1 hPa 0,0 l/m 15,2 km/h (3 Bft) W 263 0 min 0,000 mm 0,7 UV-I 164 W/m 5,5 C 6,8 C 19,3 km/h (3 Bft) 100,00 %
23.02.2016 10:39 11,4 C 67 % 1007,1 hPa 0,0 l/m 12,5 km/h (3 Bft) W-SW 255 0 min 0,000 mm 0,7 UV-I 171 W/m 5,5 C 7,9 C 14,5 km/h (3 Bft) 100,00 %
23.02.2016 10:42 11,3 C 68 % 1007,1 hPa 0,0 l/m 16,5 km/h (3 Bft) W 263 0 min 0,000 mm 0,7 UV-I 167 W/m 5,6 C 6,1 C 22,5 km/h (4 Bft) 97,67 %
23.02.2016 10:43 11,3 C 67 % 1007,1 hPa 0,0 l/m 16,1 km/h (3 Bft) W 273 0 min 0,000 mm 0,7 UV-I 164 W/m 5,4 C 6,3 C 22,5 km/h (4 Bft) 92,86 %
23.02.2016 10:44 11,3 C 68 % 1007,2 hPa 0,0 l/m 12,6 km/h (3 Bft) W-SW 245 0 min 0,000 mm 0,6 UV-I 156 W/m 5,6 C 7,7 C 20,9 km/h (4 Bft) 100,00 %
23.02.2016 10:45 11,3 C 68 % 1007,1 hPa 0,0 l/m 9,6 km/h (2 Bft) W-NW 289 0 min 0,000 mm 0,6 UV-I 154 W/m 5,6 C 9,3 C 11,3 km/h (2 Bft) 96,15 %
23.02.2016 10:46 11,2 C 69 % 1007,0 hPa 0,0 l/m 12,6 km/h (3 Bft) W-NW 300 0 min 0,000 mm 0,7 UV-I 159 W/m 5,7 C 7,6 C 19,3 km/h (3 Bft) 100,00 %
23.02.2016 10:47 11,2 C 68 % 1007,0 hPa 0,0 l/m 7,6 km/h (2 Bft) W-SW 254 0 min 0,000 mm 0,8 UV-I 168 W/m 5,5 C 10,4 C 16,1 km/h (3 Bft) 92,86 %
23.02.2016 10:48 11,2 C 68 % 1006,9 hPa 0,0 l/m 14,6 km/h (3 Bft) W 273 0 min 0,000 mm 0,9 UV-I 174 W/m 5,5 C 6,7 C 22,5 km/h (4 Bft) 100,00 %
23.02.2016 10:49 11,2 C 67 % 1006,8 hPa 0,0 l/m 9,6 km/h (2 Bft) W-SW 252 0 min 0,000 mm 0,9 UV-I 178 W/m 5,3 C 9,1 C 14,5 km/h (3 Bft) 96,15 %
23.02.2016 10:50 11,2 C 68 % 1006,8 hPa 0,0 l/m 12,3 km/h (3 Bft) W 279 0 min 0,000 mm 0,9 UV-I 178 W/m 5,5 C 7,8 C 17,7 km/h (3 Bft) 91,67 %
23.02.2016 10:51 11,1 C 68 % 1006,9 hPa 0,0 l/m 8,8 km/h (2 Bft) W-NW 288 0 min 0,000 mm 0,9 UV-I 177 W/m 5,4 C 9,5 C 16,1 km/h (3 Bft) 100,00 %
23.02.2016 10:52 11,1 C 67 % 1006,9 hPa 0,0 l/m 11,1 km/h (2 Bft) W 261 0 min 0,000 mm 0,9 UV-I 173 W/m 5,2 C 8,2 C 20,9 km/h (4 Bft) 98,68 %
23.02.2016 10:53 11,1 C 67 % 1006,8 hPa 0,0 l/m 9,6 km/h (2 Bft) W 267 0 min 0,000 mm 0,9 UV-I 170 W/m 5,2 C 9,0 C 17,7 km/h (3 Bft) 94,87 %
23.02.2016 10:54 11,1 C 67 % 1006,8 hPa 0,0 l/m 14,1 km/h (3 Bft) W-SW 257 0 min 0,000 mm 0,9 UV-I 168 W/m 5,2 C 6,8 C 22,5 km/h (4 Bft) 95,65 %
23.02.2016 10:55 11,1 C 67 % 1006,8 hPa 0,0 l/m 11,9 km/h (2 Bft) W 268 0 min 0,000 mm 1,0 UV-I 167 W/m 5,2 C 7,8 C 17,7 km/h (3 Bft) 100,00 %
23.02.2016 10:56 11,1 C 68 % 1006,8 hPa 0,0 l/m 5,1 km/h (1 Bft) W 265 0 min 0,000 mm 1,0 UV-I 169 W/m 5,4 C 11,1 C 9,7 km/h (2 Bft) 96,15 %
23.02.2016 10:57 11,1 C 68 % 1006,7 hPa 0,0 l/m 11,9 km/h (2 Bft) W 269 0 min 0,000 mm 1,0 UV-I 173 W/m 5,4 C 7,8 C 20,9 km/h (4 Bft) 100,00 %
23.02.2016 10:58 11,1 C 67 % 1006,7 hPa 0,0 l/m 14,3 km/h (3 Bft) W-NW 292 0 min 0,000 mm 1,0 UV-I 180 W/m 5,2 C 6,8 C 17,7 km/h (3 Bft) 96,15 %
23.02.2016 10:59 11,1 C 67 % 1006,7 hPa 0,0 l/m 8,0 km/h (2 Bft) W-SW 248 0 min 0,000 mm 1,0 UV-I 188 W/m 5,2 C 10,0 C 14,5 km/h (3 Bft) 100,00 %
23.02.2016 11:00 11,1 C 67 % 1006,7 hPa 0,0 l/m 15,8 km/h (3 Bft) NW 305 0 min 0,000 mm 1,1 UV-I 200 W/m 5,2 C 6,2 C 24,1 km/h (4 Bft) 94,12 %
23.02.2016 11:02 11,1 C 67 % 1006,7 hPa 0,0 l/m 12,1 km/h (2 Bft) W 273 0 min 0,152 mm 1,1 UV-I 223 W/m 5,2 C 7,7 C 24,1 km/h (4 Bft) 98,11 %
23.02.2016 11:03 11,2 C 67 % 1006,7 hPa 0,0 l/m 11,9 km/h (2 Bft) W 277 1 min 0,000 mm 1,2 UV-I 277 W/m 5,3 C 7,9 C 16,1 km/h (3 Bft) 95,83 %
23.02.2016 11:04 11,2 C 67 % 1006,7 hPa 0,0 l/m 13,9 km/h (3 Bft) W 262 1 min 0,000 mm 1,2 UV-I 337 W/m 5,3 C 7,0 C 19,3 km/h (3 Bft) 100,00 %
23.02.2016 11:05 11,3 C 67 % 1006,7 hPa 0,0 l/m 12,3 km/h (3 Bft) SW 222 1 min 0,000 mm 1,3 UV-I 361 W/m 5,4 C 7,9 C 19,3 km/h (3 Bft) 95,83 %
23.02.2016 11:06 11,3 C 67 % 1006,6 hPa 0,0 l/m 7,6 km/h (2 Bft) W-SW 250 1 min 0,000 mm 1,3 UV-I 379 W/m 5,4 C 10,5 C 14,5 km/h (3 Bft) 100,00 %
23.02.2016 11:07 11,4 C 67 % 1006,7 hPa 0,0 l/m 7,8 km/h (2 Bft) W-SW 246 1 min 0,000 mm 1,4 UV-I 456 W/m 5,5 C 10,5 C 11,3 km/h (2 Bft) 96,30 %
23.02.2016 11:08 11,5 C 67 % 1006,7 hPa 0,0 l/m 11,1 km/h (2 Bft) W-NW 288 1 min 0,000 mm 1,4 UV-I 465 W/m 5,6 C 8,7 C 16,1 km/h (3 Bft) 100,00 %
23.02.2016 11:09 11,6 C 68 % 1006,7 hPa 0,0 l/m 5,6 km/h (1 Bft) N-NW 330 1 min 0,000 mm 1,4 UV-I 474 W/m 5,9 C 11,6 C 9,7 km/h (2 Bft) 96,67 %
23.02.2016 11:10 11,7 C 67 % 1006,7 hPa 0,0 l/m 4,6 km/h (1 Bft) W-SW 246 1 min 0,000 mm 1,4 UV-I 500 W/m 5,8 C 11,7 C 9,7 km/h (2 Bft) 95,65 %
23.02.2016 11:11 11,9 C 68 % 1006,7 hPa 0,0 l/m 8,0 km/h (2 Bft) W-SW 242 1 min 0,000 mm 1,3 UV-I 490 W/m 6,2 C 10,8 C 22,5 km/h (4 Bft) 100,00 %
23.02.2016 11:12 12,0 C 66 % 1006,7 hPa 0,0 l/m 11,4 km/h (2 Bft) W 263 1 min 0,000 mm 1,2 UV-I 350 W/m 5,8 C 9,1 C 20,9 km/h (4 Bft) 91,67 %
23.02.2016 11:13 12,0 C 66 % 1006,7 hPa 0,0 l/m 11,6 km/h (2 Bft) W-NW 282 1 min 0,000 mm 1,1 UV-I 287 W/m 5,8 C 9,0 C 16,1 km/h (3 Bft) 100,00 %
23.02.2016 11:14 11,9 C 65 % 1006,7 hPa 0,0 l/m 8,4 km/h (2 Bft) W-NW 288 1 min 0,000 mm 1,2 UV-I 315 W/m 5,5 C 10,6 C 14,5 km/h (3 Bft) 100,00 %
23.02.2016 11:15 11,9 C 66 % 1006,7 hPa 0,0 l/m 6,2 km/h (2 Bft) W-SW 248 1 min 0,000 mm 1,2 UV-I 370 W/m 5,8 C 11,9 C 14,5 km/h (3 Bft) 100,00 %
23.02.2016 11:16 11,9 C 66 % 1006,7 hPa 0,0 l/m 4,2 km/h (1 Bft) W 263 1 min 0,000 mm 1,1 UV-I 312 W/m 5,8 C 11,9 C 9,7 km/h (2 Bft) 100,00 %
23.02.2016 11:17 11,9 C 66 % 1006,7 hPa 0,0 l/m 2,5 km/h (1 Bft) W-SW 252 1 min 0,000 mm 1,1 UV-I 291 W/m 5,8 C 11,9 C 4,8 km/h (1 Bft) 100,00 %
23.02.2016 11:18 12,0 C 67 % 1006,7 hPa 0,0 l/m 6,0 km/h (2 Bft) W-NW 287 0 min 0,000 mm 1,1 UV-I 272 W/m 6,1 C 12,0 C 12,9 km/h (3 Bft) 100,00 %
23.02.2016 11:19 11,9 C 65 % 1006,8 hPa 0,0 l/m 6,1 km/h (2 Bft) W-NW 296 0 min 0,000 mm 1,0 UV-I 258 W/m 5,5 C 11,9 C 8,0 km/h (2 Bft) 100,00 %
23.02.2016 11:20 11,9 C 65 % 1006,8 hPa 0,0 l/m 5,5 km/h (1 Bft) W-SW 241 0 min 0,000 mm 1,0 UV-I 254 W/m 5,5 C 11,9 C 9,7 km/h (2 Bft) 100,00 %
23.02.2016 11:21 11,9 C 65 % 1006,7 hPa 0,0 l/m 8,2 km/h (2 Bft) W 269 0 min 0,000 mm 1,1 UV-I 271 W/m 5,5 C 10,7 C 17,7 km/h (3 Bft) 95,65 %
23.02.2016 11:22 11,9 C 65 % 1006,7 hPa 0,0 l/m 8,3 km/h (2 Bft) W 271 1 min 0,000 mm 1,1 UV-I 302 W/m 5,5 C 10,7 C 12,9 km/h (3 Bft) 100,00 %
23.02.2016 11:23 11,8 C 65 % 1006,7 hPa 0,0 l/m 8,2 km/h (2 Bft) W-NW 282 1 min 0,000 mm 1,2 UV-I 319 W/m 5,4 C 10,6 C 17,7 km/h (3 Bft) 100,00 %
23.02.2016 11:24 11,8 C 65 % 1006,7 hPa 0,0 l/m 4,4 km/h (1 Bft) W-NW 291 1 min 0,000 mm 1,2 UV-I 315 W/m 5,4 C 11,8 C 9,7 km/h (2 Bft) 100,00 %
23.02.2016 11:25 11,8 C 66 % 1006,7 hPa 0,0 l/m 8,6 km/h (2 Bft) W-SW 251 1 min 0,000 mm 1,2 UV-I 306 W/m 5,7 C 10,4 C 14,5 km/h (3 Bft) 100,00 %
23.02.2016 11:26 11,8 C 67 % 1006,8 hPa 0,0 l/m 7,7 km/h (2 Bft) W-NW 302 1 min 0,000 mm 1,2 UV-I 296 W/m 5,9 C 10,9 C 12,9 km/h (3 Bft) 94,44 %
23.02.2016 11:27 11,9 C 65 % 1006,7 hPa 0,0 l/m 11,9 km/h (2 Bft) NW 309 0 min 0,000 mm 1,1 UV-I 276 W/m 5,5 C 8,7 C 19,3 km/h (3 Bft) 100,00 %
23.02.2016 11:28 11,9 C 65 % 1006,8 hPa 0,0 l/m 8,1 km/h (2 Bft) W-NW 292 0 min 0,000 mm 1,1 UV-I 274 W/m 5,5 C 10,8 C 16,1 km/h (3 Bft) 100,00 %
23.02.2016 11:29 11,8 C 65 % 1006,7 hPa 0,0 l/m 7,7 km/h (2 Bft) W-SW 256 0 min 0,000 mm 1,1 UV-I 283 W/m 5,4 C 10,9 C 14,5 km/h (3 Bft) 100,00 %
23.02.2016 11:30 11,8 C 64 % 1006,7 hPa 0,0 l/m 9,7 km/h (2 Bft) N-NW 327 0 min 0,000 mm 1,1 UV-I 279 W/m 5,2 C 9,7 C 16,1 km/h (3 Bft) 100,00 %
23.02.2016 11:31 11,8 C 65 % 1006,7 hPa 0,0 l/m 9,8 km/h (2 Bft) W 261 0 min 0,000 mm 1,1 UV-I 261 W/m 5,4 C 9,7 C 16,1 km/h (3 Bft) 100,00 %
23.02.2016 11:32 11,8 C 66 % 1006,7 hPa 0,0 l/m 3,4 km/h (1 Bft) W-SW 251 0 min 0,000 mm 1,1 UV-I 284 W/m 5,7 C 11,8 C 6,4 km/h (2 Bft) 100,00 %
23.02.2016 11:33 11,8 C 66 % 1006,7 hPa 0,0 l/m 5,3 km/h (1 Bft) W-SW 244 0 min 0,000 mm 1,0 UV-I 238 W/m 5,7 C 11,8 C 11,3 km/h (2 Bft) 91,67 %
23.02.2016 11:34 11,8 C 66 % 1006,7 hPa 0,0 l/m 5,1 km/h (1 Bft) W-NW 299 0 min 0,000 mm 0,9 UV-I 225 W/m 5,7 C 11,8 C 9,7 km/h (2 Bft) 100,00 %
23.02.2016 11:35 11,8 C 66 % 1006,7 hPa 0,0 l/m 8,5 km/h (2 Bft) W 263 0 min 0,000 mm 0,9 UV-I 220 W/m 5,7 C 10,4 C 12,9 km/h (3 Bft) 96,15 %
23.02.2016 11:36 11,8 C 65 % 1006,7 hPa 0,0 l/m 8,1 km/h (2 Bft) W-SW 256 0 min 0,000 mm 0,9 UV-I 210 W/m 5,4 C 10,7 C 11,3 km/h (2 Bft) 96,30 %
23.02.2016 11:37 11,8 C 65 % 1006,7 hPa 0,0 l/m 8,4 km/h (2 Bft) W-SW 258 0 min 0,000 mm 0,9 UV-I 213 W/m 5,4 C 10,5 C 12,9 km/h (3 Bft) 100,00 %
23.02.2016 11:38 11,8 C 67 % 1006,8 hPa 0,0 l/m 10,9 km/h (2 Bft) W-NW 300 0 min 0,000 mm 0,9 UV-I 201 W/m 5,9 C 9,1 C 16,1 km/h (3 Bft) 100,00 %
23.02.2016 11:39 11,8 C 66 % 1006,8 hPa 0,0 l/m 5,1 km/h (1 Bft) W-SW 254 0 min 0,000 mm 0,9 UV-I 201 W/m 5,7 C 11,8 C 9,7 km/h (2 Bft) 100,00 %
23.02.2016 11:40 11,8 C 66 % 1006,7 hPa 0,0 l/m 6,7 km/h (2 Bft) W 275 0 min 0,000 mm 0,8 UV-I 191 W/m 5,7 C 11,6 C 9,7 km/h (2 Bft) 98,65 %
23.02.2016 11:41 11,8 C 65 % 1006,8 hPa 0,0 l/m 8,7 km/h (2 Bft) W-NW 287 0 min 0,000 mm 0,8 UV-I 187 W/m 5,4 C 10,3 C 16,1 km/h (3 Bft) 100,00 %
23.02.2016 11:42 11,8 C 65 % 1006,8 hPa 0,0 l/m 4,3 km/h (1 Bft) W-SW 255 0 min 0,000 mm 0,8 UV-I 188 W/m 5,4 C 11,8 C 6,4 km/h (2 Bft) 100,00 %
23.02.2016 11:43 11,7 C 65 % 1006,8 hPa 0,0 l/m 8,0 km/h (2 Bft) W-NW 290 0 min 0,000 mm 0,8 UV-I 188 W/m 5,3 C 10,6 C 11,3 km/h (2 Bft) 100,00 %
23.02.2016 11:44 11,7 C 65 % 1006,7 hPa 0,0 l/m 6,3 km/h (2 Bft) W 273 0 min 0,000 mm 0,8 UV-I 185 W/m 5,3 C 11,7 C 11,3 km/h (2 Bft) 100,00 %
23.02.2016 11:45 11,7 C 66 % 1006,8 hPa 0,0 l/m 9,0 km/h (2 Bft) W-SW 246 0 min 0,000 mm 0,8 UV-I 183 W/m 5,6 C 10,0 C 12,9 km/h (3 Bft) 100,00 %
23.02.2016 11:46 11,7 C 66 % 1006,8 hPa 0,0 l/m 6,1 km/h (2 Bft) W 261 0 min 0,000 mm 0,8 UV-I 178 W/m 5,6 C 11,7 C 14,5 km/h (3 Bft) 92,86 %
23.02.2016 11:47 11,7 C 65 % 1006,8 hPa 0,0 l/m 10,1 km/h (2 Bft) W-SW 257 0 min 0,000 mm 0,7 UV-I 173 W/m 5,3 C 9,4 C 16,1 km/h (3 Bft) 100,00 %
23.02.2016 11:48 11,7 C 65 % 1006,8 hPa 0,0 l/m 12,7 km/h (3 Bft) W 261 0 min 0,000 mm 0,8 UV-I 183 W/m 5,3 C 8,2 C 22,5 km/h (4 Bft) 100,00 %
23.02.2016 11:49 11,7 C 65 % 1006,8 hPa 0,0 l/m 11,3 km/h (2 Bft) W 281 0 min 0,000 mm 0,9 UV-I 206 W/m 5,3 C 8,8 C 17,7 km/h (3 Bft) 96,30 %
23.02.2016 11:50 11,7 C 65 % 1006,8 hPa 0,0 l/m 6,6 km/h (2 Bft) W-SW 246 0 min 0,000 mm 1,0 UV-I 220 W/m 5,3 C 11,6 C 9,7 km/h (2 Bft) 95,65 %
23.02.2016 11:51 11,7 C 65 % 1006,7 hPa 0,0 l/m 6,4 km/h (2 Bft) W-SW 246 0 min 0,000 mm 1,0 UV-I 228 W/m 5,3 C 11,7 C 11,3 km/h (2 Bft) 100,00 %
23.02.2016 11:52 11,7 C 65 % 1006,7 hPa 0,0 l/m 10,7 km/h (2 Bft) W 278 0 min 0,000 mm 1,0 UV-I 233 W/m 5,3 C 9,1 C 17,7 km/h (3 Bft) 100,00 %
23.02.2016 11:53 11,8 C 66 % 1006,7 hPa 0,0 l/m 8,9 km/h (2 Bft) W 261 0 min 0,000 mm 1,0 UV-I 249 W/m 5,7 C 10,2 C 14,5 km/h (3 Bft) 100,00 %
23.02.2016 11:54 11,8 C 65 % 1006,7 hPa 0,0 l/m 12,4 km/h (3 Bft) W 273 0 min 0,000 mm 1,0 UV-I 251 W/m 5,4 C 8,4 C 16,1 km/h (3 Bft) 100,00 %
23.02.2016 11:55 11,8 C 65 % 1006,7 hPa 0,0 l/m 8,1 km/h (2 Bft) W-SW 243 0 min 0,000 mm 1,0 UV-I 253 W/m 5,4 C 10,7 C 12,9 km/h (3 Bft) 100,00 %
23.02.2016 11:56 11,9 C 65 % 1006,7 hPa 0,0 l/m 7,5 km/h (2 Bft) W-NW 294 0 min 0,000 mm 1,0 UV-I 249 W/m 5,5 C 11,2 C 11,3 km/h (2 Bft) 100,00 %
23.02.2016 11:57 11,9 C 65 % 1006,7 hPa 0,0 l/m 8,9 km/h (2 Bft) W-SW 253 0 min 0,000 mm 0,9 UV-I 229 W/m 5,5 C 10,3 C 16,1 km/h (3 Bft) 100,00 %
23.02.2016 11:58 11,9 C 64 % 1006,7 hPa 0,0 l/m 10,0 km/h (2 Bft) W 263 0 min 0,000 mm 0,9 UV-I 227 W/m 5,3 C 9,7 C 12,9 km/h (3 Bft) 100,00 %
23.02.2016 11:59 12,0 C 64 % 1006,7 hPa 0,0 l/m 12,2 km/h (2 Bft) W 279 0 min 0,000 mm 0,9 UV-I 220 W/m 5,4 C 8,7 C 16,1 km/h (3 Bft) 100,00 %
23.02.2016 12:00 12,0 C 64 % 1006,7 hPa 0,0 l/m 10,5 km/h (2 Bft) W 275 0 min 0,153 mm 0,9 UV-I 209 W/m 5,4 C 9,5 C 14,5 km/h (3 Bft) 100,00 %
23.02.2016 12:02 12,0 C 63 % 1006,7 hPa 0,0 l/m 11,8 km/h (2 Bft) W 265 0 min 0,000 mm 0,8 UV-I 192 W/m 5,2 C 8,9 C 17,7 km/h (3 Bft) 100,00 %
23.02.2016 12:03 12,1 C 63 % 1006,7 hPa 0,0 l/m 11,9 km/h (2 Bft) SW 229 0 min 0,000 mm 0,8 UV-I 180 W/m 5,3 C 9,0 C 16,1 km/h (3 Bft) 100,00 %
23.02.2016 12:04 12,1 C 62 % 1006,6 hPa 0,0 l/m 14,3 km/h (3 Bft) W-NW 300 0 min 0,000 mm 0,8 UV-I 175 W/m 5,0 C 8,0 C 20,9 km/h (4 Bft) 100,00 %
23.02.2016 12:05 12,1 C 64 % 1006,7 hPa 0,0 l/m 10,7 km/h (2 Bft) W-SW 251 0 min 0,000 mm 0,7 UV-I 168 W/m 5,5 C 9,6 C 16,1 km/h (3 Bft) 95,65 %
23.02.2016 12:06 12,1 C 63 % 1006,6 hPa 0,0 l/m 14,1 km/h (3 Bft) W 269 0 min 0,000 mm 0,7 UV-I 153 W/m 5,3 C 8,0 C 19,3 km/h (3 Bft) 100,00 %
23.02.2016 12:07 12,1 C 62 % 1006,6 hPa 0,2 l/m 22,0 km/h (4 Bft) W-SW 253 0 min 0,000 mm 0,7 UV-I 147 W/m 5,0 C 5,4 C 29,0 km/h (5 Bft) 100,00 %
23.02.2016 12:08 12,1 C 62 % 1006,7 hPa 0,0 l/m 21,1 km/h (4 Bft) W 261 0 min 0,000 mm 0,7 UV-I 150 W/m 5,0 C 5,7 C 29,0 km/h (5 Bft) 100,00 %
23.02.2016 12:09 12,1 C 61 % 1006,7 hPa 0,0 l/m 17,4 km/h (3 Bft) W 260 0 min 0,000 mm 0,7 UV-I 152 W/m 4,8 C 6,8 C 25,7 km/h (4 Bft) 100,00 %
23.02.2016 12:10 12,1 C 62 % 1006,7 hPa 0,0 l/m 13,2 km/h (3 Bft) W-SW 248 0 min 0,000 mm 0,7 UV-I 155 W/m 5,0 C 8,4 C 17,7 km/h (3 Bft) 100,00 %
23.02.2016 12:11 12,1 C 61 % 1006,7 hPa 0,0 l/m 15,4 km/h (3 Bft) NW 306 0 min 0,000 mm 0,7 UV-I 163 W/m 4,8 C 7,5 C 25,7 km/h (4 Bft) 96,55 %
23.02.2016 12:12 12,1 C 61 % 1006,6 hPa 0,0 l/m 15,2 km/h (3 Bft) W-SW 243 0 min 0,000 mm 0,7 UV-I 165 W/m 4,8 C 7,6 C 20,9 km/h (4 Bft) 100,00 %
23.02.2016 12:13 12,1 C 61 % 1006,6 hPa 0,0 l/m 15,1 km/h (3 Bft) W-SW 258 0 min 0,000 mm 0,7 UV-I 162 W/m 4,8 C 7,6 C 22,5 km/h (4 Bft) 100,00 %
23.02.2016 12:14 12,1 C 61 % 1006,6 hPa 0,0 l/m 21,2 km/h (4 Bft) W-SW 246 0 min 0,000 mm 0,7 UV-I 158 W/m 4,8 C 5,7 C 32,2 km/h (5 Bft) 100,00 %
23.02.2016 12:15 12,1 C 60 % 1006,6 hPa 0,0 l/m 20,8 km/h (4 Bft) W 259 0 min 0,000 mm 0,7 UV-I 152 W/m 4,6 C 5,8 C 27,4 km/h (4 Bft) 100,00 %
23.02.2016 12:16 12,1 C 60 % 1006,6 hPa 0,0 l/m 19,6 km/h (3 Bft) W 260 0 min 0,000 mm 0,6 UV-I 144 W/m 4,6 C 6,1 C 25,7 km/h (4 Bft) 100,00 %
23.02.2016 12:17 12,1 C 59 % 1006,6 hPa 0,0 l/m 19,6 km/h (3 Bft) W-SW 255 0 min 0,000 mm 0,6 UV-I 138 W/m 4,3 C 6,1 C 30,6 km/h (5 Bft) 100,00 %
23.02.2016 12:18 12,1 C 60 % 1006,6 hPa 0,0 l/m 17,8 km/h (3 Bft) W-NW 284 0 min 0,000 mm 0,6 UV-I 134 W/m 4,6 C 6,7 C 24,1 km/h (4 Bft) 100,00 %
23.02.2016 12:19 12,1 C 59 % 1006,6 hPa 0,0 l/m 14,2 km/h (3 Bft) W-NW 286 0 min 0,000 mm 0,6 UV-I 133 W/m 4,3 C 8,0 C 24,1 km/h (4 Bft) 100,00 %
23.02.2016 12:20 12,1 C 60 % 1006,6 hPa 0,0 l/m 11,2 km/h (2 Bft) W 262 0 min 0,000 mm 0,6 UV-I 138 W/m 4,6 C 9,3 C 24,1 km/h (4 Bft) 96,15 %
23.02.2016 12:21 12,1 C 60 % 1006,6 hPa 0,0 l/m 24,5 km/h (4 Bft) W-SW 239 0 min 0,000 mm 0,6 UV-I 144 W/m 4,6 C 4,8 C 30,6 km/h (5 Bft) 100,00 %
23.02.2016 12:22 12,0 C 60 % 1006,6 hPa 0,0 l/m 15,2 km/h (3 Bft) W-NW 287 0 min 0,000 mm 0,7 UV-I 151 W/m 4,5 C 7,5 C 20,9 km/h (4 Bft) 100,00 %
23.02.2016 12:23 12,0 C 61 % 1006,6 hPa 0,0 l/m 16,2 km/h (3 Bft) W-SW 246 0 min 0,000 mm 0,7 UV-I 159 W/m 4,7 C 7,1 C 27,4 km/h (4 Bft) 100,00 %
23.02.2016 12:24 12,0 C 60 % 1006,5 hPa 0,0 l/m 20,1 km/h (4 Bft) SW 226 0 min 0,000 mm 0,7 UV-I 164 W/m 4,5 C 5,8 C 22,5 km/h (4 Bft) 100,00 %
23.02.2016 12:25 12,0 C 60 % 1006,5 hPa 0,0 l/m 21,7 km/h (4 Bft) W-SW 258 0 min 0,000 mm 0,7 UV-I 168 W/m 4,5 C 5,4 C 25,7 km/h (4 Bft) 100,00 %
23.02.2016 12:26 12,0 C 59 % 1006,4 hPa 0,0 l/m 25,7 km/h (4 Bft) W 269 0 min 0,000 mm 0,7 UV-I 170 W/m 4,2 C 4,4 C 40,2 km/h (6 Bft) 96,15 %
23.02.2016 12:27 12,0 C 59 % 1006,5 hPa 0,0 l/m 20,8 km/h (4 Bft) W-SW 248 0 min 0,000 mm 0,7 UV-I 172 W/m 4,2 C 5,6 C 30,6 km/h (5 Bft) 96,30 %
23.02.2016 12:28 11,9 C 59 % 1006,5 hPa 0,0 l/m 19,6 km/h (3 Bft) W 264 0 min 0,000 mm 0,8 UV-I 174 W/m 4,1 C 5,9 C 27,4 km/h (4 Bft) 100,00 %
23.02.2016 12:29 11,9 C 59 % 1006,5 hPa 0,0 l/m 15,0 km/h (3 Bft) W 273 0 min 0,000 mm 0,8 UV-I 172 W/m 4,1 C 7,4 C 20,9 km/h (4 Bft) 100,00 %
23.02.2016 12:30 11,9 C 59 % 1006,5 hPa 0,0 l/m 18,8 km/h (3 Bft) W 259 0 min 0,000 mm 0,8 UV-I 169 W/m 4,1 C 6,1 C 25,7 km/h (4 Bft) 100,00 %
23.02.2016 12:31 11,9 C 61 % 1006,4 hPa 0,0 l/m 21,5 km/h (4 Bft) W-SW 257 0 min 0,000 mm 0,7 UV-I 161 W/m 4,6 C 5,3 C 33,8 km/h (5 Bft) 100,00 %
23.02.2016 12:32 11,9 C 59 % 1006,4 hPa 0,0 l/m 15,9 km/h (3 Bft) W 263 0 min 0,000 mm 0,7 UV-I 155 W/m 4,1 C 7,1 C 20,9 km/h (4 Bft) 100,00 %
23.02.2016 12:33 11,9 C 58 % 1006,4 hPa 0,0 l/m 14,9 km/h (3 Bft) W 261 0 min 0,000 mm 0,7 UV-I 147 W/m 3,9 C 7,5 C 19,3 km/h (3 Bft) 100,00 %
23.02.2016 12:34 11,9 C 59 % 1006,4 hPa 0,0 l/m 19,0 km/h (3 Bft) W 263 0 min 0,000 mm 0,6 UV-I 142 W/m 4,1 C 6,0 C 37,0 km/h (5 Bft) 95,65 %
23.02.2016 12:35 11,9 C 59 % 1006,4 hPa 0,0 l/m 23,6 km/h (4 Bft) W-NW 286 0 min 0,000 mm 0,6 UV-I 139 W/m 4,1 C 4,8 C 38,6 km/h (5 Bft) 100,00 %
23.02.2016 12:36 11,9 C 59 % 1006,3 hPa 0,0 l/m 29,1 km/h (5 Bft) W-SW 248 0 min 0,000 mm 0,6 UV-I 141 W/m 4,1 C 3,5 C 45,1 km/h (6 Bft) 100,00 %
23.02.2016 12:37 11,8 C 59 % 1006,4 hPa 0,0 l/m 20,9 km/h (4 Bft) W 265 0 min 0,000 mm 0,7 UV-I 142 W/m 4,1 C 5,3 C 33,8 km/h (5 Bft) 96,15 %
23.02.2016 12:38 11,8 C 59 % 1006,4 hPa 0,0 l/m 19,9 km/h (4 Bft) W-NW 283 0 min 0,000 mm 0,7 UV-I 145 W/m 4,1 C 5,6 C 29,0 km/h (5 Bft) 96,67 %
23.02.2016 12:39 11,8 C 59 % 1006,4 hPa 0,0 l/m 19,0 km/h (3 Bft) W-SW 250 0 min 0,000 mm 0,7 UV-I 147 W/m 4,1 C 5,9 C 25,7 km/h (4 Bft) 100,00 %
23.02.2016 12:40 11,8 C 60 % 1006,4 hPa 0,0 l/m 19,9 km/h (4 Bft) W-SW 248 0 min 0,000 mm 0,7 UV-I 149 W/m 4,3 C 5,6 C 27,4 km/h (4 Bft) 96,67 %
23.02.2016 12:41 11,8 C 59 % 1006,4 hPa 0,0 l/m 13,8 km/h (3 Bft) W 261 0 min 0,000 mm 0,7 UV-I 151 W/m 4,1 C 7,8 C 17,7 km/h (3 Bft) 100,00 %
23.02.2016 12:42 11,8 C 60 % 1006,4 hPa 0,0 l/m 12,6 km/h (3 Bft) W 263 0 min 0,000 mm 0,7 UV-I 152 W/m 4,3 C 8,3 C 17,7 km/h (3 Bft) 91,67 %
23.02.2016 12:43 11,8 C 60 % 1006,4 hPa 0,0 l/m 16,1 km/h (3 Bft) W-SW 253 0 min 0,000 mm 0,8 UV-I 158 W/m 4,3 C 6,9 C 20,9 km/h (4 Bft) 100,00 %
23.02.2016 12:44 11,8 C 60 % 1006,4 hPa 0,0 l/m 18,6 km/h (3 Bft) W-SW 257 0 min 0,000 mm 0,8 UV-I 160 W/m 4,3 C 6,0 C 25,7 km/h (4 Bft) 96,30 %
23.02.2016 12:45 11,8 C 60 % 1006,3 hPa 0,0 l/m 8,9 km/h (2 Bft) W 278 0 min 0,000 mm 0,8 UV-I 161 W/m 4,3 C 10,2 C 16,1 km/h (3 Bft) 92,31 %
23.02.2016 12:46 11,8 C 60 % 1006,4 hPa 0,0 l/m 21,5 km/h (4 Bft) W 273 0 min 0,000 mm 0,8 UV-I 165 W/m 4,3 C 5,2 C 29,0 km/h (5 Bft) 93,33 %
23.02.2016 12:47 11,8 C 60 % 1006,3 hPa 0,0 l/m 13,5 km/h (3 Bft) W-SW 256 0 min 0,000 mm 0,8 UV-I 170 W/m 4,3 C 7,9 C 22,5 km/h (4 Bft) 96,15 %
23.02.2016 12:48 11,8 C 60 % 1006,3 hPa 0,0 l/m 17,1 km/h (3 Bft) W 271 0 min 0,000 mm 0,8 UV-I 177 W/m 4,3 C 6,5 C 22,5 km/h (4 Bft) 100,00 %
23.02.2016 12:49 11,8 C 61 % 1006,3 hPa 0,0 l/m 17,6 km/h (3 Bft) W 265 0 min 0,000 mm 0,8 UV-I 183 W/m 4,5 C 6,4 C 29,0 km/h (5 Bft) 89,66 %
23.02.2016 12:50 11,8 C 60 % 1006,3 hPa 0,0 l/m 14,3 km/h (3 Bft) W-SW 254 0 min 0,000 mm 0,8 UV-I 186 W/m 4,3 C 7,6 C 25,7 km/h (4 Bft) 100,00 %
23.02.2016 12:51 11,7 C 60 % 1006,3 hPa 0,0 l/m 21,9 km/h (4 Bft) W 265 0 min 0,000 mm 0,8 UV-I 187 W/m 4,2 C 4,9 C 29,0 km/h (5 Bft) 96,55 %
23.02.2016 12:52 11,7 C 61 % 1006,2 hPa 0,0 l/m 16,8 km/h (3 Bft) W-SW 244 0 min 0,000 mm 0,9 UV-I 190 W/m 4,4 C 6,5 C 27,4 km/h (4 Bft) 96,30 %
23.02.2016 12:53 11,7 C 61 % 1006,2 hPa 0,0 l/m 12,2 km/h (2 Bft) W 264 0 min 0,000 mm 0,9 UV-I 193 W/m 4,4 C 8,4 C 16,1 km/h (3 Bft) 100,00 %
23.02.2016 12:54 11,7 C 61 % 1006,3 hPa 0,0 l/m 13,1 km/h (3 Bft) W 280 0 min 0,000 mm 0,9 UV-I 198 W/m 4,4 C 8,0 C 19,3 km/h (3 Bft) 95,65 %
23.02.2016 12:55 11,7 C 61 % 1006,2 hPa 0,0 l/m 15,4 km/h (3 Bft) SW 235 0 min 0,000 mm 0,9 UV-I 204 W/m 4,4 C 7,0 C 20,9 km/h (4 Bft) 100,00 %
23.02.2016 12:56 11,7 C 60 % 1006,2 hPa 0,0 l/m 20,2 km/h (4 Bft) W-SW 253 0 min 0,000 mm 0,9 UV-I 210 W/m 4,2 C 5,4 C 25,7 km/h (4 Bft) 96,55 %
23.02.2016 12:57 11,7 C 61 % 1006,2 hPa 0,0 l/m 14,9 km/h (3 Bft) NW 305 0 min 0,000 mm 0,9 UV-I 211 W/m 4,4 C 7,2 C 20,9 km/h (4 Bft) 100,00 %
23.02.2016 12:58 11,7 C 61 % 1006,2 hPa 0,0 l/m 14,7 km/h (3 Bft) W 259 0 min 0,000 mm 0,9 UV-I 211 W/m 4,4 C 7,3 C 22,5 km/h (4 Bft) 96,15 %
23.02.2016 12:59 11,8 C 61 % 1006,1 hPa 0,0 l/m 24,4 km/h (4 Bft) W-SW 249 0 min 0,000 mm 0,9 UV-I 209 W/m 4,5 C 4,4 C 33,8 km/h (5 Bft) 96,30 %
23.02.2016 13:00 11,8 C 60 % 1006,2 hPa 0,0 l/m 27,1 km/h (4 Bft) W 261 0 min 0,152 mm 0,9 UV-I 209 W/m 4,3 C 3,8 C 40,2 km/h (6 Bft) 100,00 %
23.02.2016 13:01 11,8 C 59 % 1006,1 hPa 0,0 l/m 24,1 km/h (4 Bft) W-SW 256 0 min 0,000 mm 0,9 UV-I 209 W/m 4,1 C 4,5 C 32,2 km/h (5 Bft) 100,00 %
23.02.2016 13:02 11,8 C 60 % 1006,1 hPa 0,0 l/m 19,4 km/h (3 Bft) W-SW 253 0 min 0,000 mm 0,9 UV-I 209 W/m 4,3 C 5,8 C 32,2 km/h (5 Bft) 96,15 %
23.02.2016 13:03 11,8 C 60 % 1006,1 hPa 0,0 l/m 18,7 km/h (3 Bft) W 273 0 min 0,000 mm 0,9 UV-I 210 W/m 4,3 C 6,0 C 30,6 km/h (5 Bft) 96,30 %
23.02.2016 13:04 11,8 C 60 % 1006,1 hPa 0,0 l/m 22,0 km/h (4 Bft) W 265 0 min 0,000 mm 0,9 UV-I 213 W/m 4,3 C 5,0 C 29,0 km/h (5 Bft) 94,12 %
23.02.2016 13:05 11,8 C 60 % 1006,1 hPa 0,0 l/m 18,2 km/h (3 Bft) SW 229 0 min 0,000 mm 0,9 UV-I 212 W/m 4,3 C 6,2 C 25,7 km/h (4 Bft) 92,59 %
23.02.2016 13:06 11,9 C 60 % 1006,1 hPa 0,0 l/m 15,1 km/h (3 Bft) SW 232 0 min 0,000 mm 0,9 UV-I 208 W/m 4,4 C 7,4 C 25,7 km/h (4 Bft) 100,00 %
23.02.2016 13:07 11,8 C 60 % 1006,1 hPa 0,0 l/m 18,4 km/h (3 Bft) W-SW 244 0 min 0,000 mm 0,9 UV-I 203 W/m 4,3 C 6,1 C 25,7 km/h (4 Bft) 100,00 %
23.02.2016 13:08 11,9 C 60 % 1006,1 hPa 0,0 l/m 18,6 km/h (3 Bft) W-SW 247 0 min 0,000 mm 0,8 UV-I 198 W/m 4,4 C 6,2 C 25,7 km/h (4 Bft) 100,00 %
23.02.2016 13:09 11,8 C 60 % 1006,1 hPa 0,0 l/m 17,1 km/h (3 Bft) W-SW 244 0 min 0,000 mm 0,8 UV-I 194 W/m 4,3 C 6,5 C 20,9 km/h (4 Bft) 96,55 %
23.02.2016 13:10 11,8 C 61 % 1006,1 hPa 0,0 l/m 19,6 km/h (3 Bft) W 268 0 min 0,000 mm 0,8 UV-I 190 W/m 4,5 C 5,7 C 27,4 km/h (4 Bft) 100,00 %
23.02.2016 13:11 11,8 C 61 % 1006,1 hPa 0,0 l/m 17,9 km/h (3 Bft) W-SW 252 0 min 0,000 mm 0,8 UV-I 184 W/m 4,5 C 6,3 C 22,5 km/h (4 Bft) 100,00 %
23.02.2016 13:12 11,8 C 61 % 1006,1 hPa 0,0 l/m 20,0 km/h (4 Bft) W-SW 254 0 min 0,000 mm 0,8 UV-I 184 W/m 4,5 C 5,6 C 25,7 km/h (4 Bft) 100,00 %
23.02.2016 13:13 11,8 C 60 % 1006,2 hPa 0,0 l/m 16,1 km/h (3 Bft) W 261 0 min 0,000 mm 0,8 UV-I 186 W/m 4,3 C 6,9 C 20,9 km/h (4 Bft) 96,88 %
23.02.2016 13:14 11,8 C 61 % 1006,1 hPa 0,0 l/m 17,7 km/h (3 Bft) W-SW 255 0 min 0,000 mm 0,8 UV-I 183 W/m 4,5 C 6,3 C 25,7 km/h (4 Bft) 100,00 %
23.02.2016 13:15 11,8 C 61 % 1006,1 hPa 0,0 l/m 14,6 km/h (3 Bft) W-SW 242 0 min 0,000 mm 0,7 UV-I 175 W/m 4,5 C 7,5 C 22,5 km/h (4 Bft) 98,62 %
23.02.2016 13:16 11,8 C 60 % 1006,1 hPa 0,0 l/m 16,9 km/h (3 Bft) W-SW 255 0 min 0,000 mm 0,7 UV-I 163 W/m 4,3 C 6,6 C 22,5 km/h (4 Bft) 100,00 %
23.02.2016 13:17 11,8 C 61 % 1006,2 hPa 0,0 l/m 19,8 km/h (3 Bft) W-SW 246 0 min 0,000 mm 0,6 UV-I 153 W/m 4,5 C 5,7 C 25,7 km/h (4 Bft) 96,88 %
23.02.2016 13:18 11,8 C 61 % 1006,1 hPa 0,0 l/m 23,5 km/h (4 Bft) W-SW 250 0 min 0,000 mm 0,6 UV-I 150 W/m 4,5 C 4,6 C 35,4 km/h (5 Bft) 100,00 %
23.02.2016 13:19 11,8 C 61 % 1006,1 hPa 0,0 l/m 25,5 km/h (4 Bft) W-SW 254 0 min 0,000 mm 0,6 UV-I 145 W/m 4,5 C 4,2 C 33,8 km/h (5 Bft) 96,55 %
23.02.2016 13:20 11,7 C 61 % 1006,1 hPa 0,0 l/m 22,3 km/h (4 Bft) W-SW 242 0 min 0,000 mm 0,6 UV-I 143 W/m 4,4 C 4,8 C 32,2 km/h (5 Bft) 100,00 %
23.02.2016 13:21 11,7 C 61 % 1006,1 hPa 0,0 l/m 25,7 km/h (4 Bft) W 273 0 min 0,000 mm 0,6 UV-I 140 W/m 4,4 C 4,0 C 37,0 km/h (5 Bft) 100,00 %
23.02.2016 13:22 11,7 C 61 % 1006,2 hPa 0,0 l/m 22,2 km/h (4 Bft) W 279 0 min 0,000 mm 0,6 UV-I 137 W/m 4,4 C 4,9 C 29,0 km/h (5 Bft) 100,00 %
23.02.2016 13:23 11,7 C 61 % 1006,1 hPa 0,0 l/m 20,6 km/h (4 Bft) W-SW 258 0 min 0,000 mm 0,6 UV-I 135 W/m 4,4 C 5,3 C 25,7 km/h (4 Bft) 100,00 %
23.02.2016 13:24 11,7 C 61 % 1006,1 hPa 0,0 l/m 20,7 km/h (4 Bft) SW 235 0 min 0,000 mm 0,6 UV-I 131 W/m 4,4 C 5,3 C 32,2 km/h (5 Bft) 100,00 %
23.02.2016 13:25 11,6 C 62 % 1006,2 hPa 0,0 l/m 16,9 km/h (3 Bft) W 277 0 min 0,000 mm 0,6 UV-I 123 W/m 4,6 C 6,4 C 27,4 km/h (4 Bft) 100,00 %
23.02.2016 13:26 11,6 C 62 % 1006,2 hPa 0,0 l/m 14,9 km/h (3 Bft) W 281 0 min 0,000 mm 0,5 UV-I 115 W/m 4,6 C 7,1 C 19,3 km/h (3 Bft) 100,00 %
23.02.2016 13:27 11,6 C 62 % 1006,1 hPa 0,0 l/m 14,0 km/h (3 Bft) W 259 0 min 0,000 mm 0,5 UV-I 113 W/m 4,6 C 7,5 C 19,3 km/h (3 Bft) 100,00 %
23.02.2016 13:28 11,6 C 62 % 1006,1 hPa 0,0 l/m 20,5 km/h (4 Bft) W 263 0 min 0,000 mm 0,5 UV-I 114 W/m 4,6 C 5,2 C 29,0 km/h (5 Bft) 100,00 %
23.02.2016 13:29 11,6 C 63 % 1006,1 hPa 0,0 l/m 21,3 km/h (4 Bft) W 265 0 min 0,000 mm 0,5 UV-I 113 W/m 4,8 C 5,0 C 32,2 km/h (5 Bft) 100,00 %
23.02.2016 13:30 11,5 C 63 % 1006,3 hPa 0,0 l/m 25,3 km/h (4 Bft) SW 235 0 min 0,000 mm 0,5 UV-I 111 W/m 4,7 C 3,8 C 33,8 km/h (5 Bft) 100,00 %
23.02.2016 13:31 11,4 C 63 % 1006,1 hPa 0,0 l/m 23,3 km/h (4 Bft) W 268 0 min 0,000 mm 0,5 UV-I 109 W/m 4,6 C 4,2 C 30,6 km/h (5 Bft) 100,00 %
23.02.2016 13:32 11,4 C 65 % 1006,1 hPa 0,0 l/m 14,6 km/h (3 Bft) W 269 0 min 0,000 mm 0,5 UV-I 108 W/m 5,1 C 7,0 C 24,1 km/h (4 Bft) 100,00 %
23.02.2016 13:33 11,3 C 66 % 1006,1 hPa 0,0 l/m 18,7 km/h (3 Bft) W-SW 251 0 min 0,000 mm 0,5 UV-I 104 W/m 5,2 C 5,4 C 27,4 km/h (4 Bft) 95,83 %
23.02.2016 13:34 11,2 C 65 % 1006,2 hPa 0,0 l/m 16,1 km/h (3 Bft) W-SW 242 0 min 0,000 mm 0,5 UV-I 107 W/m 4,9 C 6,2 C 27,4 km/h (4 Bft) 96,15 %
23.02.2016 13:35 11,2 C 66 % 1006,2 hPa 0,0 l/m 17,2 km/h (3 Bft) W 262 0 min 0,000 mm 0,5 UV-I 105 W/m 5,1 C 5,8 C 24,1 km/h (4 Bft) 100,00 %
23.02.2016 13:36 11,1 C 67 % 1006,2 hPa 0,0 l/m 16,6 km/h (3 Bft) W-SW 245 0 min 0,000 mm 0,0 UV-I 96 W/m 5,2 C 5,9 C 24,1 km/h (4 Bft) 100,00 %
23.02.2016 13:37 11,1 C 67 % 1006,2 hPa 0,0 l/m 19,1 km/h (3 Bft) W 277 0 min 0,000 mm 0,1 UV-I 103 W/m 5,2 C 5,0 C 25,7 km/h (4 Bft) 95,83 %
23.02.2016 13:38 11,0 C 68 % 1006,2 hPa 0,0 l/m 18,7 km/h (3 Bft) W-SW 255 0 min 0,000 mm 0,5 UV-I 118 W/m 5,3 C 5,0 C 25,7 km/h (4 Bft) 100,00 %
23.02.2016 13:39 10,9 C 68 % 1006,2 hPa 0,0 l/m 13,9 km/h (3 Bft) W-SW 240 0 min 0,000 mm 0,6 UV-I 130 W/m 5,2 C 6,7 C 22,5 km/h (4 Bft) 100,00 %
23.02.2016 13:40 10,9 C 68 % 1006,2 hPa 0,0 l/m 15,9 km/h (3 Bft) SW 236 0 min 0,000 mm 0,5 UV-I 127 W/m 5,2 C 5,9 C 20,9 km/h (4 Bft) 100,00 %
23.02.2016 13:41 10,9 C 69 % 1006,1 hPa 0,0 l/m 25,3 km/h (4 Bft) SW 217 0 min 0,000 mm 0,5 UV-I 119 W/m 5,4 C 3,0 C 45,1 km/h (6 Bft) 100,00 %
23.02.2016 13:42 10,8 C 67 % 1006,1 hPa 0,0 l/m 25,3 km/h (4 Bft) W-SW 254 0 min 0,000 mm 0,5 UV-I 116 W/m 4,9 C 2,8 C 38,6 km/h (5 Bft) 98,65 %
23.02.2016 13:43 10,8 C 68 % 1006,1 hPa 0,0 l/m 25,8 km/h (4 Bft) W-SW 252 0 min 0,000 mm 0,5 UV-I 116 W/m 5,1 C 2,7 C 40,2 km/h (6 Bft) 100,00 %
23.02.2016 13:44 10,8 C 68 % 1006,1 hPa 0,0 l/m 19,6 km/h (3 Bft) W-SW 238 0 min 0,000 mm 0,5 UV-I 116 W/m 5,1 C 4,4 C 32,2 km/h (5 Bft) 100,00 %
23.02.2016 13:45 10,8 C 67 % 1006,2 hPa 0,0 l/m 26,7 km/h (4 Bft) SW 236 0 min 0,000 mm 0,5 UV-I 114 W/m 4,9 C 2,5 C 33,8 km/h (5 Bft) 100,00 %
23.02.2016 13:46 10,8 C 68 % 1006,2 hPa 0,0 l/m 24,2 km/h (4 Bft) W-SW 254 0 min 0,000 mm 0,5 UV-I 111 W/m 5,1 C 3,1 C 35,4 km/h (5 Bft) 100,00 %
23.02.2016 13:47 10,8 C 68 % 1006,3 hPa 0,0 l/m 29,0 km/h (5 Bft) W-SW 246 0 min 0,000 mm 0,4 UV-I 108 W/m 5,1 C 2,0 C 40,2 km/h (6 Bft) 100,00 %
23.02.2016 13:48 10,8 C 68 % 1006,1 hPa 0,0 l/m 32,6 km/h (5 Bft) SW 229 0 min 0,000 mm 0,0 UV-I 105 W/m 5,1 C 1,3 C 45,1 km/h (6 Bft) 100,00 %
23.02.2016 13:49 10,7 C 68 % 1006,2 hPa 0,0 l/m 20,4 km/h (4 Bft) W-SW 252 0 min 0,000 mm 0,0 UV-I 102 W/m 5,0 C 4,1 C 29,0 km/h (5 Bft) 100,00 %
23.02.2016 13:50 10,7 C 69 % 1006,2 hPa 0,0 l/m 21,3 km/h (4 Bft) W-SW 243 0 min 0,000 mm 0,0 UV-I 100 W/m 5,2 C 3,8 C 30,6 km/h (5 Bft) 92,31 %
23.02.2016 13:51 10,7 C 68 % 1006,2 hPa 0,0 l/m 29,7 km/h (5 Bft) W-SW 241 0 min 0,000 mm 0,0 UV-I 98 W/m 5,0 C 1,7 C 38,6 km/h (5 Bft) 88,89 %
23.02.2016 13:52 10,6 C 69 % 1006,1 hPa 0,0 l/m 23,5 km/h (4 Bft) W-SW 245 0 min 0,000 mm 0,0 UV-I 97 W/m 5,2 C 3,0 C 30,6 km/h (5 Bft) 100,00 %
23.02.2016 13:53 10,6 C 69 % 1006,1 hPa 0,0 l/m 18,1 km/h (3 Bft) W 273 0 min 0,000 mm 0,0 UV-I 97 W/m 5,2 C 4,7 C 27,4 km/h (4 Bft) 100,00 %
23.02.2016 13:54 10,6 C 70 % 1006,2 hPa 0,0 l/m 25,8 km/h (4 Bft) W-SW 252 0 min 0,000 mm 0,0 UV-I 97 W/m 5,4 C 2,4 C 48,3 km/h (6 Bft) 100,00 %
23.02.2016 13:55 10,5 C 70 % 1006,1 hPa 0,0 l/m 27,8 km/h (4 Bft) W-SW 238 0 min 0,000 mm 0,0 UV-I 96 W/m 5,3 C 1,8 C 41,8 km/h (6 Bft) 100,00 %
23.02.2016 13:56 10,5 C 70 % 1006,2 hPa 0,0 l/m 22,6 km/h (4 Bft) W-NW 297 0 min 0,000 mm 0,0 UV-I 93 W/m 5,3 C 3,2 C 33,8 km/h (5 Bft) 100,00 %
23.02.2016 13:57 10,4 C 70 % 1006,1 hPa 0,0 l/m 19,7 km/h (3 Bft) W-SW 252 0 min 0,000 mm 0,0 UV-I 93 W/m 5,2 C 3,9 C 29,0 km/h (5 Bft) 100,00 %
23.02.2016 13:58 10,4 C 70 % 1006,1 hPa 0,0 l/m 26,3 km/h (4 Bft) SW 230 0 min 0,000 mm 0,0 UV-I 95 W/m 5,2 C 2,1 C 32,2 km/h (5 Bft) 100,00 %
23.02.2016 13:59 10,4 C 71 % 1006,1 hPa 0,0 l/m 22,2 km/h (4 Bft) W 269 0 min 0,000 mm 0,0 UV-I 97 W/m 5,4 C 3,1 C 27,4 km/h (4 Bft) 100,00 %
23.02.2016 14:00 10,3 C 71 % 1006,2 hPa 0,0 l/m 19,5 km/h (3 Bft) W 259 0 min 0,000 mm 0,0 UV-I 98 W/m 5,3 C 3,8 C 22,5 km/h (4 Bft) 100,00 %
23.02.2016 14:01 10,3 C 70 % 1006,2 hPa 0,0 l/m 21,1 km/h (4 Bft) W-SW 246 0 min 0,153 mm 0,0 UV-I 98 W/m 5,1 C 3,3 C 29,0 km/h (5 Bft) 100,00 %
23.02.2016 14:02 10,3 C 71 % 1006,1 hPa 0,0 l/m 18,9 km/h (3 Bft) W 271 0 min 0,000 mm 0,0 UV-I 98 W/m 5,3 C 4,0 C 25,7 km/h (4 Bft) 100,00 %
23.02.2016 14:03 10,3 C 71 % 1006,2 hPa 0,0 l/m 22,3 km/h (4 Bft) W-NW 284 0 min 0,000 mm 0,0 UV-I 98 W/m 5,3 C 3,0 C 32,2 km/h (5 Bft) 100,00 %
23.02.2016 14:04 10,3 C 71 % 1006,2 hPa 0,0 l/m 20,3 km/h (4 Bft) W-SW 248 0 min 0,000 mm 0,0 UV-I 98 W/m 5,3 C 3,6 C 27,4 km/h (4 Bft) 100,00 %
23.02.2016 14:05 10,3 C 71 % 1006,2 hPa 0,0 l/m 18,1 km/h (3 Bft) W-SW 254 0 min 0,000 mm 0,0 UV-I 98 W/m 5,3 C 4,3 C 30,6 km/h (5 Bft) 100,00 %
23.02.2016 14:06 10,3 C 71 % 1006,1 hPa 0,0 l/m 23,2 km/h (4 Bft) W 265 0 min 0,000 mm 0,0 UV-I 98 W/m 5,3 C 2,7 C 33,8 km/h (5 Bft) 100,00 %
23.02.2016 14:07 10,2 C 71 % 1006,1 hPa 0,0 l/m 22,2 km/h (4 Bft) W-SW 250 0 min 0,000 mm 0,0 UV-I 97 W/m 5,2 C 2,9 C 27,4 km/h (4 Bft) 100,00 %
23.02.2016 14:08 10,2 C 71 % 1006,1 hPa 0,0 l/m 24,0 km/h (4 Bft) W-SW 240 0 min 0,000 mm 0,0 UV-I 97 W/m 5,2 C 2,4 C 33,8 km/h (5 Bft) 100,00 %
23.02.2016 14:09 10,2 C 71 % 1006,1 hPa 0,0 l/m 19,7 km/h (3 Bft) W-SW 255 0 min 0,000 mm 0,0 UV-I 97 W/m 5,2 C 3,6 C 33,8 km/h (5 Bft) 100,00 %
23.02.2016 14:10 10,2 C 71 % 1006,1 hPa 0,0 l/m 13,8 km/h (3 Bft) W-SW 246 0 min 0,000 mm 0,0 UV-I 94 W/m 5,2 C 5,9 C 17,7 km/h (3 Bft) 100,00 %
23.02.2016 14:11 10,3 C 71 % 1006,1 hPa 0,0 l/m 16,6 km/h (3 Bft) SW 227 0 min 0,000 mm 0,0 UV-I 92 W/m 5,3 C 4,9 C 24,1 km/h (4 Bft) 100,00 %
23.02.2016 14:12 10,3 C 72 % 1006,0 hPa 0,0 l/m 15,9 km/h (3 Bft) W-SW 256 0 min 0,000 mm 0,0 UV-I 89 W/m 5,5 C 5,1 C 20,9 km/h (4 Bft) 100,00 %
23.02.2016 14:13 10,2 C 72 % 1006,1 hPa 0,0 l/m 16,3 km/h (3 Bft) W-SW 242 0 min 0,000 mm 0,0 UV-I 85 W/m 5,4 C 4,9 C 22,5 km/h (4 Bft) 100,00 %
23.02.2016 14:14 10,2 C 72 % 1006,0 hPa 0,0 l/m 18,5 km/h (3 Bft) W 274 0 min 0,000 mm 0,0 UV-I 82 W/m 5,4 C 4,0 C 27,4 km/h (4 Bft) 96,15 %
23.02.2016 14:15 10,2 C 71 % 1006,0 hPa 0,0 l/m 16,7 km/h (3 Bft) W-SW 258 0 min 0,000 mm 0,0 UV-I 79 W/m 5,2 C 4,7 C 22,5 km/h (4 Bft) 95,83 %
23.02.2016 14:16 10,2 C 71 % 1006,0 hPa 0,0 l/m 18,4 km/h (3 Bft) W-SW 244 0 min 0,000 mm 0,0 UV-I 82 W/m 5,2 C 4,1 C 22,5 km/h (4 Bft) 100,00 %
23.02.2016 14:17 10,2 C 72 % 1006,0 hPa 0,0 l/m 19,2 km/h (3 Bft) SW 234 0 min 0,000 mm 0,0 UV-I 84 W/m 5,4 C 3,8 C 29,0 km/h (5 Bft) 95,83 %
23.02.2016 14:18 10,2 C 70 % 1006,0 hPa 0,0 l/m 16,9 km/h (3 Bft) W-SW 251 0 min 0,000 mm 0,0 UV-I 81 W/m 5,0 C 4,6 C 20,9 km/h (4 Bft) 96,15 %
23.02.2016 14:19 10,3 C 71 % 1006,0 hPa 0,0 l/m 16,2 km/h (3 Bft) W-SW 250 0 min 0,000 mm 0,0 UV-I 76 W/m 5,3 C 5,0 C 20,9 km/h (4 Bft) 100,00 %
23.02.2016 14:20 10,3 C 71 % 1005,9 hPa 0,0 l/m 14,7 km/h (3 Bft) SW 228 0 min 0,000 mm 0,0 UV-I 72 W/m 5,3 C 5,6 C 22,5 km/h (4 Bft) 100,00 %
23.02.2016 14:21 10,3 C 70 % 1006,0 hPa 0,0 l/m 16,7 km/h (3 Bft) W 261 0 min 0,000 mm 0,0 UV-I 70 W/m 5,1 C 4,8 C 27,4 km/h (4 Bft) 100,00 %
23.02.2016 14:22 10,3 C 71 % 1006,0 hPa 0,0 l/m 18,2 km/h (3 Bft) SW 216 0 min 0,000 mm 0,0 UV-I 70 W/m 5,3 C 4,3 C 27,4 km/h (4 Bft) 100,00 %
23.02.2016 14:23 10,3 C 71 % 1006,0 hPa 0,0 l/m 14,1 km/h (3 Bft) S-SW 193 0 min 0,000 mm 0,0 UV-I 71 W/m 5,3 C 5,9 C 19,3 km/h (3 Bft) 100,00 %
23.02.2016 14:24 10,3 C 71 % 1005,9 hPa 0,0 l/m 21,9 km/h (4 Bft) W-SW 247 0 min 0,000 mm 0,0 UV-I 72 W/m 5,3 C 3,1 C 27,4 km/h (4 Bft) 100,00 %
23.02.2016 14:25 10,3 C 71 % 1005,9 hPa 0,0 l/m 14,9 km/h (3 Bft) SW 234 0 min 0,000 mm 0,0 UV-I 74 W/m 5,3 C 5,5 C 25,7 km/h (4 Bft) 100,00 %
23.02.2016 14:26 10,2 C 71 % 1005,9 hPa 0,0 l/m 13,0 km/h (3 Bft) SW 231 0 min 0,000 mm 0,0 UV-I 76 W/m 5,2 C 6,3 C 19,3 km/h (3 Bft) 100,00 %
23.02.2016 14:27 10,2 C 72 % 1005,9 hPa 0,0 l/m 16,9 km/h (3 Bft) W 260 0 min 0,000 mm 0,0 UV-I 77 W/m 5,4 C 4,6 C 24,1 km/h (4 Bft) 100,00 %
23.02.2016 14:28 10,2 C 71 % 1005,9 hPa 0,0 l/m 17,4 km/h (3 Bft) W 267 0 min 0,000 mm 0,0 UV-I 77 W/m 5,2 C 4,4 C 24,1 km/h (4 Bft) 100,00 %
23.02.2016 14:29 10,2 C 71 % 1005,9 hPa 0,0 l/m 17,4 km/h (3 Bft) W 281 0 min 0,000 mm 0,0 UV-I 78 W/m 5,2 C 4,4 C 24,1 km/h (4 Bft) 100,00 %
23.02.2016 14:30 10,3 C 71 % 1005,9 hPa 0,0 l/m 15,7 km/h (3 Bft) SW 216 0 min 0,000 mm 0,0 UV-I 80 W/m 5,3 C 5,2 C 20,9 km/h (4 Bft) 91,67 %
23.02.2016 14:31 10,3 C 71 % 1005,9 hPa 0,0 l/m 11,0 km/h (2 Bft) W-SW 241 0 min 0,000 mm 0,0 UV-I 83 W/m 5,3 C 7,4 C 14,5 km/h (3 Bft) 96,55 %
23.02.2016 14:32 10,3 C 71 % 1005,9 hPa 0,0 l/m 11,3 km/h (2 Bft) W-SW 244 0 min 0,000 mm 0,0 UV-I 88 W/m 5,3 C 7,2 C 14,5 km/h (3 Bft) 100,00 %
23.02.2016 14:33 10,3 C 71 % 1005,9 hPa 0,0 l/m 15,9 km/h (3 Bft) SW 235 0 min 0,000 mm 0,0 UV-I 93 W/m 5,3 C 5,1 C 22,5 km/h (4 Bft) 92,86 %
23.02.2016 14:34 10,3 C 71 % 1005,9 hPa 0,0 l/m 16,1 km/h (3 Bft) W-SW 255 0 min 0,000 mm 0,0 UV-I 99 W/m 5,3 C 5,1 C 19,3 km/h (3 Bft) 100,00 %
23.02.2016 14:35 10,3 C 71 % 1005,9 hPa 0,0 l/m 13,8 km/h (3 Bft) SW 231 0 min 0,000 mm 0,0 UV-I 104 W/m 5,3 C 6,0 C 17,7 km/h (3 Bft) 92,86 %
23.02.2016 14:36 10,3 C 71 % 1005,9 hPa 0,0 l/m 14,1 km/h (3 Bft) W-SW 244 0 min 0,000 mm 0,0 UV-I 111 W/m 5,3 C 5,9 C 17,7 km/h (3 Bft) 100,00 %
23.02.2016 14:37 10,3 C 72 % 1005,8 hPa 0,0 l/m 12,9 km/h (3 Bft) S 182 0 min 0,000 mm 0,0 UV-I 117 W/m 5,5 C 6,4 C 19,3 km/h (3 Bft) 94,12 %
23.02.2016 14:38 10,3 C 71 % 1005,8 hPa 0,0 l/m 11,7 km/h (2 Bft) W 262 0 min 0,000 mm 0,0 UV-I 123 W/m 5,3 C 7,0 C 16,1 km/h (3 Bft) 96,30 %
23.02.2016 14:39 10,3 C 71 % 1005,8 hPa 0,0 l/m 13,4 km/h (3 Bft) W-SW 254 0 min 0,000 mm 0,0 UV-I 127 W/m 5,3 C 6,2 C 20,9 km/h (4 Bft) 100,00 %
23.02.2016 14:40 10,3 C 71 % 1005,8 hPa 0,0 l/m 11,1 km/h (2 Bft) W-SW 246 0 min 0,000 mm 0,5 UV-I 130 W/m 5,3 C 7,3 C 20,9 km/h (4 Bft) 93,33 %
23.02.2016 14:41 10,4 C 71 % 1005,8 hPa 0,0 l/m 17,4 km/h (3 Bft) W-SW 250 0 min 0,000 mm 0,5 UV-I 134 W/m 5,4 C 4,7 C 22,5 km/h (4 Bft) 100,00 %
23.02.2016 14:42 10,4 C 71 % 1005,8 hPa 0,0 l/m 13,1 km/h (3 Bft) W-SW 244 0 min 0,000 mm 0,5 UV-I 136 W/m 5,4 C 6,4 C 16,1 km/h (3 Bft) 96,67 %
23.02.2016 14:43 10,4 C 71 % 1005,8 hPa 0,0 l/m 12,8 km/h (3 Bft) S-SW 213 0 min 0,000 mm 0,5 UV-I 135 W/m 5,4 C 6,6 C 20,9 km/h (4 Bft) 96,15 %
23.02.2016 14:44 10,4 C 71 % 1005,8 hPa 0,0 l/m 12,4 km/h (3 Bft) W-SW 240 0 min 0,000 mm 0,5 UV-I 130 W/m 5,4 C 6,8 C 19,3 km/h (3 Bft) 93,33 %
23.02.2016 14:45 10,4 C 71 % 1005,8 hPa 0,0 l/m 14,0 km/h (3 Bft) SW 219 0 min 0,000 mm 0,5 UV-I 127 W/m 5,4 C 6,0 C 19,3 km/h (3 Bft) 96,15 %
23.02.2016 14:46 10,4 C 71 % 1005,8 hPa 0,0 l/m 13,8 km/h (3 Bft) SW 230 0 min 0,000 mm 0,5 UV-I 124 W/m 5,4 C 6,1 C 20,9 km/h (4 Bft) 100,00 %
23.02.2016 14:47 10,5 C 70 % 1005,8 hPa 0,0 l/m 17,5 km/h (3 Bft) SW 215 0 min 0,000 mm 0,2 UV-I 124 W/m 5,3 C 4,8 C 24,1 km/h (4 Bft) 96,15 %
23.02.2016 14:48 10,5 C 70 % 1005,7 hPa 0,0 l/m 17,0 km/h (3 Bft) W-SW 246 0 min 0,000 mm 0,5 UV-I 127 W/m 5,3 C 5,0 C 25,7 km/h (4 Bft) 100,00 %
23.02.2016 14:49 10,5 C 70 % 1005,8 hPa 0,0 l/m 16,4 km/h (3 Bft) W-SW 258 0 min 0,000 mm 0,5 UV-I 128 W/m 5,3 C 5,2 C 24,1 km/h (4 Bft) 96,55 %
23.02.2016 14:50 10,5 C 70 % 1005,8 hPa 0,0 l/m 16,7 km/h (3 Bft) W-SW 257 0 min 0,000 mm 0,5 UV-I 134 W/m 5,3 C 5,1 C 22,5 km/h (4 Bft) 100,00 %
23.02.2016 14:51 10,6 C 70 % 1005,7 hPa 0,0 l/m 13,9 km/h (3 Bft) W 261 0 min 0,000 mm 0,5 UV-I 137 W/m 5,4 C 6,3 C 16,1 km/h (3 Bft) 96,55 %
23.02.2016 14:52 10,6 C 71 % 1005,8 hPa 0,0 l/m 11,0 km/h (2 Bft) W-SW 254 0 min 0,000 mm 0,5 UV-I 136 W/m 5,6 C 7,7 C 19,3 km/h (3 Bft) 96,30 %
23.02.2016 14:53 10,6 C 71 % 1005,8 hPa 0,0 l/m 13,5 km/h (3 Bft) W-SW 240 0 min 0,000 mm 0,3 UV-I 130 W/m 5,6 C 6,5 C 19,3 km/h (3 Bft) 100,00 %
23.02.2016 14:54 10,6 C 71 % 1005,8 hPa 0,0 l/m 13,4 km/h (3 Bft) W 261 0 min 0,000 mm 0,0 UV-I 126 W/m 5,6 C 6,5 C 19,3 km/h (3 Bft) 96,15 %
23.02.2016 14:55 10,6 C 70 % 1005,8 hPa 0,0 l/m 13,7 km/h (3 Bft) SW 219 0 min 0,000 mm 0,0 UV-I 121 W/m 5,4 C 6,4 C 22,5 km/h (4 Bft) 100,00 %
23.02.2016 14:56 10,7 C 70 % 1005,8 hPa 0,0 l/m 14,4 km/h (3 Bft) W-SW 253 0 min 0,000 mm 0,0 UV-I 111 W/m 5,5 C 6,2 C 19,3 km/h (3 Bft) 94,12 %
23.02.2016 14:57 10,7 C 70 % 1005,8 hPa 0,0 l/m 13,8 km/h (3 Bft) SW 227 0 min 0,000 mm 0,0 UV-I 115 W/m 5,5 C 6,5 C 20,9 km/h (4 Bft) 100,00 %
23.02.2016 14:58 10,7 C 70 % 1005,8 hPa 0,0 l/m 13,5 km/h (3 Bft) W-SW 238 0 min 0,000 mm 0,0 UV-I 119 W/m 5,5 C 6,6 C 16,1 km/h (3 Bft) 95,65 %
23.02.2016 14:59 10,7 C 70 % 1005,8 hPa 0,0 l/m 17,4 km/h (3 Bft) S 175 0 min 0,000 mm 0,0 UV-I 122 W/m 5,5 C 5,1 C 22,5 km/h (4 Bft) 100,00 %
23.02.2016 15:00 10,7 C 69 % 1005,8 hPa 0,0 l/m 16,7 km/h (3 Bft) W 263 0 min 0,000 mm 0,0 UV-I 123 W/m 5,2 C 5,3 C 20,9 km/h (4 Bft) 96,15 %
23.02.2016 15:01 10,7 C 70 % 1005,8 hPa 0,0 l/m 11,3 km/h (2 Bft) SW 228 0 min 0,101 mm 0,0 UV-I 125 W/m 5,5 C 7,7 C 16,1 km/h (3 Bft) 100,00 %
23.02.2016 15:02 10,7 C 69 % 1005,8 hPa 0,0 l/m 16,2 km/h (3 Bft) W-SW 248 0 min 0,000 mm 0,0 UV-I 135 W/m 5,2 C 5,5 C 20,9 km/h (4 Bft) 96,15 %
23.02.2016 15:03 10,7 C 70 % 1005,8 hPa 0,0 l/m 17,4 km/h (3 Bft) SW 221 0 min 0,000 mm 0,0 UV-I 143 W/m 5,5 C 5,1 C 29,0 km/h (5 Bft) 95,83 %
23.02.2016 15:04 10,7 C 70 % 1005,7 hPa 0,0 l/m 16,2 km/h (3 Bft) W-SW 238 0 min 0,000 mm 0,0 UV-I 142 W/m 5,5 C 5,5 C 22,5 km/h (4 Bft) 100,00 %
23.02.2016 15:05 10,8 C 70 % 1005,8 hPa 0,0 l/m 17,8 km/h (3 Bft) W 260 0 min 0,000 mm 0,0 UV-I 127 W/m 5,6 C 5,0 C 24,1 km/h (4 Bft) 92,59 %
23.02.2016 15:06 10,8 C 69 % 1005,8 hPa 0,0 l/m 20,8 km/h (4 Bft) SW 225 0 min 0,000 mm 0,0 UV-I 109 W/m 5,3 C 4,1 C 32,2 km/h (5 Bft) 100,00 %
23.02.2016 15:07 10,8 C 68 % 1005,8 hPa 0,0 l/m 18,0 km/h (3 Bft) SW 236 0 min 0,000 mm 0,0 UV-I 108 W/m 5,1 C 5,0 C 24,1 km/h (4 Bft) 96,15 %
23.02.2016 15:08 10,8 C 69 % 1005,8 hPa 0,0 l/m 16,3 km/h (3 Bft) W-SW 258 0 min 0,000 mm 0,0 UV-I 104 W/m 5,3 C 5,6 C 22,5 km/h (4 Bft) 100,00 %
23.02.2016 15:09 10,8 C 69 % 1005,8 hPa 0,0 l/m 16,5 km/h (3 Bft) W-SW 249 0 min 0,000 mm 0,0 UV-I 95 W/m 5,3 C 5,5 C 22,5 km/h (4 Bft) 100,00 %
23.02.2016 15:10 10,8 C 70 % 1005,8 hPa 0,0 l/m 19,1 km/h (3 Bft) W-SW 258 0 min 0,000 mm 0,0 UV-I 87 W/m 5,6 C 4,6 C 29,0 km/h (5 Bft) 100,00 %
23.02.2016 15:11 10,8 C 68 % 1005,8 hPa 0,0 l/m 20,4 km/h (4 Bft) W-SW 257 0 min 0,000 mm 0,0 UV-I 85 W/m 5,1 C 4,2 C 29,0 km/h (5 Bft) 100,00 %
23.02.2016 15:12 10,8 C 68 % 1005,8 hPa 0,0 l/m 21,8 km/h (4 Bft) W 261 0 min 0,000 mm 0,0 UV-I 83 W/m 5,1 C 3,8 C 30,6 km/h (5 Bft) 96,30 %
23.02.2016 15:13 10,8 C 68 % 1005,8 hPa 0,0 l/m 24,6 km/h (4 Bft) W-SW 251 0 min 0,000 mm 0,0 UV-I 81 W/m 5,1 C 3,0 C 33,8 km/h (5 Bft) 92,31 %
23.02.2016 15:14 10,8 C 68 % 1005,7 hPa 0,0 l/m 23,1 km/h (4 Bft) SW 222 0 min 0,000 mm 0,0 UV-I 79 W/m 5,1 C 3,4 C 32,2 km/h (5 Bft) 95,83 %
23.02.2016 15:15 10,8 C 68 % 1005,9 hPa 0,0 l/m 30,6 km/h (5 Bft) SW 230 0 min 0,000 mm 0,0 UV-I 79 W/m 5,1 C 1,7 C 48,3 km/h (6 Bft) 100,00 %
23.02.2016 15:16 10,9 C 67 % 1005,8 hPa 0,0 l/m 30,3 km/h (5 Bft) W-NW 292 0 min 0,000 mm 0,0 UV-I 81 W/m 5,0 C 1,9 C 41,8 km/h (6 Bft) 100,00 %
23.02.2016 15:17 10,8 C 66 % 1005,8 hPa 0,0 l/m 24,6 km/h (4 Bft) W-SW 242 0 min 0,000 mm 0,0 UV-I 85 W/m 4,7 C 3,0 C 35,4 km/h (5 Bft) 96,55 %
23.02.2016 15:18 10,9 C 66 % 1005,8 hPa 0,0 l/m 26,2 km/h (4 Bft) W-SW 258 0 min 0,000 mm 0,0 UV-I 84 W/m 4,8 C 2,8 C 35,4 km/h (5 Bft) 100,00 %
23.02.2016 15:19 10,9 C 66 % 1005,7 hPa 0,0 l/m 24,8 km/h (4 Bft) W-SW 251 0 min 0,000 mm 0,0 UV-I 79 W/m 4,8 C 3,1 C 35,4 km/h (5 Bft) 98,60 %
23.02.2016 15:20 10,9 C 66 % 1005,9 hPa 0,0 l/m 20,5 km/h (4 Bft) W-NW 284 0 min 0,000 mm 0,0 UV-I 78 W/m 4,8 C 4,3 C 33,8 km/h (5 Bft) 97,56 %
23.02.2016 15:21 10,9 C 66 % 1006,1 hPa 0,0 l/m 25,7 km/h (4 Bft) W 259 0 min 0,000 mm 0,0 UV-I 79 W/m 4,8 C 2,9 C 32,2 km/h (5 Bft) 100,00 %
23.02.2016 15:22 10,8 C 66 % 1006,1 hPa 0,0 l/m 23,5 km/h (4 Bft) W-SW 251 0 min 0,000 mm 0,0 UV-I 81 W/m 4,7 C 3,3 C 30,6 km/h (5 Bft) 100,00 %
23.02.2016 15:23 10,8 C 66 % 1005,9 hPa 0,0 l/m 29,4 km/h (5 Bft) W-SW 247 0 min 0,000 mm 0,0 UV-I 84 W/m 4,7 C 1,9 C 38,6 km/h (5 Bft) 95,65 %
23.02.2016 15:24 10,8 C 66 % 1005,9 hPa 0,0 l/m 32,3 km/h (5 Bft) W 261 0 min 0,000 mm 0,0 UV-I 84 W/m 4,7 C 1,3 C 48,3 km/h (6 Bft) 100,00 %
23.02.2016 15:25 10,8 C 66 % 1005,8 hPa 0,0 l/m 17,8 km/h (3 Bft) W-SW 250 0 min 0,000 mm 0,0 UV-I 83 W/m 4,7 C 5,0 C 24,1 km/h (4 Bft) 94,12 %
23.02.2016 15:26 10,8 C 66 % 1005,9 hPa 0,0 l/m 21,5 km/h (4 Bft) W-SW 250 0 min 0,000 mm 0,0 UV-I 80 W/m 4,7 C 3,9 C 32,2 km/h (5 Bft) 100,00 %
23.02.2016 15:27 10,8 C 66 % 1005,9 hPa 0,0 l/m 25,2 km/h (4 Bft) W-SW 256 0 min 0,000 mm 0,0 UV-I 78 W/m 4,7 C 2,9 C 35,4 km/h (5 Bft) 100,00 %
23.02.2016 15:28 10,8 C 66 % 1005,9 hPa 0,0 l/m 22,4 km/h (4 Bft) W-SW 257 0 min 0,000 mm 0,0 UV-I 76 W/m 4,7 C 3,6 C 30,6 km/h (5 Bft) 100,00 %
23.02.2016 15:29 10,8 C 67 % 1005,9 hPa 0,0 l/m 19,6 km/h (3 Bft) W-SW 258 0 min 0,000 mm 0,0 UV-I 75 W/m 4,9 C 4,4 C 27,4 km/h (4 Bft) 100,00 %
23.02.2016 15:30 10,8 C 67 % 1005,9 hPa 0,0 l/m 21,6 km/h (4 Bft) W-SW 246 0 min 0,000 mm 0,0 UV-I 71 W/m 4,9 C 3,8 C 30,6 km/h (5 Bft) 100,00 %
23.02.2016 15:31 10,7 C 67 % 1006,0 hPa 0,0 l/m 19,4 km/h (3 Bft) W-SW 247 0 min 0,000 mm 0,0 UV-I 67 W/m 4,8 C 4,4 C 27,4 km/h (4 Bft) 100,00 %
23.02.2016 15:32 10,7 C 68 % 1005,9 hPa 0,0 l/m 20,8 km/h (4 Bft) W 265 0 min 0,000 mm 0,0 UV-I 62 W/m 5,0 C 3,9 C 37,0 km/h (5 Bft) 95,65 %
23.02.2016 15:33 10,6 C 67 % 1005,8 hPa 0,0 l/m 20,0 km/h (4 Bft) S-SW 202 0 min 0,000 mm 0,0 UV-I 58 W/m 4,7 C 4,1 C 27,4 km/h (4 Bft) 100,00 %
23.02.2016 15:34 10,6 C 68 % 1005,9 hPa 0,0 l/m 17,6 km/h (3 Bft) SW 223 0 min 0,000 mm 0,0 UV-I 54 W/m 4,9 C 4,9 C 27,4 km/h (4 Bft) 100,00 %
23.02.2016 15:35 10,6 C 68 % 1005,8 hPa 0,0 l/m 22,5 km/h (4 Bft) W-SW 251 0 min 0,000 mm 0,0 UV-I 50 W/m 4,9 C 3,3 C 40,2 km/h (6 Bft) 100,00 %
23.02.2016 15:36 10,6 C 68 % 1005,8 hPa 0,0 l/m 29,2 km/h (5 Bft) SW 228 0 min 0,000 mm 0,0 UV-I 45 W/m 4,9 C 1,7 C 38,6 km/h (5 Bft) 100,00 %
23.02.2016 15:37 10,6 C 68 % 1005,8 hPa 0,0 l/m 27,4 km/h (4 Bft) SW 223 0 min 0,000 mm 0,0 UV-I 40 W/m 4,9 C 2,1 C 40,2 km/h (6 Bft) 100,00 %
23.02.2016 15:38 10,5 C 67 % 1005,8 hPa 0,0 l/m 27,4 km/h (4 Bft) W-SW 244 0 min 0,000 mm 0,0 UV-I 39 W/m 4,6 C 1,9 C 37,0 km/h (5 Bft) 100,00 %
23.02.2016 15:39 10,5 C 67 % 1005,8 hPa 0,0 l/m 22,7 km/h (4 Bft) W 259 0 min 0,000 mm 0,0 UV-I 44 W/m 4,6 C 3,1 C 33,8 km/h (5 Bft) 100,00 %
23.02.2016 15:40 10,4 C 68 % 1005,9 hPa 0,0 l/m 23,1 km/h (4 Bft) W-SW 252 0 min 0,000 mm 0,0 UV-I 46 W/m 4,8 C 2,9 C 29,0 km/h (5 Bft) 100,00 %
23.02.2016 15:41 10,4 C 68 % 1005,7 hPa 0,0 l/m 20,5 km/h (4 Bft) W 261 0 min 0,000 mm 0,0 UV-I 50 W/m 4,8 C 3,6 C 25,7 km/h (4 Bft) 100,00 %
23.02.2016 15:42 10,4 C 68 % 1005,7 hPa 0,0 l/m 21,2 km/h (4 Bft) SW 232 0 min 0,000 mm 0,0 UV-I 53 W/m 4,8 C 3,4 C 30,6 km/h (5 Bft) 96,15 %
23.02.2016 15:43 10,4 C 68 % 1005,7 hPa 0,0 l/m 19,1 km/h (3 Bft) W 259 0 min 0,000 mm 0,0 UV-I 51 W/m 4,8 C 4,1 C 27,4 km/h (4 Bft) 100,00 %
23.02.2016 15:44 10,3 C 68 % 1005,7 hPa 0,0 l/m 23,7 km/h (4 Bft) W-SW 252 0 min 0,000 mm 0,0 UV-I 49 W/m 4,7 C 2,6 C 38,6 km/h (5 Bft) 96,15 %
23.02.2016 15:45 10,3 C 68 % 1005,6 hPa 0,0 l/m 19,1 km/h (3 Bft) W-SW 250 0 min 0,000 mm 0,0 UV-I 49 W/m 4,7 C 4,0 C 24,1 km/h (4 Bft) 100,00 %
23.02.2016 15:46 10,3 C 69 % 1005,7 hPa 0,0 l/m 21,2 km/h (4 Bft) W-SW 258 0 min 0,000 mm 0,0 UV-I 50 W/m 4,9 C 3,3 C 25,7 km/h (4 Bft) 100,00 %
23.02.2016 15:47 10,3 C 69 % 1005,7 hPa 0,0 l/m 17,4 km/h (3 Bft) W-SW 241 0 min 0,000 mm 0,0 UV-I 52 W/m 4,9 C 4,6 C 24,1 km/h (4 Bft) 100,00 %
23.02.2016 15:48 10,3 C 69 % 1005,6 hPa 0,0 l/m 20,4 km/h (4 Bft) S-SW 210 0 min 0,000 mm 0,0 UV-I 54 W/m 4,9 C 3,5 C 37,0 km/h (5 Bft) 100,00 %
23.02.2016 15:49 10,2 C 69 % 1005,6 hPa 0,0 l/m 22,0 km/h (4 Bft) S-SW 209 0 min 0,000 mm 0,0 UV-I 59 W/m 4,8 C 2,9 C 25,7 km/h (4 Bft) 100,00 %
23.02.2016 15:50 10,2 C 69 % 1005,7 hPa 0,0 l/m 25,1 km/h (4 Bft) W 259 0 min 0,000 mm 0,0 UV-I 62 W/m 4,8 C 2,1 C 35,4 km/h (5 Bft) 100,00 %
23.02.2016 15:51 10,2 C 69 % 1005,6 hPa 0,0 l/m 18,2 km/h (3 Bft) W-SW 258 0 min 0,000 mm 0,0 UV-I 63 W/m 4,8 C 4,2 C 24,1 km/h (4 Bft) 100,00 %
23.02.2016 15:52 10,2 C 69 % 1005,6 hPa 0,0 l/m 16,7 km/h (3 Bft) SW 228 0 min 0,000 mm 0,0 UV-I 63 W/m 4,8 C 4,7 C 25,7 km/h (4 Bft) 100,00 %
23.02.2016 15:53 10,2 C 69 % 1005,6 hPa 0,0 l/m 23,2 km/h (4 Bft) W-SW 254 0 min 0,000 mm 0,0 UV-I 64 W/m 4,8 C 2,6 C 33,8 km/h (5 Bft) 93,33 %
23.02.2016 15:54 10,2 C 69 % 1005,6 hPa 0,0 l/m 21,2 km/h (4 Bft) W-SW 246 0 min 0,000 mm 0,0 UV-I 65 W/m 4,8 C 3,2 C 32,2 km/h (5 Bft) 100,00 %
23.02.2016 15:55 10,2 C 69 % 1005,6 hPa 0,0 l/m 16,9 km/h (3 Bft) SW 230 0 min 0,000 mm 0,0 UV-I 65 W/m 4,8 C 4,6 C 30,6 km/h (5 Bft) 100,00 %
23.02.2016 15:56 10,2 C 69 % 1005,7 hPa 0,0 l/m 16,9 km/h (3 Bft) SW 236 0 min 0,000 mm 0,0 UV-I 65 W/m 4,8 C 4,6 C 24,1 km/h (4 Bft) 100,00 %
23.02.2016 15:57 10,2 C 70 % 1005,7 hPa 0,0 l/m 19,0 km/h (3 Bft) W 262 0 min 0,000 mm 0,0 UV-I 64 W/m 5,0 C 3,9 C 32,2 km/h (5 Bft) 100,00 %
23.02.2016 15:58 10,2 C 70 % 1005,8 hPa 0,0 l/m 20,3 km/h (4 Bft) W-SW 242 0 min 0,000 mm 0,0 UV-I 62 W/m 5,0 C 3,4 C 25,7 km/h (4 Bft) 100,00 %
23.02.2016 15:59 10,2 C 70 % 1005,7 hPa 0,0 l/m 13,3 km/h (3 Bft) S-SW 208 0 min 0,000 mm 0,0 UV-I 60 W/m 5,0 C 6,1 C 17,7 km/h (3 Bft) 100,00 %
23.02.2016 16:00 10,2 C 70 % 1005,7 hPa 0,0 l/m 17,1 km/h (3 Bft) W-SW 238 0 min 0,000 mm 0,0 UV-I 58 W/m 5,0 C 4,5 C 22,5 km/h (4 Bft) 100,00 %
23.02.2016 16:02 10,2 C 70 % 1005,6 hPa 0,0 l/m 17,7 km/h (3 Bft) SW 230 0 min 0,102 mm 0,0 UV-I 56 W/m 5,0 C 4,3 C 29,0 km/h (5 Bft) 100,00 %
23.02.2016 16:03 10,2 C 70 % 1005,6 hPa 0,0 l/m 14,8 km/h (3 Bft) SW 230 0 min 0,000 mm 0,0 UV-I 56 W/m 5,0 C 5,5 C 20,9 km/h (4 Bft) 100,00 %
23.02.2016 16:04 10,2 C 70 % 1005,6 hPa 0,0 l/m 14,7 km/h (3 Bft) SW 235 0 min 0,000 mm 0,0 UV-I 57 W/m 5,0 C 5,5 C 22,5 km/h (4 Bft) 100,00 %
23.02.2016 16:05 10,2 C 70 % 1005,6 hPa 0,0 l/m 16,8 km/h (3 Bft) W 269 0 min 0,000 mm 0,0 UV-I 60 W/m 5,0 C 4,7 C 20,9 km/h (4 Bft) 100,00 %
23.02.2016 16:06 10,1 C 70 % 1005,6 hPa 0,0 l/m 14,0 km/h (3 Bft) W 261 0 min 0,000 mm 0,0 UV-I 60 W/m 4,9 C 5,7 C 19,3 km/h (3 Bft) 100,00 %
23.02.2016 16:07 10,1 C 70 % 1005,6 hPa 0,0 l/m 8,4 km/h (2 Bft) W-SW 246 0 min 0,000 mm 0,0 UV-I 58 W/m 4,9 C 8,7 C 11,3 km/h (2 Bft) 100,00 %
23.02.2016 16:08 10,1 C 70 % 1005,6 hPa 0,0 l/m 20,4 km/h (4 Bft) W-SW 248 0 min 0,000 mm 0,0 UV-I 60 W/m 4,9 C 3,3 C 32,2 km/h (5 Bft) 100,00 %
23.02.2016 16:09 10,1 C 70 % 1005,6 hPa 0,0 l/m 18,6 km/h (3 Bft) SW 232 0 min 0,000 mm 0,0 UV-I 61 W/m 4,9 C 3,9 C 27,4 km/h (4 Bft) 100,00 %
23.02.2016 16:10 10,1 C 71 % 1005,6 hPa 0,0 l/m 13,4 km/h (3 Bft) W-SW 254 0 min 0,000 mm 0,0 UV-I 62 W/m 5,1 C 6,0 C 17,7 km/h (3 Bft) 96,15 %
23.02.2016 16:11 10,1 C 71 % 1005,6 hPa 0,0 l/m 11,3 km/h (2 Bft) SW 227 0 min 0,000 mm 0,0 UV-I 63 W/m 5,1 C 7,0 C 19,3 km/h (3 Bft) 96,30 %
23.02.2016 16:12 10,1 C 71 % 1005,6 hPa 0,0 l/m 18,1 km/h (3 Bft) W-SW 239 0 min 0,000 mm 0,0 UV-I 63 W/m 5,1 C 4,1 C 25,7 km/h (4 Bft) 100,00 %
23.02.2016 16:13 10,1 C 71 % 1005,5 hPa 0,0 l/m 8,0 km/h (2 Bft) SW 220 0 min 0,000 mm 0,0 UV-I 63 W/m 5,1 C 9,0 C 11,3 km/h (2 Bft) 100,00 %
23.02.2016 16:14 10,1 C 71 % 1005,5 hPa 0,0 l/m 11,4 km/h (2 Bft) SW 229 0 min 0,000 mm 0,0 UV-I 61 W/m 5,1 C 6,9 C 19,3 km/h (3 Bft) 96,55 %
23.02.2016 16:15 10,1 C 71 % 1005,5 hPa 0,0 l/m 13,7 km/h (3 Bft) SW 232 0 min 0,000 mm 0,0 UV-I 59 W/m 5,1 C 5,8 C 20,9 km/h (4 Bft) 100,00 %
23.02.2016 16:16 10,1 C 71 % 1005,5 hPa 0,0 l/m 16,2 km/h (3 Bft) SW 229 0 min 0,000 mm 0,0 UV-I 55 W/m 5,1 C 4,8 C 20,9 km/h (4 Bft) 100,00 %
23.02.2016 16:17 10,1 C 72 % 1005,4 hPa 0,0 l/m 15,4 km/h (3 Bft) SW 236 0 min 0,000 mm 0,0 UV-I 53 W/m 5,3 C 5,1 C 20,9 km/h (4 Bft) 91,67 %
23.02.2016 16:18 10,1 C 72 % 1005,5 hPa 0,0 l/m 11,1 km/h (2 Bft) SW 235 0 min 0,000 mm 0,0 UV-I 53 W/m 5,3 C 7,1 C 16,1 km/h (3 Bft) 100,00 %
23.02.2016 16:19 10,1 C 72 % 1005,4 hPa 0,0 l/m 9,3 km/h (2 Bft) SW 219 0 min 0,000 mm 0,0 UV-I 52 W/m 5,3 C 8,1 C 12,9 km/h (3 Bft) 100,00 %
23.02.2016 16:20 10,1 C 72 % 1005,4 hPa 0,0 l/m 11,4 km/h (2 Bft) SW 219 0 min 0,000 mm 0,0 UV-I 53 W/m 5,3 C 6,9 C 16,1 km/h (3 Bft) 100,00 %
23.02.2016 16:21 10,0 C 72 % 1005,4 hPa 0,0 l/m 15,1 km/h (3 Bft) S-SW 204 0 min 0,000 mm 0,0 UV-I 53 W/m 5,2 C 5,1 C 20,9 km/h (4 Bft) 100,00 %
23.02.2016 16:22 10,0 C 72 % 1005,4 hPa 0,0 l/m 8,9 km/h (2 Bft) S-SW 202 0 min 0,000 mm 0,0 UV-I 53 W/m 5,2 C 8,3 C 12,9 km/h (3 Bft) 92,86 %
23.02.2016 16:23 10,0 C 72 % 1005,4 hPa 0,0 l/m 10,1 km/h (2 Bft) SW 224 0 min 0,000 mm 0,0 UV-I 53 W/m 5,2 C 7,5 C 14,5 km/h (3 Bft) 96,30 %
23.02.2016 16:24 10,0 C 73 % 1005,4 hPa 0,0 l/m 9,0 km/h (2 Bft) S-SW 207 0 min 0,000 mm 0,0 UV-I 51 W/m 5,4 C 8,2 C 14,5 km/h (3 Bft) 100,00 %
23.02.2016 16:25 10,0 C 73 % 1005,4 hPa 0,0 l/m 13,3 km/h (3 Bft) S-SW 196 0 min 0,000 mm 0,0 UV-I 48 W/m 5,4 C 5,9 C 19,3 km/h (3 Bft) 100,00 %
23.02.2016 16:26 9,9 C 73 % 1005,4 hPa 0,0 l/m 13,1 km/h (3 Bft) S-SW 192 0 min 0,000 mm 0,0 UV-I 45 W/m 5,3 C 5,9 C 17,7 km/h (3 Bft) 100,00 %
23.02.2016 16:27 10,0 C 73 % 1005,3 hPa 0,0 l/m 8,9 km/h (2 Bft) S-SW 204 0 min 0,000 mm 0,0 UV-I 43 W/m 5,4 C 8,3 C 14,5 km/h (3 Bft) 100,00 %
23.02.2016 16:28 10,0 C 73 % 1005,4 hPa 0,0 l/m 6,8 km/h (2 Bft) S-SW 211 0 min 0,000 mm 0,0 UV-I 41 W/m 5,4 C 9,7 C 11,3 km/h (2 Bft) 100,00 %
23.02.2016 16:29 9,9 C 73 % 1005,4 hPa 0,0 l/m 7,7 km/h (2 Bft) SW 218 0 min 0,000 mm 0,0 UV-I 39 W/m 5,3 C 9,0 C 11,3 km/h (2 Bft) 100,00 %
23.02.2016 16:30 9,9 C 73 % 1005,4 hPa 0,0 l/m 10,7 km/h (2 Bft) SW 214 0 min 0,000 mm 0,0 UV-I 39 W/m 5,3 C 7,1 C 17,7 km/h (3 Bft) 100,00 %
23.02.2016 16:31 9,9 C 73 % 1005,4 hPa 0,0 l/m 11,1 km/h (2 Bft) S-SW 202 0 min 0,000 mm 0,0 UV-I 39 W/m 5,3 C 6,9 C 17,7 km/h (3 Bft) 100,00 %
23.02.2016 16:32 9,9 C 73 % 1005,3 hPa 0,0 l/m 9,5 km/h (2 Bft) SW 227 0 min 0,000 mm 0,0 UV-I 41 W/m 5,3 C 7,8 C 14,5 km/h (3 Bft) 100,00 %
23.02.2016 16:33 9,9 C 73 % 1005,4 hPa 0,0 l/m 10,7 km/h (2 Bft) SW 228 0 min 0,000 mm 0,0 UV-I 43 W/m 5,3 C 7,1 C 16,1 km/h (3 Bft) 95,65 %
23.02.2016 16:34 9,9 C 73 % 1005,4 hPa 0,0 l/m 6,1 km/h (2 Bft) S-SW 212 0 min 0,000 mm 0,0 UV-I 46 W/m 5,3 C 9,9 C 11,3 km/h (2 Bft) 100,00 %
23.02.2016 16:35 9,9 C 73 % 1005,3 hPa 0,0 l/m 8,4 km/h (2 Bft) SW 221 0 min 0,000 mm 0,0 UV-I 46 W/m 5,3 C 8,5 C 16,1 km/h (3 Bft) 95,65 %
23.02.2016 16:36 9,9 C 73 % 1005,3 hPa 0,0 l/m 9,6 km/h (2 Bft) S-SW 200 0 min 0,000 mm 0,0 UV-I 44 W/m 5,3 C 7,7 C 11,3 km/h (2 Bft) 96,30 %
23.02.2016 16:37 9,9 C 73 % 1005,3 hPa 0,0 l/m 10,1 km/h (2 Bft) S-SW 213 0 min 0,000 mm 0,0 UV-I 43 W/m 5,3 C 7,4 C 12,9 km/h (3 Bft) 100,00 %
23.02.2016 16:38 9,9 C 73 % 1005,2 hPa 0,0 l/m 9,5 km/h (2 Bft) SW 220 0 min 0,000 mm 0,0 UV-I 41 W/m 5,3 C 7,8 C 12,9 km/h (3 Bft) 100,00 %
23.02.2016 16:39 9,9 C 73 % 1005,2 hPa 0,0 l/m 10,5 km/h (2 Bft) S-SW 210 0 min 0,000 mm 0,0 UV-I 39 W/m 5,3 C 7,2 C 16,1 km/h (3 Bft) 88,24 %
23.02.2016 16:40 9,9 C 73 % 1005,2 hPa 0,0 l/m 12,2 km/h (2 Bft) SW 217 0 min 0,000 mm 0,0 UV-I 35 W/m 5,3 C 6,3 C 16,1 km/h (3 Bft) 92,59 %
23.02.2016 16:41 9,9 C 73 % 1005,2 hPa 0,0 l/m 9,1 km/h (2 Bft) S-SW 200 0 min 0,000 mm 0,0 UV-I 32 W/m 5,3 C 8,0 C 14,5 km/h (3 Bft) 100,00 %
23.02.2016 16:42 10,0 C 73 % 1005,2 hPa 0,0 l/m 10,9 km/h (2 Bft) S 183 0 min 0,000 mm 0,0 UV-I 30 W/m 5,4 C 7,1 C 14,5 km/h (3 Bft) 96,30 %
23.02.2016 16:43 9,9 C 73 % 1005,2 hPa 0,0 l/m 8,8 km/h (2 Bft) SW 234 0 min 0,000 mm 0,0 UV-I 27 W/m 5,3 C 8,2 C 14,5 km/h (3 Bft) 100,00 %
23.02.2016 16:44 9,9 C 73 % 1005,2 hPa 0,0 l/m 12,7 km/h (3 Bft) SW 229 0 min 0,000 mm 0,0 UV-I 26 W/m 5,3 C 6,1 C 20,9 km/h (4 Bft) 95,83 %
23.02.2016 16:45 10,0 C 73 % 1005,1 hPa 0,0 l/m 12,1 km/h (2 Bft) S 178 0 min 0,000 mm 0,0 UV-I 25 W/m 5,4 C 6,5 C 16,1 km/h (3 Bft) 95,65 %
23.02.2016 16:46 9,9 C 73 % 1005,2 hPa 0,0 l/m 15,6 km/h (3 Bft) SW 214 0 min 0,000 mm 0,0 UV-I 25 W/m 5,3 C 4,8 C 20,9 km/h (4 Bft) 95,83 %
23.02.2016 16:47 10,0 C 73 % 1005,1 hPa 0,0 l/m 14,2 km/h (3 Bft) S 187 0 min 0,000 mm 0,0 UV-I 23 W/m 5,4 C 5,5 C 20,9 km/h (4 Bft) 96,15 %
23.02.2016 16:48 10,0 C 73 % 1005,1 hPa 0,0 l/m 10,4 km/h (2 Bft) S-SW 210 0 min 0,000 mm 0,0 UV-I 21 W/m 5,4 C 7,4 C 16,1 km/h (3 Bft) 100,00 %
23.02.2016 16:49 10,0 C 73 % 1005,1 hPa 0,0 l/m 5,8 km/h (2 Bft) SW 229 0 min 0,000 mm 0,0 UV-I 21 W/m 5,4 C 10,0 C 12,9 km/h (3 Bft) 91,67 %
23.02.2016 16:50 10,0 C 73 % 1005,1 hPa 0,0 l/m 8,6 km/h (2 Bft) S 174 0 min 0,000 mm 0,0 UV-I 21 W/m 5,4 C 8,5 C 11,3 km/h (2 Bft) 96,55 %
23.02.2016 16:51 10,0 C 73 % 1005,2 hPa 0,0 l/m 11,1 km/h (2 Bft) S 182 0 min 0,000 mm 0,0 UV-I 22 W/m 5,4 C 7,0 C 17,7 km/h (3 Bft) 96,15 %
23.02.2016 16:52 10,0 C 73 % 1005,1 hPa 0,0 l/m 9,0 km/h (2 Bft) W-SW 244 0 min 0,000 mm 0,0 UV-I 23 W/m 5,4 C 8,2 C 12,9 km/h (3 Bft) 93,33 %
23.02.2016 16:53 10,0 C 73 % 1005,1 hPa 0,0 l/m 6,7 km/h (2 Bft) S 182 0 min 0,000 mm 0,0 UV-I 25 W/m 5,4 C 9,8 C 9,7 km/h (2 Bft) 92,59 %
23.02.2016 16:54 10,0 C 73 % 1005,1 hPa 0,0 l/m 9,5 km/h (2 Bft) SW 215 0 min 0,000 mm 0,0 UV-I 25 W/m 5,4 C 7,9 C 12,9 km/h (3 Bft) 96,15 %
23.02.2016 16:55 10,0 C 72 % 1005,1 hPa 0,0 l/m 10,3 km/h (2 Bft) SW 227 0 min 0,000 mm 0,0 UV-I 26 W/m 5,2 C 7,4 C 14,5 km/h (3 Bft) 100,00 %
23.02.2016 16:58 10,0 C 73 % 1005,0 hPa 0,0 l/m 7,5 km/h (2 Bft) S-SW 207 0 min 0,000 mm 0,0 UV-I 28 W/m 5,4 C 9,2 C 9,7 km/h (2 Bft) 96,77 %
23.02.2016 16:59 9,9 C 73 % 1005,0 hPa 0,0 l/m 7,8 km/h (2 Bft) S 186 0 min 0,000 mm 0,0 UV-I 30 W/m 5,3 C 8,9 C 11,3 km/h (2 Bft) 100,00 %
23.02.2016 17:00 9,9 C 73 % 1005,0 hPa 0,0 l/m 6,9 km/h (2 Bft) S-SW 196 0 min 0,000 mm 0,0 UV-I 30 W/m 5,3 C 9,5 C 11,3 km/h (2 Bft) 96,15 %
23.02.2016 17:02 9,9 C 73 % 1005,0 hPa 0,0 l/m 7,9 km/h (2 Bft) S-SW 211 0 min 0,051 mm 0,0 UV-I 29 W/m 5,3 C 8,8 C 14,5 km/h (3 Bft) 97,73 %
23.02.2016 17:03 9,9 C 74 % 1004,9 hPa 0,0 l/m 9,3 km/h (2 Bft) S-SW 198 0 min 0,000 mm 0,0 UV-I 27 W/m 5,5 C 7,9 C 12,9 km/h (3 Bft) 100,00 %
23.02.2016 17:04 9,9 C 74 % 1005,0 hPa 0,0 l/m 11,7 km/h (2 Bft) SW 215 0 min 0,000 mm 0,0 UV-I 25 W/m 5,5 C 6,6 C 16,1 km/h (3 Bft) 96,15 %
23.02.2016 17:05 9,9 C 74 % 1005,0 hPa 0,0 l/m 8,2 km/h (2 Bft) S-SO 166 0 min 0,000 mm 0,0 UV-I 25 W/m 5,5 C 8,6 C 14,5 km/h (3 Bft) 100,00 %
23.02.2016 17:06 9,9 C 74 % 1005,0 hPa 0,0 l/m 14,4 km/h (3 Bft) S-SW 194 0 min 0,000 mm 0,0 UV-I 23 W/m 5,5 C 5,3 C 22,5 km/h (4 Bft) 100,00 %
23.02.2016 17:07 9,8 C 74 % 1005,0 hPa 0,0 l/m 9,7 km/h (2 Bft) S 184 0 min 0,000 mm 0,0 UV-I 23 W/m 5,4 C 7,6 C 16,1 km/h (3 Bft) 100,00 %
23.02.2016 17:08 9,8 C 74 % 1005,0 hPa 0,0 l/m 11,3 km/h (2 Bft) S-SO 167 0 min 0,000 mm 0,0 UV-I 24 W/m 5,4 C 6,6 C 14,5 km/h (3 Bft) 96,30 %
23.02.2016 17:09 9,8 C 74 % 1005,0 hPa 0,0 l/m 7,5 km/h (2 Bft) S-SW 201 0 min 0,000 mm 0,0 UV-I 26 W/m 5,4 C 9,0 C 11,3 km/h (2 Bft) 100,00 %
23.02.2016 17:10 9,8 C 74 % 1004,9 hPa 0,0 l/m 11,9 km/h (2 Bft) W-SW 241 0 min 0,000 mm 0,0 UV-I 26 W/m 5,4 C 6,3 C 16,1 km/h (3 Bft) 100,00 %
23.02.2016 17:11 9,8 C 74 % 1005,0 hPa 0,0 l/m 11,9 km/h (2 Bft) S-SO 162 0 min 0,000 mm 0,0 UV-I 26 W/m 5,4 C 6,3 C 16,1 km/h (3 Bft) 96,15 %
23.02.2016 17:12 9,8 C 74 % 1004,9 hPa 0,0 l/m 12,3 km/h (3 Bft) S-SW 194 0 min 0,000 mm 0,0 UV-I 29 W/m 5,4 C 6,1 C 14,5 km/h (3 Bft) 100,00 %
23.02.2016 17:13 9,8 C 75 % 1005,0 hPa 0,0 l/m 8,0 km/h (2 Bft) S-SW 211 1 min 0,000 mm 0,0 UV-I 32 W/m 5,6 C 8,6 C 9,7 km/h (2 Bft) 100,00 %
23.02.2016 17:14 9,8 C 74 % 1004,9 hPa 0,0 l/m 9,9 km/h (2 Bft) S-SW 201 1 min 0,000 mm 0,0 UV-I 34 W/m 5,4 C 7,4 C 14,5 km/h (3 Bft) 95,83 %
23.02.2016 17:15 9,8 C 74 % 1004,9 hPa 0,0 l/m 6,6 km/h (2 Bft) SW 220 1 min 0,000 mm 0,0 UV-I 38 W/m 5,4 C 9,7 C 8,0 km/h (2 Bft) 100,00 %
23.02.2016 17:16 9,8 C 74 % 1005,0 hPa 0,0 l/m 8,5 km/h (2 Bft) S-SW 198 1 min 0,000 mm 0,0 UV-I 39 W/m 5,4 C 8,3 C 12,9 km/h (3 Bft) 100,00 %
23.02.2016 17:17 9,8 C 74 % 1004,9 hPa 0,0 l/m 6,7 km/h (2 Bft) S-SW 200 1 min 0,000 mm 0,0 UV-I 39 W/m 5,4 C 9,6 C 8,0 km/h (2 Bft) 100,00 %
23.02.2016 17:18 9,8 C 74 % 1004,9 hPa 0,0 l/m 8,9 km/h (2 Bft) SW 215 1 min 0,000 mm 0,0 UV-I 38 W/m 5,4 C 8,0 C 14,5 km/h (3 Bft) 100,00 %
23.02.2016 17:19 9,8 C 74 % 1004,9 hPa 0,0 l/m 6,3 km/h (2 Bft) W-SW 250 1 min 0,000 mm 0,0 UV-I 36 W/m 5,4 C 9,8 C 9,7 km/h (2 Bft) 96,15 %
23.02.2016 17:20 9,8 C 74 % 1004,9 hPa 0,0 l/m 6,3 km/h (2 Bft) SW 232 1 min 0,000 mm 0,0 UV-I 34 W/m 5,4 C 9,8 C 8,0 km/h (2 Bft) 100,00 %
23.02.2016 17:21 9,8 C 74 % 1004,9 hPa 0,0 l/m 7,2 km/h (2 Bft) SW 217 1 min 0,000 mm 0,0 UV-I 31 W/m 5,4 C 9,2 C 11,3 km/h (2 Bft) 100,00 %
23.02.2016 17:22 9,8 C 74 % 1004,9 hPa 0,0 l/m 8,9 km/h (2 Bft) SW 216 1 min 0,000 mm 0,0 UV-I 26 W/m 5,4 C 8,0 C 12,9 km/h (3 Bft) 100,00 %
23.02.2016 17:23 9,8 C 74 % 1004,9 hPa 0,0 l/m 6,7 km/h (2 Bft) W-SW 245 1 min 0,000 mm 0,0 UV-I 23 W/m 5,4 C 9,6 C 9,7 km/h (2 Bft) 96,15 %
23.02.2016 17:24 9,8 C 74 % 1004,9 hPa 0,0 l/m 7,2 km/h (2 Bft) S-SW 205 1 min 0,000 mm 0,0 UV-I 20 W/m 5,4 C 9,2 C 9,7 km/h (2 Bft) 96,30 %
23.02.2016 17:25 9,8 C 74 % 1004,9 hPa 0,0 l/m 9,3 km/h (2 Bft) SW 216 1 min 0,000 mm 0,0 UV-I 18 W/m 5,4 C 7,8 C 16,1 km/h (3 Bft) 100,00 %
23.02.2016 17:26 9,8 C 73 % 1004,9 hPa 0,0 l/m 17,4 km/h (3 Bft) W-SW 240 1 min 0,000 mm 0,0 UV-I 18 W/m 5,2 C 3,9 C 24,1 km/h (4 Bft) 100,00 %
23.02.2016 17:27 9,8 C 73 % 1005,0 hPa 0,0 l/m 14,7 km/h (3 Bft) S-SW 200 1 min 0,000 mm 0,0 UV-I 16 W/m 5,2 C 5,0 C 19,3 km/h (3 Bft) 100,00 %
23.02.2016 17:28 9,8 C 73 % 1005,0 hPa 0,0 l/m 11,3 km/h (2 Bft) W-SW 243 0 min 0,000 mm 0,0 UV-I 14 W/m 5,2 C 6,6 C 14,5 km/h (3 Bft) 100,00 %
23.02.2016 17:29 9,8 C 73 % 1005,0 hPa 0,0 l/m 16,0 km/h (3 Bft) SW 225 0 min 0,000 mm 0,0 UV-I 12 W/m 5,2 C 4,5 C 24,1 km/h (4 Bft) 100,00 %
23.02.2016 17:30 9,9 C 72 % 1004,9 hPa 0,0 l/m 21,6 km/h (4 Bft) W-SW 240 0 min 0,000 mm 0,0 UV-I 10 W/m 5,1 C 2,7 C 33,8 km/h (5 Bft) 100,00 %
23.02.2016 17:31 9,9 C 71 % 1005,0 hPa 0,0 l/m 16,4 km/h (3 Bft) SW 235 0 min 0,000 mm 0,0 UV-I 9 W/m 4,9 C 4,4 C 20,9 km/h (4 Bft) 93,33 %
23.02.2016 17:32 10,0 C 71 % 1005,0 hPa 0,0 l/m 15,0 km/h (3 Bft) S-SW 211 0 min 0,000 mm 0,0 UV-I 8 W/m 5,0 C 5,1 C 19,3 km/h (3 Bft) 100,00 %
23.02.2016 17:33 10,0 C 71 % 1005,1 hPa 0,0 l/m 19,3 km/h (3 Bft) W 259 0 min 0,000 mm 0,0 UV-I 7 W/m 5,0 C 3,5 C 32,2 km/h (5 Bft) 96,30 %
23.02.2016 17:34 10,1 C 70 % 1005,0 hPa 0,0 l/m 19,9 km/h (4 Bft) SW 233 0 min 0,000 mm 0,0 UV-I 5 W/m 4,9 C 3,4 C 27,4 km/h (4 Bft) 100,00 %
23.02.2016 17:35 10,1 C 71 % 1004,9 hPa 0,0 l/m 15,7 km/h (3 Bft) SW 223 0 min 0,000 mm 0,0 UV-I 5 W/m 5,1 C 5,0 C 24,1 km/h (4 Bft) 100,00 %
23.02.2016 17:36 10,1 C 71 % 1004,9 hPa 0,0 l/m 21,6 km/h (4 Bft) SW 233 0 min 0,000 mm 0,0 UV-I 3 W/m 5,1 C 2,9 C 37,0 km/h (5 Bft) 100,00 %
23.02.2016 17:37 10,2 C 70 % 1004,9 hPa 0,0 l/m 20,4 km/h (4 Bft) W-SW 252 0 min 0,000 mm 0,0 UV-I 0 W/m 5,0 C 3,4 C 29,0 km/h (5 Bft) 95,83 %
23.02.2016 17:38 10,2 C 69 % 1004,9 hPa 0,0 l/m 23,1 km/h (4 Bft) W 261 0 min 0,000 mm 0,0 UV-I 0 W/m 4,8 C 2,6 C 37,0 km/h (5 Bft) 100,00 %
23.02.2016 17:39 10,2 C 69 % 1005,0 hPa 0,0 l/m 24,6 km/h (4 Bft) SW 228 0 min 0,000 mm 0,0 UV-I 0 W/m 4,8 C 2,2 C 33,8 km/h (5 Bft) 100,00 %
23.02.2016 17:40 10,2 C 69 % 1005,0 hPa 0,0 l/m 29,4 km/h (5 Bft) SW 225 0 min 0,000 mm 0,0 UV-I 0 W/m 4,8 C 1,1 C 43,5 km/h (6 Bft) 100,00 %
23.02.2016 17:41 10,3 C 69 % 1005,0 hPa 0,0 l/m 28,2 km/h (4 Bft) W 261 0 min 0,000 mm 0,0 UV-I 0 W/m 4,9 C 1,5 C 38,6 km/h (5 Bft) 93,33 %
23.02.2016 17:42 10,3 C 71 % 1005,1 hPa 0,0 l/m 25,0 km/h (4 Bft) SW 225 0 min 0,000 mm 0,0 UV-I 0 W/m 5,3 C 2,2 C 32,2 km/h (5 Bft) 100,00 %
23.02.2016 17:43 10,2 C 73 % 1005,2 hPa 0,0 l/m 19,9 km/h (4 Bft) W-SW 258 0 min 0,000 mm 0,0 UV-I 0 W/m 5,6 C 3,6 C 29,0 km/h (5 Bft) 100,00 %
23.02.2016 17:44 10,2 C 73 % 1005,3 hPa 0,0 l/m 16,4 km/h (3 Bft) W-NW 298 0 min 0,000 mm 0,0 UV-I 0 W/m 5,6 C 4,8 C 22,5 km/h (4 Bft) 96,55 %
23.02.2016 17:45 10,1 C 74 % 1005,5 hPa 0,0 l/m 10,6 km/h (2 Bft) W-SW 249 0 min 0,000 mm 0,0 UV-I 0 W/m 5,7 C 7,4 C 17,7 km/h (3 Bft) 100,00 %
23.02.2016 17:46 10,0 C 75 % 1005,5 hPa 0,0 l/m 8,8 km/h (2 Bft) W 278 0 min 0,000 mm 0,0 UV-I 0 W/m 5,8 C 8,3 C 17,7 km/h (3 Bft) 100,00 %
23.02.2016 17:47 9,8 C 76 % 1005,7 hPa 0,0 l/m 14,2 km/h (3 Bft) W 259 0 min 0,000 mm 0,0 UV-I 0 W/m 5,8 C 5,2 C 30,6 km/h (5 Bft) 100,00 %
23.02.2016 17:48 9,7 C 77 % 1005,8 hPa 0,0 l/m 11,3 km/h (2 Bft) W 273 0 min 0,000 mm 0,0 UV-I 0 W/m 5,9 C 6,5 C 20,9 km/h (4 Bft) 96,30 %
23.02.2016 17:49 9,4 C 79 % 1005,8 hPa 0,0 l/m 13,4 km/h (3 Bft) W-SW 252 0 min 0,000 mm 0,0 UV-I 0 W/m 5,9 C 5,1 C 29,0 km/h (5 Bft) 100,00 %
23.02.2016 17:50 9,2 C 79 % 1005,9 hPa 0,0 l/m 9,8 km/h (2 Bft) W 264 0 min 0,000 mm 0,0 UV-I 0 W/m 5,8 C 6,8 C 17,7 km/h (3 Bft) 100,00 %
23.02.2016 17:51 8,9 C 79 % 1005,9 hPa 0,0 l/m 14,2 km/h (3 Bft) N-NW 336 0 min 0,000 mm 0,0 UV-I 0 W/m 5,5 C 4,2 C 24,1 km/h (4 Bft) 100,00 %
23.02.2016 17:52 8,7 C 80 % 1005,9 hPa 0,0 l/m 13,0 km/h (3 Bft) W 275 0 min 0,000 mm 0,0 UV-I 0 W/m 5,4 C 4,5 C 27,4 km/h (4 Bft) 100,00 %
23.02.2016 17:53 8,5 C 80 % 1006,0 hPa 0,0 l/m 10,2 km/h (2 Bft) W-NW 284 0 min 0,000 mm 0,0 UV-I 0 W/m 5,3 C 5,8 C 19,3 km/h (3 Bft) 100,00 %
23.02.2016 17:54 8,3 C 81 % 1006,0 hPa 0,0 l/m 18,7 km/h (3 Bft) W-NW 289 0 min 0,000 mm 0,0 UV-I 0 W/m 5,2 C 1,6 C 32,2 km/h (5 Bft) 100,00 %
23.02.2016 17:55 8,1 C 82 % 1006,0 hPa 0,0 l/m 14,0 km/h (3 Bft) N-NW 342 0 min 0,000 mm 0,0 UV-I 0 W/m 5,2 C 3,3 C 24,1 km/h (4 Bft) 100,00 %
23.02.2016 17:56 7,9 C 82 % 1006,0 hPa 0,0 l/m 10,8 km/h (2 Bft) W 271 0 min 0,000 mm 0,0 UV-I 0 W/m 5,0 C 4,8 C 19,3 km/h (3 Bft) 100,00 %
23.02.2016 17:57 7,8 C 83 % 1006,2 hPa 0,0 l/m 14,6 km/h (3 Bft) W-NW 284 0 min 0,000 mm 0,0 UV-I 0 W/m 5,1 C 2,7 C 20,9 km/h (4 Bft) 100,00 %
23.02.2016 17:58 7,7 C 83 % 1006,2 hPa 0,0 l/m 17,4 km/h (3 Bft) W 265 0 min 0,000 mm 0,0 UV-I 0 W/m 5,0 C 1,3 C 29,0 km/h (5 Bft) 95,83 %
23.02.2016 17:59 7,6 C 83 % 1006,3 hPa 0,0 l/m 17,5 km/h (3 Bft) W-SW 251 0 min 0,000 mm 0,0 UV-I 0 W/m 4,9 C 1,1 C 25,7 km/h (4 Bft) 100,00 %
23.02.2016 18:00 7,5 C 83 % 1006,4 hPa 0,0 l/m 12,8 km/h (3 Bft) W-NW 300 0 min 0,000 mm 0,0 UV-I 0 W/m 4,8 C 3,2 C 27,4 km/h (4 Bft) 100,00 %
23.02.2016 18:02 7,2 C 85 % 1006,4 hPa 0,0 l/m 8,1 km/h (2 Bft) NW 319 0 min 0,050 mm 0,0 UV-I 0 W/m 4,9 C 5,8 C 16,1 km/h (3 Bft) 100,00 %
23.02.2016 18:03 7,1 C 85 % 1006,4 hPa 0,0 l/m 13,2 km/h (3 Bft) W-NW 293 0 min 0,000 mm 0,0 UV-I 0 W/m 4,8 C 2,5 C 17,7 km/h (3 Bft) 96,55 %
23.02.2016 18:04 7,0 C 86 % 1006,4 hPa 0,2 l/m 7,5 km/h (2 Bft) W-NW 298 0 min 0,000 mm 0,0 UV-I 0 W/m 4,8 C 6,1 C 12,9 km/h (3 Bft) 100,00 %
23.02.2016 18:05 6,8 C 86 % 1006,5 hPa 0,0 l/m 12,2 km/h (2 Bft) W-NW 288 0 min 0,000 mm 0,0 UV-I 0 W/m 4,6 C 2,7 C 19,3 km/h (3 Bft) 100,00 %
23.02.2016 18:06 6,8 C 86 % 1006,6 hPa 0,0 l/m 10,6 km/h (2 Bft) NW 314 0 min 0,000 mm 0,0 UV-I 0 W/m 4,6 C 3,7 C 20,9 km/h (4 Bft) 100,00 %
23.02.2016 18:07 6,7 C 87 % 1006,5 hPa 0,0 l/m 14,5 km/h (3 Bft) W 269 0 min 0,000 mm 0,0 UV-I 0 W/m 4,7 C 1,4 C 25,7 km/h (4 Bft) 100,00 %
23.02.2016 18:08 6,7 C 87 % 1006,7 hPa 0,0 l/m 12,0 km/h (2 Bft) W 269 0 min 0,000 mm 0,0 UV-I 0 W/m 4,7 C 2,7 C 19,3 km/h (3 Bft) 100,00 %
23.02.2016 18:09 6,6 C 88 % 1006,7 hPa 0,0 l/m 11,2 km/h (2 Bft) W 275 0 min 0,000 mm 0,0 UV-I 0 W/m 4,8 C 3,1 C 17,7 km/h (3 Bft) 100,00 %
23.02.2016 18:10 6,5 C 88 % 1006,8 hPa 0,0 l/m 11,8 km/h (2 Bft) W 275 0 min 0,000 mm 0,0 UV-I 0 W/m 4,7 C 2,6 C 16,1 km/h (3 Bft) 100,00 %
23.02.2016 18:11 6,4 C 88 % 1006,9 hPa 0,0 l/m 7,5 km/h (2 Bft) W 272 0 min 0,000 mm 0,0 UV-I 0 W/m 4,6 C 5,5 C 16,1 km/h (3 Bft) 100,00 %
23.02.2016 18:12 6,4 C 89 % 1007,0 hPa 0,0 l/m 14,1 km/h (3 Bft) W-NW 298 0 min 0,000 mm 0,0 UV-I 0 W/m 4,7 C 1,2 C 22,5 km/h (4 Bft) 100,00 %
23.02.2016 18:13 6,4 C 89 % 1006,9 hPa 0,0 l/m 11,8 km/h (2 Bft) W 273 0 min 0,000 mm 0,0 UV-I 0 W/m 4,7 C 2,5 C 22,5 km/h (4 Bft) 100,00 %
23.02.2016 18:14 6,3 C 88 % 1006,9 hPa 0,0 l/m 8,8 km/h (2 Bft) W-NW 284 0 min 0,000 mm 0,0 UV-I 0 W/m 4,5 C 4,4 C 16,1 km/h (3 Bft) 100,00 %
23.02.2016 18:15 6,3 C 88 % 1007,0 hPa 0,0 l/m 8,0 km/h (2 Bft) W-SW 247 0 min 0,000 mm 0,0 UV-I 0 W/m 4,5 C 5,0 C 17,7 km/h (3 Bft) 100,00 %
23.02.2016 18:16 6,3 C 89 % 1007,0 hPa 0,0 l/m 11,6 km/h (2 Bft) W-NW 301 0 min 0,000 mm 0,0 UV-I 0 W/m 4,6 C 2,5 C 24,1 km/h (4 Bft) 96,55 %
23.02.2016 18:17 6,2 C 89 % 1007,0 hPa 0,0 l/m 16,8 km/h (3 Bft) NW 311 0 min 0,000 mm 0,0 UV-I 0 W/m 4,5 C -0,3 C 24,1 km/h (4 Bft) 100,00 %
23.02.2016 18:18 6,2 C 88 % 1007,0 hPa 0,0 l/m 13,0 km/h (3 Bft) W-NW 300 0 min 0,000 mm 0,0 UV-I 0 W/m 4,4 C 1,6 C 25,7 km/h (4 Bft) 100,00 %
23.02.2016 18:19 6,2 C 88 % 1006,9 hPa 0,0 l/m 16,4 km/h (3 Bft) W-NW 295 0 min 0,000 mm 0,0 UV-I 0 W/m 4,4 C -0,1 C 29,0 km/h (5 Bft) 100,00 %
23.02.2016 18:20 6,1 C 88 % 1007,1 hPa 0,0 l/m 9,5 km/h (2 Bft) W 273 0 min 0,000 mm 0,0 UV-I 0 W/m 4,3 C 3,6 C 19,3 km/h (3 Bft) 96,15 %
23.02.2016 18:21 6,1 C 88 % 1007,1 hPa 0,0 l/m 18,1 km/h (3 Bft) W-NW 286 0 min 0,000 mm 0,0 UV-I 0 W/m 4,3 C -1,0 C 25,7 km/h (4 Bft) 100,00 %
23.02.2016 18:22 6,1 C 88 % 1007,1 hPa 0,0 l/m 10,4 km/h (2 Bft) NW 325 0 min 0,000 mm 0,0 UV-I 0 W/m 4,3 C 3,0 C 19,3 km/h (3 Bft) 100,00 %
23.02.2016 18:23 6,1 C 88 % 1007,0 hPa 0,0 l/m 9,9 km/h (2 Bft) W-SW 244 0 min 0,000 mm 0,0 UV-I 0 W/m 4,3 C 3,4 C 22,5 km/h (4 Bft) 100,00 %
23.02.2016 18:24 6,0 C 89 % 1007,1 hPa 0,0 l/m 13,8 km/h (3 Bft) W 275 0 min 0,000 mm 0,0 UV-I 0 W/m 4,3 C 0,9 C 27,4 km/h (4 Bft) 100,00 %
23.02.2016 18:25 6,0 C 88 % 1007,1 hPa 0,0 l/m 15,4 km/h (3 Bft) NW 311 0 min 0,000 mm 0,0 UV-I 0 W/m 4,2 C 0,1 C 30,6 km/h (5 Bft) 100,00 %
23.02.2016 18:26 5,9 C 88 % 1007,1 hPa 0,0 l/m 7,2 km/h (2 Bft) W 279 0 min 0,000 mm 0,0 UV-I 0 W/m 4,1 C 5,2 C 14,5 km/h (3 Bft) 100,00 %
23.02.2016 18:27 5,9 C 88 % 1007,2 hPa 0,2 l/m 19,2 km/h (3 Bft) W 263 0 min 0,000 mm 0,0 UV-I 0 W/m 4,1 C -1,7 C 29,0 km/h (5 Bft) 100,00 %
23.02.2016 18:28 5,9 C 88 % 1007,1 hPa 0,0 l/m 18,8 km/h (3 Bft) W 281 0 min 0,000 mm 0,0 UV-I 0 W/m 4,1 C -1,5 C 32,2 km/h (5 Bft) 100,00 %
23.02.2016 18:29 5,9 C 88 % 1007,2 hPa 0,0 l/m 12,2 km/h (2 Bft) W 264 0 min 0,000 mm 0,0 UV-I 0 W/m 4,1 C 1,7 C 20,9 km/h (4 Bft) 100,00 %
23.02.2016 18:30 5,9 C 89 % 1007,2 hPa 0,0 l/m 11,8 km/h (2 Bft) W 281 0 min 0,000 mm 0,0 UV-I 0 W/m 4,2 C 1,9 C 17,7 km/h (3 Bft) 96,30 %
23.02.2016 18:31 5,8 C 89 % 1007,3 hPa 0,0 l/m 8,7 km/h (2 Bft) SW 231 0 min 0,000 mm 0,0 UV-I 0 W/m 4,1 C 3,9 C 14,5 km/h (3 Bft) 100,00 %
23.02.2016 18:32 5,8 C 89 % 1007,3 hPa 0,0 l/m 15,2 km/h (3 Bft) W 263 0 min 0,000 mm 0,0 UV-I 0 W/m 4,1 C -0,1 C 19,3 km/h (3 Bft) 100,00 %
23.02.2016 18:33 5,8 C 89 % 1007,4 hPa 0,0 l/m 12,7 km/h (3 Bft) W 275 0 min 0,000 mm 0,0 UV-I 0 W/m 4,1 C 1,3 C 19,3 km/h (3 Bft) 94,12 %
23.02.2016 18:34 5,8 C 89 % 1007,4 hPa 0,0 l/m 13,0 km/h (3 Bft) W-SW 254 0 min 0,000 mm 0,0 UV-I 0 W/m 4,1 C 1,1 C 17,7 km/h (3 Bft) 100,00 %
23.02.2016 18:35 5,8 C 89 % 1007,5 hPa 0,0 l/m 15,6 km/h (3 Bft) NW 317 0 min 0,000 mm 0,0 UV-I 0 W/m 4,1 C -0,2 C 20,9 km/h (4 Bft) 95,65 %
23.02.2016 18:36 5,8 C 89 % 1007,5 hPa 0,0 l/m 10,7 km/h (2 Bft) W 259 0 min 0,000 mm 0,0 UV-I 0 W/m 4,1 C 2,5 C 17,7 km/h (3 Bft) 100,00 %
23.02.2016 18:37 5,8 C 89 % 1007,6 hPa 0,0 l/m 14,9 km/h (3 Bft) W 261 0 min 0,000 mm 0,0 UV-I 0 W/m 4,1 C 0,1 C 19,3 km/h (3 Bft) 94,12 %
23.02.2016 18:38 5,8 C 89 % 1007,6 hPa 0,0 l/m 9,7 km/h (2 Bft) W 265 0 min 0,000 mm 0,0 UV-I 0 W/m 4,1 C 3,2 C 17,7 km/h (3 Bft) 100,00 %
23.02.2016 18:39 5,8 C 89 % 1007,7 hPa 0,0 l/m 12,3 km/h (3 Bft) W 269 0 min 0,000 mm 0,0 UV-I 0 W/m 4,1 C 1,5 C 16,1 km/h (3 Bft) 92,31 %
23.02.2016 18:40 5,8 C 89 % 1007,7 hPa 0,0 l/m 10,0 km/h (2 Bft) W 281 0 min 0,000 mm 0,0 UV-I 0 W/m 4,1 C 3,0 C 19,3 km/h (3 Bft) 95,83 %
23.02.2016 18:41 5,8 C 89 % 1007,7 hPa 0,0 l/m 8,9 km/h (2 Bft) W 270 0 min 0,000 mm 0,0 UV-I 0 W/m 4,1 C 3,7 C 14,5 km/h (3 Bft) 96,15 %
23.02.2016 18:42 5,7 C 89 % 1007,8 hPa 0,0 l/m 16,1 km/h (3 Bft) W-NW 303 0 min 0,000 mm 0,0 UV-I 0 W/m 4,0 C -0,6 C 19,3 km/h (3 Bft) 91,67 %
23.02.2016 18:43 5,7 C 89 % 1007,8 hPa 0,0 l/m 17,8 km/h (3 Bft) W-SW 250 0 min 0,000 mm 0,0 UV-I 0 W/m 4,0 C -1,4 C 29,0 km/h (5 Bft) 100,00 %
23.02.2016 18:44 5,7 C 89 % 1007,9 hPa 0,0 l/m 12,9 km/h (3 Bft) W 272 0 min 0,000 mm 0,0 UV-I 0 W/m 4,0 C 1,0 C 17,7 km/h (3 Bft) 91,67 %
23.02.2016 18:45 5,7 C 89 % 1007,9 hPa 0,0 l/m 13,8 km/h (3 Bft) W-NW 284 0 min 0,000 mm 0,0 UV-I 0 W/m 4,0 C 0,5 C 24,1 km/h (4 Bft) 96,15 %
23.02.2016 18:46 5,7 C 89 % 1008,0 hPa 0,0 l/m 14,5 km/h (3 Bft) W-SW 251 0 min 0,000 mm 0,0 UV-I 0 W/m 4,0 C 0,2 C 17,7 km/h (3 Bft) 96,30 %
23.02.2016 18:47 5,7 C 89 % 1008,0 hPa 0,0 l/m 16,2 km/h (3 Bft) W 262 0 min 0,000 mm 0,0 UV-I 0 W/m 4,0 C -0,7 C 22,5 km/h (4 Bft) 100,00 %
23.02.2016 18:48 5,7 C 89 % 1008,1 hPa 0,0 l/m 14,7 km/h (3 Bft) W-NW 295 0 min 0,000 mm 0,0 UV-I 0 W/m 4,0 C 0,1 C 22,5 km/h (4 Bft) 95,65 %
23.02.2016 18:49 5,7 C 89 % 1008,1 hPa 0,0 l/m 19,1 km/h (3 Bft) W 263 0 min 0,000 mm 0,0 UV-I 0 W/m 4,0 C -1,9 C 30,6 km/h (5 Bft) 100,00 %
23.02.2016 18:50 5,6 C 89 % 1008,3 hPa 0,0 l/m 11,3 km/h (2 Bft) N-NW 344 0 min 0,000 mm 0,0 UV-I 0 W/m 3,9 C 1,9 C 17,7 km/h (3 Bft) 96,55 %
23.02.2016 18:51 5,6 C 89 % 1008,3 hPa 0,0 l/m 18,3 km/h (3 Bft) W-NW 301 0 min 0,000 mm 0,0 UV-I 0 W/m 3,9 C -1,7 C 22,5 km/h (4 Bft) 96,97 %
23.02.2016 18:52 5,6 C 89 % 1008,3 hPa 0,0 l/m 15,0 km/h (3 Bft) W 261 0 min 0,000 mm 0,0 UV-I 0 W/m 3,9 C -0,2 C 20,9 km/h (4 Bft) 100,00 %
23.02.2016 18:53 5,6 C 88 % 1008,4 hPa 0,0 l/m 15,0 km/h (3 Bft) W 273 0 min 0,000 mm 0,0 UV-I 0 W/m 3,8 C -0,2 C 32,2 km/h (5 Bft) 91,67 %
23.02.2016 18:54 5,6 C 88 % 1008,4 hPa 0,0 l/m 22,3 km/h (4 Bft) W-NW 294 0 min 0,000 mm 0,0 UV-I 0 W/m 3,8 C -3,2 C 33,8 km/h (5 Bft) 96,15 %
23.02.2016 18:55 5,6 C 88 % 1008,4 hPa 0,0 l/m 15,2 km/h (3 Bft) W 261 0 min 0,000 mm 0,0 UV-I 0 W/m 3,8 C -0,3 C 19,3 km/h (3 Bft) 96,30 %
23.02.2016 18:56 5,6 C 88 % 1008,5 hPa 0,0 l/m 16,7 km/h (3 Bft) W-NW 288 0 min 0,000 mm 0,0 UV-I 0 W/m 3,8 C -1,0 C 20,9 km/h (4 Bft) 95,65 %
23.02.2016 18:57 5,5 C 88 % 1008,5 hPa 0,0 l/m 16,3 km/h (3 Bft) W 259 0 min 0,000 mm 0,0 UV-I 0 W/m 3,7 C -0,9 C 20,9 km/h (4 Bft) 100,00 %
23.02.2016 18:58 5,5 C 88 % 1008,6 hPa 0,0 l/m 15,2 km/h (3 Bft) W-NW 297 0 min 0,000 mm 0,0 UV-I 0 W/m 3,7 C -0,4 C 22,5 km/h (4 Bft) 95,65 %
23.02.2016 18:59 5,5 C 88 % 1008,6 hPa 0,0 l/m 17,5 km/h (3 Bft) W 277 0 min 0,000 mm 0,0 UV-I 0 W/m 3,7 C -1,5 C 20,9 km/h (4 Bft) 100,00 %
23.02.2016 19:00 5,5 C 88 % 1008,7 hPa 0,0 l/m 14,2 km/h (3 Bft) W 276 0 min 0,000 mm 0,0 UV-I 0 W/m 3,7 C 0,1 C 19,3 km/h (3 Bft) 92,31 %
23.02.2016 19:01 5,4 C 88 % 1008,6 hPa 0,0 l/m 15,4 km/h (3 Bft) W-SW 257 0 min 0,026 mm 0,0 UV-I 0 W/m 3,6 C -0,6 C 25,7 km/h (4 Bft) 100,00 %
23.02.2016 19:02 5,4 C 88 % 1008,6 hPa 0,0 l/m 15,2 km/h (3 Bft) W-SW 250 0 min 0,000 mm 0,0 UV-I 0 W/m 3,6 C -0,5 C 20,9 km/h (4 Bft) 86,67 %
23.02.2016 19:03 5,4 C 88 % 1008,8 hPa 0,0 l/m 14,2 km/h (3 Bft) W-SW 257 0 min 0,000 mm 0,0 UV-I 0 W/m 3,6 C -0,0 C 17,7 km/h (3 Bft) 96,55 %
23.02.2016 19:04 5,4 C 88 % 1008,8 hPa 0,0 l/m 16,1 km/h (3 Bft) W-NW 290 0 min 0,000 mm 0,0 UV-I 0 W/m 3,6 C -1,0 C 25,7 km/h (4 Bft) 96,15 %
23.02.2016 19:05 5,4 C 88 % 1008,8 hPa 0,0 l/m 15,0 km/h (3 Bft) W-NW 282 0 min 0,000 mm 0,0 UV-I 0 W/m 3,6 C -0,4 C 30,6 km/h (5 Bft) 96,30 %
23.02.2016 19:06 5,4 C 88 % 1008,9 hPa 0,0 l/m 17,6 km/h (3 Bft) W 272 0 min 0,000 mm 0,0 UV-I 0 W/m 3,6 C -1,7 C 24,1 km/h (4 Bft) 100,00 %
23.02.2016 19:07 5,3 C 88 % 1008,9 hPa 0,0 l/m 19,5 km/h (3 Bft) W-SW 248 0 min 0,000 mm 0,0 UV-I 0 W/m 3,5 C -2,6 C 30,6 km/h (5 Bft) 95,83 %
23.02.2016 19:08 5,4 C 87 % 1008,9 hPa 0,0 l/m 22,8 km/h (4 Bft) W 271 0 min 0,000 mm 0,0 UV-I 0 W/m 3,4 C -3,7 C 32,2 km/h (5 Bft) 100,00 %
23.02.2016 19:09 5,3 C 87 % 1008,9 hPa 0,0 l/m 13,7 km/h (3 Bft) W-SW 253 0 min 0,000 mm 0,0 UV-I 0 W/m 3,3 C 0,1 C 19,3 km/h (3 Bft) 96,55 %
23.02.2016 19:10 5,3 C 87 % 1009,0 hPa 0,0 l/m 17,8 km/h (3 Bft) SW 225 0 min 0,000 mm 0,0 UV-I 0 W/m 3,3 C -1,9 C 24,1 km/h (4 Bft) 96,30 %
23.02.2016 19:11 5,3 C 87 % 1009,0 hPa 0,0 l/m 17,9 km/h (3 Bft) W 280 0 min 0,000 mm 0,0 UV-I 0 W/m 3,3 C -1,9 C 25,7 km/h (4 Bft) 100,00 %
23.02.2016 19:12 5,3 C 88 % 1009,1 hPa 0,0 l/m 19,5 km/h (3 Bft) W-SW 250 0 min 0,000 mm 0,0 UV-I 0 W/m 3,5 C -2,6 C 29,0 km/h (5 Bft) 94,44 %
23.02.2016 19:13 5,3 C 87 % 1009,1 hPa 0,0 l/m 18,4 km/h (3 Bft) W-SW 244 0 min 0,000 mm 0,0 UV-I 0 W/m 3,3 C -2,1 C 32,2 km/h (5 Bft) 96,15 %
23.02.2016 19:14 5,3 C 87 % 1009,1 hPa 0,0 l/m 25,5 km/h (4 Bft) W 264 0 min 0,000 mm 0,0 UV-I 0 W/m 3,3 C -4,7 C 30,6 km/h (5 Bft) 100,00 %
23.02.2016 19:15 5,3 C 86 % 1009,2 hPa 0,0 l/m 21,7 km/h (4 Bft) W 275 0 min 0,000 mm 0,0 UV-I 0 W/m 3,2 C -3,4 C 27,4 km/h (4 Bft) 100,00 %
23.02.2016 19:16 5,3 C 87 % 1009,2 hPa 0,0 l/m 16,4 km/h (3 Bft) W-SW 250 0 min 0,000 mm 0,0 UV-I 0 W/m 3,3 C -1,2 C 27,4 km/h (4 Bft) 96,30 %
23.02.2016 19:17 5,3 C 87 % 1009,3 hPa 0,0 l/m 18,1 km/h (3 Bft) W 265 0 min 0,000 mm 0,0 UV-I 0 W/m 3,3 C -2,0 C 24,1 km/h (4 Bft) 100,00 %
23.02.2016 19:18 5,3 C 87 % 1009,3 hPa 0,0 l/m 14,6 km/h (3 Bft) W-SW 252 0 min 0,000 mm 0,0 UV-I 0 W/m 3,3 C -0,4 C 20,9 km/h (4 Bft) 97,56 %
23.02.2016 19:19 5,3 C 87 % 1009,4 hPa 0,0 l/m 14,8 km/h (3 Bft) SW 232 0 min 0,000 mm 0,0 UV-I 0 W/m 3,3 C -0,5 C 20,9 km/h (4 Bft) 100,00 %
23.02.2016 19:20 5,2 C 87 % 1009,4 hPa 0,0 l/m 17,6 km/h (3 Bft) SW 230 0 min 0,000 mm 0,0 UV-I 0 W/m 3,2 C -1,9 C 29,0 km/h (5 Bft) 100,00 %
23.02.2016 19:21 5,2 C 88 % 1009,5 hPa 0,0 l/m 23,2 km/h (4 Bft) W 261 0 min 0,000 mm 0,0 UV-I 0 W/m 3,4 C -4,1 C 33,8 km/h (5 Bft) 100,00 %
23.02.2016 19:22 5,2 C 88 % 1009,5 hPa 0,0 l/m 18,5 km/h (3 Bft) W 261 0 min 0,000 mm 0,0 UV-I 0 W/m 3,4 C -2,3 C 24,1 km/h (4 Bft) 100,00 %
23.02.2016 19:23 5,2 C 88 % 1009,6 hPa 0,0 l/m 23,1 km/h (4 Bft) W-SW 252 0 min 0,000 mm 0,0 UV-I 0 W/m 3,4 C -4,0 C 33,8 km/h (5 Bft) 100,00 %
23.02.2016 19:24 5,2 C 88 % 1009,7 hPa 0,0 l/m 19,6 km/h (3 Bft) W-NW 285 0 min 0,000 mm 0,0 UV-I 0 W/m 3,4 C -2,8 C 27,4 km/h (4 Bft) 100,00 %
23.02.2016 19:25 5,2 C 88 % 1009,8 hPa 0,0 l/m 16,5 km/h (3 Bft) W-SW 239 0 min 0,000 mm 0,0 UV-I 0 W/m 3,4 C -1,4 C 24,1 km/h (4 Bft) 100,00 %
23.02.2016 19:26 5,2 C 88 % 1009,9 hPa 0,0 l/m 27,4 km/h (4 Bft) W 269 0 min 0,000 mm 0,0 UV-I 0 W/m 3,4 C -5,4 C 35,4 km/h (5 Bft) 93,33 %
23.02.2016 19:27 5,1 C 87 % 1009,8 hPa 0,0 l/m 26,4 km/h (4 Bft) W 267 0 min 0,000 mm 0,0 UV-I 0 W/m 3,1 C -5,2 C 32,2 km/h (5 Bft) 98,56 %
23.02.2016 19:28 5,1 C 87 % 1009,9 hPa 0,0 l/m 25,7 km/h (4 Bft) W-SW 248 0 min 0,000 mm 0,0 UV-I 0 W/m 3,1 C -5,0 C 33,8 km/h (5 Bft) 98,56 %
23.02.2016 19:29 5,1 C 87 % 1009,9 hPa 0,0 l/m 20,5 km/h (4 Bft) W-SW 250 0 min 0,000 mm 0,0 UV-I 0 W/m 3,1 C -3,2 C 25,7 km/h (4 Bft) 98,75 %
23.02.2016 19:30 5,0 C 86 % 1010,0 hPa 0,0 l/m 26,5 km/h (4 Bft) W 265 0 min 0,000 mm 0,0 UV-I 0 W/m 2,9 C -5,4 C 37,0 km/h (5 Bft) 100,00 %
23.02.2016 19:31 4,9 C 86 % 1010,0 hPa 0,0 l/m 30,3 km/h (5 Bft) W 265 0 min 0,000 mm 0,0 UV-I 0 W/m 2,8 C -6,6 C 49,9 km/h (6 Bft) 100,00 %
23.02.2016 19:32 4,9 C 86 % 1010,1 hPa 0,0 l/m 24,6 km/h (4 Bft) W 268 0 min 0,000 mm 0,0 UV-I 0 W/m 2,8 C -5,0 C 33,8 km/h (5 Bft) 96,15 %
23.02.2016 19:33 4,8 C 85 % 1010,1 hPa 0,0 l/m 25,6 km/h (4 Bft) W 274 0 min 0,000 mm 0,0 UV-I 0 W/m 2,5 C -5,4 C 38,6 km/h (5 Bft) 100,00 %
23.02.2016 19:34 4,8 C 85 % 1010,1 hPa 0,0 l/m 25,1 km/h (4 Bft) W 277 0 min 0,000 mm 0,0 UV-I 0 W/m 2,5 C -5,2 C 29,0 km/h (5 Bft) 100,00 %
23.02.2016 19:35 4,7 C 85 % 1010,0 hPa 0,0 l/m 30,7 km/h (5 Bft) W 262 0 min 0,000 mm 0,0 UV-I 0 W/m 2,4 C -7,0 C 48,3 km/h (6 Bft) 100,00 %
23.02.2016 19:36 4,7 C 86 % 1010,2 hPa 0,0 l/m 23,1 km/h (4 Bft) W 279 0 min 0,000 mm 0,0 UV-I 0 W/m 2,6 C -4,7 C 35,4 km/h (5 Bft) 100,00 %
23.02.2016 19:37 4,6 C 86 % 1010,2 hPa 0,0 l/m 22,6 km/h (4 Bft) W 277 0 min 0,000 mm 0,0 UV-I 0 W/m 2,5 C -4,7 C 30,6 km/h (5 Bft) 100,00 %
23.02.2016 19:38 4,5 C 86 % 1010,3 hPa 0,0 l/m 25,7 km/h (4 Bft) W-SW 244 0 min 0,000 mm 0,0 UV-I 0 W/m 2,4 C -5,8 C 41,8 km/h (6 Bft) 100,00 %
23.02.2016 19:39 4,4 C 86 % 1010,2 hPa 0,2 l/m 32,3 km/h (5 Bft) W 267 0 min 0,000 mm 0,0 UV-I 0 W/m 2,3 C -7,8 C 43,5 km/h (6 Bft) 100,00 %
23.02.2016 19:40 4,4 C 86 % 1010,3 hPa 0,0 l/m 30,4 km/h (5 Bft) W 277 0 min 0,000 mm 0,0 UV-I 0 W/m 2,3 C -7,3 C 37,0 km/h (5 Bft) 100,00 %
23.02.2016 19:41 4,4 C 86 % 1010,4 hPa 0,0 l/m 22,0 km/h (4 Bft) W 271 0 min 0,000 mm 0,0 UV-I 0 W/m 2,3 C -4,7 C 32,2 km/h (5 Bft) 100,00 %
23.02.2016 19:42 4,3 C 87 % 1010,4 hPa 0,0 l/m 26,3 km/h (4 Bft) W 268 0 min 0,000 mm 0,0 UV-I 0 W/m 2,3 C -6,3 C 43,5 km/h (6 Bft) 100,00 %
23.02.2016 19:43 4,3 C 87 % 1010,5 hPa 0,0 l/m 22,3 km/h (4 Bft) W-SW 238 0 min 0,000 mm 0,0 UV-I 0 W/m 2,3 C -5,0 C 38,6 km/h (5 Bft) 100,00 %
23.02.2016 19:44 4,3 C 87 % 1010,4 hPa 0,0 l/m 27,7 km/h (4 Bft) W-NW 291 0 min 0,000 mm 0,0 UV-I 0 W/m 2,3 C -6,7 C 38,6 km/h (5 Bft) 100,00 %
23.02.2016 19:45 4,2 C 87 % 1010,5 hPa 0,0 l/m 22,4 km/h (4 Bft) W-SW 242 0 min 0,000 mm 0,0 UV-I 0 W/m 2,2 C -5,1 C 38,6 km/h (5 Bft) 100,00 %
23.02.2016 19:46 4,2 C 87 % 1010,5 hPa 0,0 l/m 25,3 km/h (4 Bft) W 268 0 min 0,000 mm 0,0 UV-I 0 W/m 2,2 C -6,1 C 33,8 km/h (5 Bft) 95,65 %
23.02.2016 19:47 4,2 C 87 % 1010,7 hPa 0,0 l/m 18,7 km/h (3 Bft) W 265 0 min 0,000 mm 0,0 UV-I 0 W/m 2,2 C -3,7 C 25,7 km/h (4 Bft) 100,00 %
23.02.2016 19:48 4,2 C 87 % 1010,7 hPa 0,0 l/m 20,6 km/h (4 Bft) W 275 0 min 0,000 mm 0,0 UV-I 0 W/m 2,2 C -4,4 C 29,0 km/h (5 Bft) 100,00 %
23.02.2016 19:49 4,2 C 88 % 1010,8 hPa 0,0 l/m 18,0 km/h (3 Bft) SW 226 0 min 0,000 mm 0,0 UV-I 0 W/m 2,4 C -3,4 C 25,7 km/h (4 Bft) 100,00 %
23.02.2016 19:50 4,1 C 88 % 1010,8 hPa 0,0 l/m 18,6 km/h (3 Bft) W 281 0 min 0,000 mm 0,0 UV-I 0 W/m 2,3 C -3,7 C 22,5 km/h (4 Bft) 100,00 %
23.02.2016 19:51 4,1 C 88 % 1010,8 hPa 0,0 l/m 16,9 km/h (3 Bft) W 272 0 min 0,000 mm 0,0 UV-I 0 W/m 2,3 C -3,0 C 38,6 km/h (5 Bft) 100,00 %
23.02.2016 19:52 4,1 C 89 % 1010,9 hPa 0,0 l/m 22,1 km/h (4 Bft) W 263 0 min 0,000 mm 0,0 UV-I 0 W/m 2,5 C -5,2 C 30,6 km/h (5 Bft) 98,59 %
23.02.2016 19:53 4,1 C 89 % 1010,9 hPa 0,0 l/m 26,2 km/h (4 Bft) W-NW 282 0 min 0,000 mm 0,0 UV-I 0 W/m 2,5 C -6,5 C 37,0 km/h (5 Bft) 100,00 %
23.02.2016 19:54 4,1 C 88 % 1010,9 hPa 0,0 l/m 26,2 km/h (4 Bft) SW 224 0 min 0,000 mm 0,0 UV-I 0 W/m 2,3 C -6,5 C 45,1 km/h (6 Bft) 100,00 %
23.02.2016 19:55 4,0 C 88 % 1010,9 hPa 0,0 l/m 20,3 km/h (4 Bft) W-SW 248 0 min 0,000 mm 0,0 UV-I 0 W/m 2,2 C -4,6 C 27,4 km/h (4 Bft) 100,00 %
23.02.2016 19:56 4,0 C 88 % 1011,0 hPa 0,0 l/m 15,6 km/h (3 Bft) W-SW 253 0 min 0,000 mm 0,0 UV-I 0 W/m 2,2 C -2,4 C 24,1 km/h (4 Bft) 91,67 %
23.02.2016 19:57 4,0 C 89 % 1011,1 hPa 0,0 l/m 16,5 km/h (3 Bft) W-SW 256 0 min 0,000 mm 0,0 UV-I 0 W/m 2,4 C -2,9 C 20,9 km/h (4 Bft) 100,00 %
23.02.2016 19:58 4,0 C 89 % 1011,1 hPa 0,0 l/m 18,4 km/h (3 Bft) W-SW 240 0 min 0,000 mm 0,0 UV-I 0 W/m 2,4 C -3,8 C 27,4 km/h (4 Bft) 100,00 %
23.02.2016 19:59 4,0 C 89 % 1011,2 hPa 0,2 l/m 19,6 km/h (3 Bft) W-SW 257 0 min 0,000 mm 0,0 UV-I 0 W/m 2,4 C -4,3 C 27,4 km/h (4 Bft) 95,65 %
23.02.2016 20:00 4,0 C 89 % 1011,2 hPa 0,0 l/m 23,0 km/h (4 Bft) SW 235 0 min 0,000 mm 0,0 UV-I 0 W/m 2,4 C -5,6 C 35,4 km/h (5 Bft) 100,00 %
23.02.2016 20:01 4,0 C 89 % 1011,2 hPa 0,0 l/m 23,3 km/h (4 Bft) W-SW 244 0 min 0,025 mm 0,0 UV-I 0 W/m 2,4 C -5,7 C 30,6 km/h (5 Bft) 100,00 %
23.02.2016 20:02 4,0 C 89 % 1011,3 hPa 0,0 l/m 19,9 km/h (4 Bft) W-SW 248 0 min 0,000 mm 0,0 UV-I 0 W/m 2,4 C -4,4 C 27,4 km/h (4 Bft) 96,55 %
23.02.2016 20:03 4,0 C 89 % 1011,4 hPa 0,0 l/m 23,6 km/h (4 Bft) W-SW 251 0 min 0,000 mm 0,0 UV-I 0 W/m 2,4 C -5,8 C 32,2 km/h (5 Bft) 100,00 %
23.02.2016 20:04 3,9 C 89 % 1011,3 hPa 0,0 l/m 19,8 km/h (3 Bft) W-SW 250 0 min 0,000 mm 0,0 UV-I 0 W/m 2,3 C -4,5 C 24,1 km/h (4 Bft) 100,00 %
23.02.2016 20:05 3,9 C 89 % 1011,5 hPa 0,0 l/m 24,6 km/h (4 Bft) W-SW 252 0 min 0,000 mm 0,0 UV-I 0 W/m 2,3 C -6,3 C 33,8 km/h (5 Bft) 100,00 %
23.02.2016 20:06 3,9 C 89 % 1011,4 hPa 0,0 l/m 21,5 km/h (4 Bft) SW 214 0 min 0,000 mm 0,0 UV-I 0 W/m 2,3 C -5,2 C 32,2 km/h (5 Bft) 100,00 %
23.02.2016 20:07 3,9 C 89 % 1011,5 hPa 0,0 l/m 17,1 km/h (3 Bft) W-SW 252 0 min 0,000 mm 0,0 UV-I 0 W/m 2,3 C -3,3 C 24,1 km/h (4 Bft) 100,00 %
23.02.2016 20:08 3,9 C 89 % 1011,7 hPa 0,0 l/m 21,9 km/h (4 Bft) W-SW 240 0 min 0,000 mm 0,0 UV-I 0 W/m 2,3 C -5,3 C 33,8 km/h (5 Bft) 93,33 %
23.02.2016 20:09 3,9 C 88 % 1011,6 hPa 0,0 l/m 17,9 km/h (3 Bft) W 266 0 min 0,000 mm 0,0 UV-I 0 W/m 2,1 C -3,7 C 29,0 km/h (5 Bft) 100,00 %
23.02.2016 20:10 3,8 C 89 % 1011,6 hPa 0,0 l/m 18,5 km/h (3 Bft) W-SW 255 0 min 0,000 mm 0,0 UV-I 0 W/m 2,2 C -4,1 C 29,0 km/h (5 Bft) 95,65 %
23.02.2016 20:11 3,8 C 89 % 1011,6 hPa 0,0 l/m 24,8 km/h (4 Bft) W 264 0 min 0,000 mm 0,0 UV-I 0 W/m 2,2 C -6,5 C 32,2 km/h (5 Bft) 100,00 %
23.02.2016 20:12 3,8 C 88 % 1011,7 hPa 0,0 l/m 21,5 km/h (4 Bft) W 265 0 min 0,000 mm 0,0 UV-I 0 W/m 2,0 C -5,3 C 30,6 km/h (5 Bft) 100,00 %
23.02.2016 20:13 3,8 C 88 % 1011,6 hPa 0,0 l/m 25,9 km/h (4 Bft) W-NW 287 0 min 0,000 mm 0,0 UV-I 0 W/m 2,0 C -6,9 C 40,2 km/h (6 Bft) 100,00 %
23.02.2016 20:14 3,8 C 88 % 1011,7 hPa 0,0 l/m 18,0 km/h (3 Bft) W-NW 283 0 min 0,000 mm 0,0 UV-I 0 W/m 2,0 C -3,9 C 30,6 km/h (5 Bft) 100,00 %
23.02.2016 20:15 3,8 C 88 % 1011,7 hPa 0,0 l/m 19,4 km/h (3 Bft) W-SW 256 0 min 0,000 mm 0,0 UV-I 0 W/m 2,0 C -4,5 C 30,6 km/h (5 Bft) 100,00 %
23.02.2016 20:16 3,7 C 88 % 1011,8 hPa 0,0 l/m 24,7 km/h (4 Bft) W 275 0 min 0,000 mm 0,0 UV-I 0 W/m 1,9 C -6,6 C 32,2 km/h (5 Bft) 100,00 %
23.02.2016 20:17 3,7 C 88 % 1011,6 hPa 0,0 l/m 26,8 km/h (4 Bft) W 267 0 min 0,000 mm 0,0 UV-I 0 W/m 1,9 C -7,3 C 40,2 km/h (6 Bft) 100,00 %
23.02.2016 20:18 3,7 C 88 % 1011,8 hPa 0,0 l/m 24,9 km/h (4 Bft) W 265 0 min 0,000 mm 0,0 UV-I 0 W/m 1,9 C -6,7 C 33,8 km/h (5 Bft) 100,00 %
23.02.2016 20:19 3,7 C 88 % 1011,8 hPa 0,0 l/m 23,7 km/h (4 Bft) W-SW 256 0 min 0,000 mm 0,0 UV-I 0 W/m 1,9 C -6,3 C 35,4 km/h (5 Bft) 96,30 %
23.02.2016 20:20 3,7 C 88 % 1012,0 hPa 0,0 l/m 15,9 km/h (3 Bft) W-SW 258 0 min 0,000 mm 0,0 UV-I 0 W/m 1,9 C -3,0 C 25,7 km/h (4 Bft) 100,00 %
23.02.2016 20:21 3,7 C 88 % 1012,0 hPa 0,0 l/m 22,8 km/h (4 Bft) W-SW 250 0 min 0,000 mm 0,0 UV-I 0 W/m 1,9 C -5,9 C 29,0 km/h (5 Bft) 100,00 %
23.02.2016 20:22 3,7 C 89 % 1012,0 hPa 0,0 l/m 20,4 km/h (4 Bft) W-SW 248 0 min 0,000 mm 0,0 UV-I 0 W/m 2,1 C -5,0 C 24,1 km/h (4 Bft) 100,00 %
23.02.2016 20:23 3,6 C 89 % 1012,0 hPa 0,0 l/m 25,7 km/h (4 Bft) W-SW 252 0 min 0,000 mm 0,0 UV-I 0 W/m 2,0 C -7,1 C 38,6 km/h (5 Bft) 100,00 %
23.02.2016 20:24 3,6 C 88 % 1012,0 hPa 0,0 l/m 19,5 km/h (3 Bft) SW 221 0 min 0,000 mm 0,0 UV-I 0 W/m 1,8 C -4,8 C 29,0 km/h (5 Bft) 100,00 %
23.02.2016 20:25 3,6 C 88 % 1012,1 hPa 0,0 l/m 20,0 km/h (4 Bft) W 272 0 min 0,000 mm 0,0 UV-I 0 W/m 1,8 C -5,0 C 29,0 km/h (5 Bft) 100,00 %
23.02.2016 20:26 3,6 C 89 % 1012,2 hPa 0,0 l/m 27,9 km/h (4 Bft) W-NW 301 0 min 0,000 mm 0,0 UV-I 0 W/m 2,0 C -7,7 C 38,6 km/h (5 Bft) 100,00 %
23.02.2016 20:27 3,6 C 89 % 1012,1 hPa 0,2 l/m 24,8 km/h (4 Bft) W 265 0 min 0,000 mm 0,0 UV-I 0 W/m 2,0 C -6,8 C 37,0 km/h (5 Bft) 100,00 %
23.02.2016 20:28 3,6 C 89 % 1012,2 hPa 0,0 l/m 20,5 km/h (4 Bft) W-SW 258 0 min 0,000 mm 0,0 UV-I 0 W/m 2,0 C -5,2 C 38,6 km/h (5 Bft) 100,00 %
23.02.2016 20:29 3,6 C 88 % 1012,4 hPa 0,0 l/m 29,9 km/h (5 Bft) SW 221 0 min 0,000 mm 0,0 UV-I 0 W/m 1,8 C -8,3 C 46,7 km/h (6 Bft) 100,00 %
23.02.2016 20:30 3,6 C 88 % 1012,2 hPa 0,0 l/m 24,1 km/h (4 Bft) W-SW 247 0 min 0,000 mm 0,0 UV-I 0 W/m 1,8 C -6,5 C 33,8 km/h (5 Bft) 100,00 %
23.02.2016 20:31 3,6 C 88 % 1012,3 hPa 0,0 l/m 26,1 km/h (4 Bft) W 266 0 min 0,000 mm 0,0 UV-I 0 W/m 1,8 C -7,2 C 33,8 km/h (5 Bft) 94,12 %
23.02.2016 20:32 3,6 C 88 % 1012,3 hPa 0,0 l/m 23,7 km/h (4 Bft) S-SW 211 0 min 0,000 mm 0,0 UV-I 0 W/m 1,8 C -6,4 C 38,6 km/h (5 Bft) 100,00 %
23.02.2016 20:33 3,5 C 88 % 1012,2 hPa 0,0 l/m 27,3 km/h (4 Bft) W-SW 240 0 min 0,000 mm 0,0 UV-I 0 W/m 1,7 C -7,7 C 45,1 km/h (6 Bft) 96,15 %
23.02.2016 20:34 3,6 C 88 % 1012,6 hPa 0,0 l/m 26,4 km/h (4 Bft) W 276 0 min 0,000 mm 0,0 UV-I 0 W/m 1,8 C -7,3 C 37,0 km/h (5 Bft) 100,00 %
23.02.2016 20:35 3,5 C 88 % 1012,5 hPa 0,0 l/m 23,7 km/h (4 Bft) W-SW 252 0 min 0,000 mm 0,0 UV-I 0 W/m 1,7 C -6,5 C 30,6 km/h (5 Bft) 100,00 %
23.02.2016 20:36 3,5 C 88 % 1012,5 hPa 0,0 l/m 17,3 km/h (3 Bft) W-NW 287 0 min 0,000 mm 0,0 UV-I 0 W/m 1,7 C -3,9 C 27,4 km/h (4 Bft) 100,00 %
23.02.2016 20:37 3,5 C 88 % 1012,5 hPa 0,0 l/m 21,3 km/h (4 Bft) W-SW 250 0 min 0,000 mm 0,0 UV-I 0 W/m 1,7 C -5,6 C 35,4 km/h (5 Bft) 100,00 %
23.02.2016 20:38 3,5 C 88 % 1012,5 hPa 0,0 l/m 23,7 km/h (4 Bft) W-NW 287 0 min 0,000 mm 0,0 UV-I 0 W/m 1,7 C -6,5 C 29,0 km/h (5 Bft) 100,00 %
23.02.2016 20:39 3,5 C 88 % 1012,6 hPa 0,0 l/m 23,3 km/h (4 Bft) W-SW 249 0 min 0,000 mm 0,0 UV-I 0 W/m 1,7 C -6,4 C 32,2 km/h (5 Bft) 96,15 %
23.02.2016 20:40 3,5 C 88 % 1012,5 hPa 0,0 l/m 20,8 km/h (4 Bft) W-NW 284 0 min 0,000 mm 0,0 UV-I 0 W/m 1,7 C -5,4 C 32,2 km/h (5 Bft) 96,30 %
23.02.2016 20:41 3,5 C 88 % 1012,6 hPa 0,0 l/m 21,2 km/h (4 Bft) W 273 0 min 0,000 mm 0,0 UV-I 0 W/m 1,7 C -5,6 C 29,0 km/h (5 Bft) 100,00 %
23.02.2016 20:42 3,5 C 88 % 1012,6 hPa 0,0 l/m 20,4 km/h (4 Bft) W 260 0 min 0,000 mm 0,0 UV-I 0 W/m 1,7 C -5,3 C 32,2 km/h (5 Bft) 91,67 %
23.02.2016 20:43 3,5 C 88 % 1012,7 hPa 0,0 l/m 18,3 km/h (3 Bft) W-NW 282 0 min 0,000 mm 0,0 UV-I 0 W/m 1,7 C -4,4 C 24,1 km/h (4 Bft) 100,00 %
23.02.2016 20:44 3,5 C 88 % 1012,8 hPa 0,0 l/m 16,9 km/h (3 Bft) W-NW 290 0 min 0,000 mm 0,0 UV-I 0 W/m 1,7 C -3,7 C 29,0 km/h (5 Bft) 96,30 %
23.02.2016 20:45 3,5 C 88 % 1012,7 hPa 0,0 l/m 20,1 km/h (4 Bft) W 265 0 min 0,000 mm 0,0 UV-I 0 W/m 1,7 C -5,2 C 29,0 km/h (5 Bft) 100,00 %
23.02.2016 20:46 3,5 C 88 % 1012,8 hPa 0,0 l/m 22,2 km/h (4 Bft) W 273 0 min 0,000 mm 0,0 UV-I 0 W/m 1,7 C -6,0 C 25,7 km/h (4 Bft) 96,67 %
23.02.2016 20:47 3,5 C 88 % 1012,8 hPa 0,0 l/m 15,8 km/h (3 Bft) W-SW 241 0 min 0,000 mm 0,0 UV-I 0 W/m 1,7 C -3,2 C 19,3 km/h (3 Bft) 100,00 %
23.02.2016 20:48 3,5 C 88 % 1012,9 hPa 0,0 l/m 21,7 km/h (4 Bft) W 263 0 min 0,000 mm 0,0 UV-I 0 W/m 1,7 C -5,8 C 25,7 km/h (4 Bft) 92,86 %
23.02.2016 20:49 3,5 C 88 % 1013,0 hPa 0,0 l/m 18,2 km/h (3 Bft) W 272 0 min 0,000 mm 0,0 UV-I 0 W/m 1,7 C -4,3 C 20,9 km/h (4 Bft) 100,00 %
23.02.2016 20:50 3,5 C 88 % 1013,0 hPa 0,0 l/m 20,9 km/h (4 Bft) W-SW 254 0 min 0,000 mm 0,0 UV-I 0 W/m 1,7 C -5,5 C 27,4 km/h (4 Bft) 96,15 %
23.02.2016 20:51 3,5 C 88 % 1013,1 hPa 0,0 l/m 20,8 km/h (4 Bft) SW 229 0 min 0,000 mm 0,0 UV-I 0 W/m 1,7 C -5,4 C 25,7 km/h (4 Bft) 96,67 %
23.02.2016 20:52 3,5 C 88 % 1013,1 hPa 0,0 l/m 21,5 km/h (4 Bft) SW 234 0 min 0,000 mm 0,0 UV-I 0 W/m 1,7 C -5,7 C 30,6 km/h (5 Bft) 92,86 %
23.02.2016 20:53 3,5 C 88 % 1013,1 hPa 0,0 l/m 19,5 km/h (3 Bft) SW 228 0 min 0,000 mm 0,0 UV-I 0 W/m 1,7 C -4,9 C 37,0 km/h (5 Bft) 95,83 %
23.02.2016 20:54 3,5 C 88 % 1013,1 hPa 0,0 l/m 14,9 km/h (3 Bft) W-SW 254 0 min 0,000 mm 0,0 UV-I 0 W/m 1,7 C -2,7 C 19,3 km/h (3 Bft) 100,00 %
23.02.2016 20:55 3,5 C 88 % 1013,2 hPa 0,0 l/m 17,9 km/h (3 Bft) W-SW 241 0 min 0,000 mm 0,0 UV-I 0 W/m 1,7 C -4,2 C 29,0 km/h (5 Bft) 95,83 %
23.02.2016 20:56 3,4 C 88 % 1013,2 hPa 0,0 l/m 20,6 km/h (4 Bft) W-NW 286 0 min 0,000 mm 0,0 UV-I 0 W/m 1,6 C -5,5 C 27,4 km/h (4 Bft) 96,55 %
23.02.2016 20:57 3,4 C 88 % 1013,2 hPa 0,0 l/m 20,0 km/h (4 Bft) W 262 0 min 0,000 mm 0,0 UV-I 0 W/m 1,6 C -5,2 C 24,1 km/h (4 Bft) 100,00 %
23.02.2016 20:58 3,4 C 89 % 1013,2 hPa 0,0 l/m 19,4 km/h (3 Bft) W-SW 246 0 min 0,000 mm 0,0 UV-I 0 W/m 1,8 C -5,0 C 24,1 km/h (4 Bft) 91,30 %
23.02.2016 20:59 3,4 C 88 % 1013,3 hPa 0,0 l/m 16,4 km/h (3 Bft) W 266 0 min 0,000 mm 0,0 UV-I 0 W/m 1,6 C -3,6 C 20,9 km/h (4 Bft) 100,00 %
23.02.2016 21:00 3,4 C 89 % 1013,3 hPa 0,0 l/m 17,2 km/h (3 Bft) W-SW 257 0 min 0,000 mm 0,0 UV-I 0 W/m 1,8 C -4,0 C 24,1 km/h (4 Bft) 95,65 %
23.02.2016 21:01 3,4 C 89 % 1013,3 hPa 0,0 l/m 24,1 km/h (4 Bft) W 265 0 min 0,026 mm 0,0 UV-I 0 W/m 1,8 C -6,8 C 30,6 km/h (5 Bft) 100,00 %
23.02.2016 21:02 3,4 C 89 % 1013,2 hPa 0,0 l/m 19,3 km/h (3 Bft) W 260 0 min 0,000 mm 0,0 UV-I 0 W/m 1,8 C -4,9 C 25,7 km/h (4 Bft) 96,55 %
23.02.2016 21:03 3,4 C 89 % 1013,3 hPa 0,0 l/m 19,2 km/h (3 Bft) W-SW 238 0 min 0,000 mm 0,0 UV-I 0 W/m 1,8 C -4,9 C 27,4 km/h (4 Bft) 96,30 %
23.02.2016 21:04 3,4 C 89 % 1013,3 hPa 0,0 l/m 17,5 km/h (3 Bft) W-SW 243 0 min 0,000 mm 0,0 UV-I 0 W/m 1,8 C -4,1 C 32,2 km/h (5 Bft) 93,33 %
23.02.2016 21:05 3,4 C 89 % 1013,3 hPa 0,0 l/m 26,1 km/h (4 Bft) W-SW 253 0 min 0,000 mm 0,0 UV-I 0 W/m 1,8 C -7,5 C 32,2 km/h (5 Bft) 100,00 %
23.02.2016 21:06 3,4 C 89 % 1013,4 hPa 0,0 l/m 14,7 km/h (3 Bft) W 261 0 min 0,000 mm 0,0 UV-I 0 W/m 1,8 C -2,7 C 22,5 km/h (4 Bft) 96,55 %
23.02.2016 21:07 3,3 C 89 % 1013,4 hPa 0,0 l/m 17,3 km/h (3 Bft) W-SW 238 0 min 0,000 mm 0,0 UV-I 0 W/m 1,7 C -4,2 C 22,5 km/h (4 Bft) 91,67 %
23.02.2016 21:08 3,3 C 89 % 1013,4 hPa 0,0 l/m 16,9 km/h (3 Bft) W-SW 242 0 min 0,000 mm 0,0 UV-I 0 W/m 1,7 C -4,0 C 24,1 km/h (4 Bft) 100,00 %
23.02.2016 21:09 3,3 C 89 % 1013,4 hPa 0,0 l/m 20,9 km/h (4 Bft) W 263 0 min 0,000 mm 0,0 UV-I 0 W/m 1,7 C -5,7 C 29,0 km/h (5 Bft) 96,15 %
23.02.2016 21:10 3,3 C 89 % 1013,4 hPa 0,0 l/m 20,3 km/h (4 Bft) W 269 0 min 0,000 mm 0,0 UV-I 0 W/m 1,7 C -5,5 C 32,2 km/h (5 Bft) 100,00 %
23.02.2016 21:11 3,3 C 89 % 1013,5 hPa 0,0 l/m 26,4 km/h (4 Bft) W 260 0 min 0,000 mm 0,0 UV-I 0 W/m 1,7 C -7,7 C 37,0 km/h (5 Bft) 95,83 %
23.02.2016 21:12 3,3 C 89 % 1013,5 hPa 0,0 l/m 15,4 km/h (3 Bft) W 278 0 min 0,000 mm 0,0 UV-I 0 W/m 1,7 C -3,2 C 24,1 km/h (4 Bft) 96,30 %
23.02.2016 21:13 3,3 C 89 % 1013,6 hPa 0,0 l/m 17,1 km/h (3 Bft) W 259 0 min 0,000 mm 0,0 UV-I 0 W/m 1,7 C -4,1 C 24,1 km/h (4 Bft) 95,65 %
23.02.2016 21:14 3,3 C 89 % 1013,6 hPa 0,0 l/m 24,9 km/h (4 Bft) W 265 0 min 0,000 mm 0,0 UV-I 0 W/m 1,7 C -7,2 C 30,6 km/h (5 Bft) 100,00 %
23.02.2016 21:15 3,3 C 89 % 1013,6 hPa 0,0 l/m 16,4 km/h (3 Bft) W-SW 246 0 min 0,000 mm 0,0 UV-I 0 W/m 1,7 C -3,7 C 20,9 km/h (4 Bft) 92,86 %
23.02.2016 21:16 3,3 C 89 % 1013,7 hPa 0,0 l/m 16,9 km/h (3 Bft) SW 234 0 min 0,000 mm 0,0 UV-I 0 W/m 1,7 C -4,0 C 22,5 km/h (4 Bft) 100,00 %
23.02.2016 21:17 3,3 C 90 % 1013,7 hPa 0,0 l/m 26,6 km/h (4 Bft) W-SW 245 0 min 0,000 mm 0,0 UV-I 0 W/m 1,8 C -7,8 C 37,0 km/h (5 Bft) 100,00 %
23.02.2016 21:18 3,3 C 89 % 1013,7 hPa 0,0 l/m 19,6 km/h (3 Bft) W-SW 252 0 min 0,000 mm 0,0 UV-I 0 W/m 1,7 C -5,2 C 24,1 km/h (4 Bft) 100,00 %
23.02.2016 21:19 3,3 C 89 % 1013,7 hPa 0,0 l/m 18,2 km/h (3 Bft) W-SW 252 0 min 0,000 mm 0,0 UV-I 0 W/m 1,7 C -4,6 C 24,1 km/h (4 Bft) 90,91 %
23.02.2016 21:20 3,3 C 90 % 1013,8 hPa 0,0 l/m 15,6 km/h (3 Bft) W-SW 251 0 min 0,000 mm 0,0 UV-I 0 W/m 1,8 C -3,3 C 19,3 km/h (3 Bft) 100,00 %
23.02.2016 21:21 3,3 C 90 % 1013,7 hPa 0,0 l/m 17,1 km/h (3 Bft) W-SW 245 0 min 0,000 mm 0,0 UV-I 0 W/m 1,8 C -4,1 C 20,9 km/h (4 Bft) 100,00 %
23.02.2016 21:22 3,3 C 90 % 1013,9 hPa 0,0 l/m 19,8 km/h (3 Bft) W 263 0 min 0,000 mm 0,0 UV-I 0 W/m 1,8 C -5,3 C 25,7 km/h (4 Bft) 95,83 %
23.02.2016 21:23 3,3 C 89 % 1013,9 hPa 0,0 l/m 23,7 km/h (4 Bft) W-SW 249 0 min 0,000 mm 0,0 UV-I 0 W/m 1,7 C -6,8 C 32,2 km/h (5 Bft) 100,00 %
23.02.2016 21:24 3,3 C 89 % 1014,0 hPa 0,0 l/m 18,3 km/h (3 Bft) W 263 0 min 0,000 mm 0,0 UV-I 0 W/m 1,7 C -4,6 C 24,1 km/h (4 Bft) 95,83 %
23.02.2016 21:25 3,3 C 89 % 1014,0 hPa 0,0 l/m 21,2 km/h (4 Bft) W-SW 253 0 min 0,000 mm 0,0 UV-I 0 W/m 1,7 C -5,9 C 27,4 km/h (4 Bft) 100,00 %
23.02.2016 21:26 3,3 C 89 % 1014,0 hPa 0,0 l/m 17,9 km/h (3 Bft) W 259 0 min 0,000 mm 0,0 UV-I 0 W/m 1,7 C -4,4 C 29,0 km/h (5 Bft) 100,00 %
23.02.2016 21:27 3,3 C 89 % 1014,0 hPa 0,0 l/m 18,8 km/h (3 Bft) W-SW 243 0 min 0,000 mm 0,0 UV-I 0 W/m 1,7 C -4,8 C 24,1 km/h (4 Bft) 96,67 %
23.02.2016 21:28 3,3 C 89 % 1014,1 hPa 0,0 l/m 15,6 km/h (3 Bft) W-SW 257 0 min 0,000 mm 0,0 UV-I 0 W/m 1,7 C -3,3 C 20,9 km/h (4 Bft) 100,00 %
23.02.2016 21:29 3,3 C 89 % 1014,2 hPa 0,0 l/m 22,0 km/h (4 Bft) W 267 0 min 0,000 mm 0,0 UV-I 0 W/m 1,7 C -6,2 C 25,7 km/h (4 Bft) 100,00 %
23.02.2016 21:30 3,2 C 89 % 1014,2 hPa 0,0 l/m 21,5 km/h (4 Bft) W 263 0 min 0,000 mm 0,0 UV-I 0 W/m 1,6 C -6,1 C 32,2 km/h (5 Bft) 100,00 %
23.02.2016 21:31 3,2 C 89 % 1014,2 hPa 0,0 l/m 18,7 km/h (3 Bft) W-SW 243 0 min 0,000 mm 0,0 UV-I 0 W/m 1,6 C -4,9 C 27,4 km/h (4 Bft) 100,00 %
23.02.2016 21:32 3,2 C 89 % 1014,2 hPa 0,0 l/m 17,3 km/h (3 Bft) W-SW 250 0 min 0,000 mm 0,0 UV-I 0 W/m 1,6 C -4,3 C 20,9 km/h (4 Bft) 100,00 %
23.02.2016 21:33 3,3 C 89 % 1014,3 hPa 0,0 l/m 16,6 km/h (3 Bft) SW 234 0 min 0,000 mm 0,0 UV-I 0 W/m 1,7 C -3,8 C 24,1 km/h (4 Bft) 100,00 %
23.02.2016 21:34 3,2 C 89 % 1014,3 hPa 0,0 l/m 17,2 km/h (3 Bft) W-SW 252 0 min 0,000 mm 0,0 UV-I 0 W/m 1,6 C -4,2 C 24,1 km/h (4 Bft) 100,00 %
23.02.2016 21:35 3,2 C 89 % 1014,3 hPa 0,0 l/m 15,6 km/h (3 Bft) W-SW 252 0 min 0,000 mm 0,0 UV-I 0 W/m 1,6 C -3,4 C 20,9 km/h (4 Bft) 100,00 %
23.02.2016 21:36 3,2 C 89 % 1014,4 hPa 0,0 l/m 16,4 km/h (3 Bft) W-SW 248 0 min 0,000 mm 0,0 UV-I 0 W/m 1,6 C -3,8 C 22,5 km/h (4 Bft) 100,00 %
23.02.2016 21:37 3,2 C 89 % 1014,3 hPa 0,0 l/m 13,7 km/h (3 Bft) W-SW 249 0 min 0,000 mm 0,0 UV-I 0 W/m 1,6 C -2,4 C 20,9 km/h (4 Bft) 100,00 %
23.02.2016 21:38 3,2 C 89 % 1014,3 hPa 0,0 l/m 16,9 km/h (3 Bft) SW 234 0 min 0,000 mm 0,0 UV-I 0 W/m 1,6 C -4,1 C 22,5 km/h (4 Bft) 98,57 %
23.02.2016 21:39 3,2 C 89 % 1014,4 hPa 0,0 l/m 22,0 km/h (4 Bft) W-SW 255 0 min 0,000 mm 0,0 UV-I 0 W/m 1,6 C -6,3 C 30,6 km/h (5 Bft) 100,00 %
23.02.2016 21:40 3,2 C 89 % 1014,4 hPa 0,0 l/m 21,1 km/h (4 Bft) W 260 0 min 0,000 mm 0,0 UV-I 0 W/m 1,6 C -5,9 C 30,6 km/h (5 Bft) 96,15 %
23.02.2016 21:41 3,2 C 89 % 1014,4 hPa 0,0 l/m 15,9 km/h (3 Bft) SW 236 0 min 0,000 mm 0,0 UV-I 0 W/m 1,6 C -3,6 C 25,7 km/h (4 Bft) 100,00 %
23.02.2016 21:42 3,2 C 89 % 1014,4 hPa 0,0 l/m 16,9 km/h (3 Bft) W-SW 256 0 min 0,000 mm 0,0 UV-I 0 W/m 1,6 C -4,1 C 22,5 km/h (4 Bft) 100,00 %
23.02.2016 21:43 3,2 C 89 % 1014,4 hPa 0,0 l/m 19,0 km/h (3 Bft) W-SW 252 0 min 0,000 mm 0,0 UV-I 0 W/m 1,6 C -5,1 C 30,6 km/h (5 Bft) 100,00 %
23.02.2016 21:44 3,2 C 89 % 1014,5 hPa 0,0 l/m 14,8 km/h (3 Bft) W 259 0 min 0,000 mm 0,0 UV-I 0 W/m 1,6 C -3,0 C 17,7 km/h (3 Bft) 100,00 %
23.02.2016 21:45 3,1 C 90 % 1014,5 hPa 0,0 l/m 13,7 km/h (3 Bft) W-SW 250 0 min 0,000 mm 0,0 UV-I 0 W/m 1,6 C -2,5 C 16,1 km/h (3 Bft) 100,00 %
23.02.2016 21:46 3,1 C 90 % 1014,6 hPa 0,0 l/m 23,4 km/h (4 Bft) W 265 0 min 0,000 mm 0,0 UV-I 0 W/m 1,6 C -7,0 C 30,6 km/h (5 Bft) 100,00 %
23.02.2016 21:47 3,1 C 89 % 1014,5 hPa 0,0 l/m 19,9 km/h (4 Bft) W-SW 256 0 min 0,000 mm 0,0 UV-I 0 W/m 1,5 C -5,6 C 25,7 km/h (4 Bft) 100,00 %
23.02.2016 21:48 3,1 C 89 % 1014,6 hPa 0,0 l/m 18,9 km/h (3 Bft) S-SW 211 0 min 0,000 mm 0,0 UV-I 0 W/m 1,5 C -5,1 C 25,7 km/h (4 Bft) 100,00 %
23.02.2016 21:49 3,1 C 89 % 1014,5 hPa 0,0 l/m 18,6 km/h (3 Bft) W-SW 242 0 min 0,000 mm 0,0 UV-I 0 W/m 1,5 C -5,0 C 25,7 km/h (4 Bft) 100,00 %
23.02.2016 21:50 3,1 C 90 % 1014,6 hPa 0,0 l/m 16,4 km/h (3 Bft) W-SW 253 0 min 0,000 mm 0,0 UV-I 0 W/m 1,6 C -4,0 C 20,9 km/h (4 Bft) 100,00 %
23.02.2016 21:51 3,1 C 90 % 1014,6 hPa 0,0 l/m 17,9 km/h (3 Bft) W-SW 251 0 min 0,000 mm 0,0 UV-I 0 W/m 1,6 C -4,7 C 27,4 km/h (4 Bft) 100,00 %
23.02.2016 21:52 3,1 C 90 % 1014,6 hPa 0,0 l/m 20,4 km/h (4 Bft) W 259 0 min 0,000 mm 0,0 UV-I 0 W/m 1,6 C -5,8 C 27,4 km/h (4 Bft) 100,00 %
23.02.2016 21:53 3,1 C 89 % 1014,7 hPa 0,0 l/m 22,4 km/h (4 Bft) W-SW 252 0 min 0,000 mm 0,0 UV-I 0 W/m 1,5 C -6,6 C 30,6 km/h (5 Bft) 100,00 %
23.02.2016 21:54 3,1 C 89 % 1014,7 hPa 0,0 l/m 17,5 km/h (3 Bft) W-SW 247 0 min 0,000 mm 0,0 UV-I 0 W/m 1,5 C -4,5 C 22,5 km/h (4 Bft) 100,00 %
23.02.2016 21:55 3,1 C 89 % 1014,8 hPa 0,0 l/m 26,9 km/h (4 Bft) W 264 0 min 0,000 mm 0,0 UV-I 0 W/m 1,5 C -8,1 C 35,4 km/h (5 Bft) 100,00 %
23.02.2016 21:56 3,0 C 89 % 1014,8 hPa 0,0 l/m 20,0 km/h (4 Bft) W-SW 252 0 min 0,000 mm 0,0 UV-I 0 W/m 1,4 C -5,8 C 27,4 km/h (4 Bft) 100,00 %
23.02.2016 21:57 3,0 C 89 % 1014,8 hPa 0,0 l/m 18,3 km/h (3 Bft) SW 236 0 min 0,000 mm 0,0 UV-I 0 W/m 1,4 C -5,0 C 24,1 km/h (4 Bft) 100,00 %
23.02.2016 21:58 3,0 C 89 % 1014,8 hPa 0,0 l/m 18,2 km/h (3 Bft) W 259 0 min 0,000 mm 0,0 UV-I 0 W/m 1,4 C -5,0 C 24,1 km/h (4 Bft) 100,00 %
23.02.2016 21:59 3,0 C 89 % 1014,8 hPa 0,0 l/m 15,0 km/h (3 Bft) W-SW 248 0 min 0,000 mm 0,0 UV-I 0 W/m 1,4 C -3,3 C 22,5 km/h (4 Bft) 95,65 %
23.02.2016 22:00 3,0 C 89 % 1014,8 hPa 0,0 l/m 16,6 km/h (3 Bft) W 259 0 min 0,000 mm 0,0 UV-I 0 W/m 1,4 C -4,2 C 20,9 km/h (4 Bft) 100,00 %
23.02.2016 22:02 2,9 C 90 % 1014,9 hPa 0,0 l/m 16,9 km/h (3 Bft) W-SW 249 0 min 0,025 mm 0,0 UV-I 0 W/m 1,4 C -4,5 C 29,0 km/h (5 Bft) 100,00 %
23.02.2016 22:03 2,9 C 89 % 1014,9 hPa 0,0 l/m 23,1 km/h (4 Bft) W-SW 245 0 min 0,000 mm 0,0 UV-I 0 W/m 1,3 C -7,1 C 32,2 km/h (5 Bft) 100,00 %
23.02.2016 22:04 2,9 C 89 % 1014,9 hPa 0,0 l/m 18,3 km/h (3 Bft) W-NW 283 0 min 0,000 mm 0,0 UV-I 0 W/m 1,3 C -5,1 C 20,9 km/h (4 Bft) 100,00 %
23.02.2016 22:05 2,9 C 89 % 1014,9 hPa 0,0 l/m 18,5 km/h (3 Bft) W 267 0 min 0,000 mm 0,0 UV-I 0 W/m 1,3 C -5,2 C 24,1 km/h (4 Bft) 100,00 %
23.02.2016 22:06 2,9 C 89 % 1014,9 hPa 0,0 l/m 14,0 km/h (3 Bft) W 275 0 min 0,000 mm 0,0 UV-I 0 W/m 1,3 C -2,9 C 19,3 km/h (3 Bft) 100,00 %
23.02.2016 22:07 2,9 C 89 % 1014,9 hPa 0,0 l/m 16,3 km/h (3 Bft) W-SW 241 0 min 0,000 mm 0,0 UV-I 0 W/m 1,3 C -4,2 C 24,1 km/h (4 Bft) 100,00 %
23.02.2016 22:08 2,9 C 90 % 1015,0 hPa 0,0 l/m 15,4 km/h (3 Bft) W-SW 239 0 min 0,000 mm 0,0 UV-I 0 W/m 1,4 C -3,7 C 20,9 km/h (4 Bft) 100,00 %
23.02.2016 22:09 2,9 C 90 % 1015,0 hPa 0,0 l/m 14,7 km/h (3 Bft) W-SW 243 0 min 0,000 mm 0,0 UV-I 0 W/m 1,4 C -3,3 C 20,9 km/h (4 Bft) 95,83 %
23.02.2016 22:10 2,8 C 90 % 1015,0 hPa 0,0 l/m 19,1 km/h (3 Bft) W 259 0 min 0,000 mm 0,0 UV-I 0 W/m 1,3 C -5,6 C 24,1 km/h (4 Bft) 100,00 %
23.02.2016 22:11 2,8 C 90 % 1015,0 hPa 0,0 l/m 15,1 km/h (3 Bft) W 271 0 min 0,000 mm 0,0 UV-I 0 W/m 1,3 C -3,6 C 19,3 km/h (3 Bft) 100,00 %
23.02.2016 22:12 2,8 C 90 % 1015,0 hPa 0,0 l/m 14,7 km/h (3 Bft) W 269 0 min 0,000 mm 0,0 UV-I 0 W/m 1,3 C -3,4 C 17,7 km/h (3 Bft) 100,00 %
23.02.2016 22:13 2,8 C 90 % 1015,1 hPa 0,0 l/m 15,7 km/h (3 Bft) W-SW 246 0 min 0,000 mm 0,0 UV-I 0 W/m 1,3 C -4,0 C 20,9 km/h (4 Bft) 100,00 %
23.02.2016 22:14 2,8 C 90 % 1015,1 hPa 0,0 l/m 15,0 km/h (3 Bft) W-SW 246 0 min 0,000 mm 0,0 UV-I 0 W/m 1,3 C -3,6 C 17,7 km/h (3 Bft) 100,00 %
23.02.2016 22:15 2,8 C 90 % 1015,1 hPa 0,0 l/m 16,6 km/h (3 Bft) W-SW 257 0 min 0,000 mm 0,0 UV-I 0 W/m 1,3 C -4,4 C 22,5 km/h (4 Bft) 95,83 %
23.02.2016 22:16 2,8 C 90 % 1015,1 hPa 0,0 l/m 20,6 km/h (4 Bft) W-SW 257 0 min 0,000 mm 0,0 UV-I 0 W/m 1,3 C -6,3 C 25,7 km/h (4 Bft) 100,00 %
23.02.2016 22:17 2,8 C 90 % 1015,2 hPa 0,0 l/m 18,6 km/h (3 Bft) W 275 0 min 0,000 mm 0,0 UV-I 0 W/m 1,3 C -5,4 C 24,1 km/h (4 Bft) 93,33 %
23.02.2016 22:18 2,8 C 90 % 1015,2 hPa 0,0 l/m 17,3 km/h (3 Bft) W 259 0 min 0,000 mm 0,0 UV-I 0 W/m 1,3 C -4,8 C 20,9 km/h (4 Bft) 100,00 %
23.02.2016 22:19 2,8 C 90 % 1015,2 hPa 0,0 l/m 20,6 km/h (4 Bft) W-SW 238 0 min 0,000 mm 0,0 UV-I 0 W/m 1,3 C -6,3 C 27,4 km/h (4 Bft) 100,00 %
23.02.2016 22:20 2,8 C 90 % 1015,3 hPa 0,0 l/m 23,1 km/h (4 Bft) W 281 0 min 0,000 mm 0,0 UV-I 0 W/m 1,3 C -7,2 C 29,0 km/h (5 Bft) 100,00 %
23.02.2016 22:21 2,7 C 90 % 1015,3 hPa 0,0 l/m 28,6 km/h (4 Bft) W-SW 255 0 min 0,000 mm 0,0 UV-I 0 W/m 1,2 C -9,2 C 38,6 km/h (5 Bft) 100,00 %
23.02.2016 22:22 2,7 C 90 % 1015,3 hPa 0,0 l/m 23,8 km/h (4 Bft) W-SW 253 0 min 0,000 mm 0,0 UV-I 0 W/m 1,2 C -7,6 C 27,4 km/h (4 Bft) 100,00 %
23.02.2016 22:23 2,7 C 90 % 1015,3 hPa 0,0 l/m 20,1 km/h (4 Bft) S-SW 211 0 min 0,000 mm 0,0 UV-I 0 W/m 1,2 C -6,2 C 29,0 km/h (5 Bft) 100,00 %
23.02.2016 22:24 2,7 C 90 % 1015,3 hPa 0,0 l/m 18,7 km/h (3 Bft) W 264 0 min 0,000 mm 0,0 UV-I 0 W/m 1,2 C -5,6 C 25,7 km/h (4 Bft) 100,00 %
23.02.2016 22:25 2,7 C 90 % 1015,3 hPa 0,0 l/m 16,6 km/h (3 Bft) W-SW 248 0 min 0,000 mm 0,0 UV-I 0 W/m 1,2 C -4,6 C 22,5 km/h (4 Bft) 100,00 %
23.02.2016 22:26 2,7 C 90 % 1015,4 hPa 0,0 l/m 19,4 km/h (3 Bft) W 268 0 min 0,000 mm 0,0 UV-I 0 W/m 1,2 C -5,9 C 24,1 km/h (4 Bft) 100,00 %
23.02.2016 22:27 2,7 C 90 % 1015,4 hPa 0,0 l/m 19,2 km/h (3 Bft) SW 229 0 min 0,000 mm 0,0 UV-I 0 W/m 1,2 C -5,8 C 25,7 km/h (4 Bft) 100,00 %
23.02.2016 22:28 2,6 C 90 % 1015,5 hPa 0,0 l/m 28,9 km/h (5 Bft) W-SW 241 0 min 0,000 mm 0,0 UV-I 0 W/m 1,1 C -9,4 C 37,0 km/h (5 Bft) 98,62 %
23.02.2016 22:29 2,6 C 90 % 1015,4 hPa 0,0 l/m 20,7 km/h (4 Bft) W 261 0 min 0,000 mm 0,0 UV-I 0 W/m 1,1 C -6,6 C 27,4 km/h (4 Bft) 100,00 %
23.02.2016 22:30 2,6 C 90 % 1015,3 hPa 0,0 l/m 17,5 km/h (3 Bft) SW 221 0 min 0,000 mm 0,0 UV-I 0 W/m 1,1 C -5,1 C 25,7 km/h (4 Bft) 100,00 %
23.02.2016 22:31 2,6 C 90 % 1015,4 hPa 0,0 l/m 23,3 km/h (4 Bft) W 263 0 min 0,000 mm 0,0 UV-I 0 W/m 1,1 C -7,6 C 29,0 km/h (5 Bft) 95,45 %
23.02.2016 22:32 2,6 C 90 % 1015,4 hPa 0,0 l/m 21,0 km/h (4 Bft) W 264 0 min 0,000 mm 0,0 UV-I 0 W/m 1,1 C -6,7 C 27,4 km/h (4 Bft) 100,00 %
23.02.2016 22:33 2,6 C 90 % 1015,4 hPa 0,0 l/m 20,2 km/h (4 Bft) W 259 0 min 0,000 mm 0,0 UV-I 0 W/m 1,1 C -6,4 C 29,0 km/h (5 Bft) 100,00 %
23.02.2016 22:34 2,6 C 90 % 1015,4 hPa 0,0 l/m 22,6 km/h (4 Bft) W 260 0 min 0,000 mm 0,0 UV-I 0 W/m 1,1 C -7,3 C 33,8 km/h (5 Bft) 100,00 %
23.02.2016 22:35 2,6 C 90 % 1015,5 hPa 0,0 l/m 20,8 km/h (4 Bft) W 271 0 min 0,000 mm 0,0 UV-I 0 W/m 1,1 C -6,6 C 25,7 km/h (4 Bft) 100,00 %
23.02.2016 22:36 2,6 C 90 % 1015,5 hPa 0,0 l/m 22,3 km/h (4 Bft) SW 223 0 min 0,000 mm 0,0 UV-I 0 W/m 1,1 C -7,2 C 30,6 km/h (5 Bft) 100,00 %
23.02.2016 22:37 2,6 C 90 % 1015,5 hPa 0,0 l/m 18,2 km/h (3 Bft) SW 230 0 min 0,000 mm 0,0 UV-I 0 W/m 1,1 C -5,5 C 24,1 km/h (4 Bft) 100,00 %
23.02.2016 22:38 2,6 C 90 % 1015,4 hPa 0,0 l/m 20,8 km/h (4 Bft) W-SW 255 0 min 0,000 mm 0,0 UV-I 0 W/m 1,1 C -6,6 C 30,6 km/h (5 Bft) 100,00 %
23.02.2016 22:39 2,6 C 90 % 1015,4 hPa 0,0 l/m 22,8 km/h (4 Bft) W-SW 240 0 min 0,000 mm 0,0 UV-I 0 W/m 1,1 C -7,4 C 27,4 km/h (4 Bft) 96,15 %
23.02.2016 22:40 2,6 C 90 % 1015,5 hPa 0,0 l/m 20,1 km/h (4 Bft) W 261 0 min 0,000 mm 0,0 UV-I 0 W/m 1,1 C -6,3 C 27,4 km/h (4 Bft) 100,00 %
23.02.2016 22:41 2,6 C 90 % 1015,5 hPa 0,0 l/m 24,8 km/h (4 Bft) SW 236 0 min 0,000 mm 0,0 UV-I 0 W/m 1,1 C -8,1 C 35,4 km/h (5 Bft) 100,00 %
23.02.2016 22:42 2,6 C 90 % 1015,5 hPa 0,0 l/m 18,3 km/h (3 Bft) W-SW 238 0 min 0,000 mm 0,0 UV-I 0 W/m 1,1 C -5,5 C 30,6 km/h (5 Bft) 96,30 %
23.02.2016 22:43 2,6 C 90 % 1015,5 hPa 0,0 l/m 21,2 km/h (4 Bft) W 267 0 min 0,000 mm 0,0 UV-I 0 W/m 1,1 C -6,8 C 32,2 km/h (5 Bft) 100,00 %
23.02.2016 22:44 2,6 C 90 % 1015,5 hPa 0,0 l/m 15,6 km/h (3 Bft) W-SW 246 0 min 0,000 mm 0,0 UV-I 0 W/m 1,1 C -4,2 C 22,5 km/h (4 Bft) 96,15 %
23.02.2016 22:45 2,6 C 90 % 1015,6 hPa 0,0 l/m 18,8 km/h (3 Bft) W-SW 254 0 min 0,000 mm 0,0 UV-I 0 W/m 1,1 C -5,7 C 32,2 km/h (5 Bft) 95,83 %
23.02.2016 22:46 2,6 C 90 % 1015,6 hPa 0,0 l/m 16,8 km/h (3 Bft) SW 215 0 min 0,000 mm 0,0 UV-I 0 W/m 1,1 C -4,8 C 25,7 km/h (4 Bft) 96,15 %
23.02.2016 22:47 2,6 C 90 % 1015,7 hPa 0,0 l/m 23,3 km/h (4 Bft) W 260 0 min 0,000 mm 0,0 UV-I 0 W/m 1,1 C -7,6 C 30,6 km/h (5 Bft) 100,00 %
23.02.2016 22:48 2,6 C 90 % 1015,7 hPa 0,0 l/m 18,7 km/h (3 Bft) W-SW 248 0 min 0,000 mm 0,0 UV-I 0 W/m 1,1 C -5,7 C 25,7 km/h (4 Bft) 92,86 %
23.02.2016 22:49 2,6 C 90 % 1015,7 hPa 0,0 l/m 15,8 km/h (3 Bft) SW 229 0 min 0,000 mm 0,0 UV-I 0 W/m 1,1 C -4,3 C 22,5 km/h (4 Bft) 100,00 %
23.02.2016 22:50 2,6 C 89 % 1015,7 hPa 0,0 l/m 15,4 km/h (3 Bft) S 182 0 min 0,000 mm 0,0 UV-I 0 W/m 1,0 C -4,1 C 22,5 km/h (4 Bft) 96,15 %
23.02.2016 22:51 2,6 C 89 % 1015,7 hPa 0,0 l/m 13,9 km/h (3 Bft) W-SW 238 0 min 0,000 mm 0,0 UV-I 0 W/m 1,0 C -3,2 C 20,9 km/h (4 Bft) 100,00 %
23.02.2016 22:52 2,7 C 89 % 1015,7 hPa 0,0 l/m 18,2 km/h (3 Bft) W-SW 238 0 min 0,000 mm 0,0 UV-I 0 W/m 1,1 C -5,3 C 29,0 km/h (5 Bft) 95,65 %
23.02.2016 22:53 2,7 C 89 % 1015,7 hPa 0,0 l/m 19,6 km/h (3 Bft) W-SW 254 0 min 0,000 mm 0,0 UV-I 0 W/m 1,1 C -6,0 C 27,4 km/h (4 Bft) 95,83 %
23.02.2016 22:54 2,7 C 89 % 1015,7 hPa 0,0 l/m 23,9 km/h (4 Bft) SW 236 0 min 0,000 mm 0,0 UV-I 0 W/m 1,1 C -7,7 C 35,4 km/h (5 Bft) 100,00 %
23.02.2016 22:55 2,7 C 89 % 1015,8 hPa 0,0 l/m 21,8 km/h (4 Bft) W-SW 256 0 min 0,000 mm 0,0 UV-I 0 W/m 1,1 C -6,9 C 29,0 km/h (5 Bft) 95,83 %
23.02.2016 22:56 2,7 C 89 % 1015,7 hPa 0,0 l/m 23,0 km/h (4 Bft) W-SW 254 0 min 0,000 mm 0,0 UV-I 0 W/m 1,1 C -7,3 C 25,7 km/h (4 Bft) 100,00 %
23.02.2016 22:57 2,7 C 89 % 1015,7 hPa 0,0 l/m 18,1 km/h (3 Bft) W-SW 254 0 min 0,000 mm 0,0 UV-I 0 W/m 1,1 C -5,3 C 24,1 km/h (4 Bft) 91,67 %
23.02.2016 22:58 2,7 C 89 % 1015,7 hPa 0,0 l/m 15,3 km/h (3 Bft) W-SW 240 0 min 0,000 mm 0,0 UV-I 0 W/m 1,1 C -3,9 C 19,3 km/h (3 Bft) 100,00 %
23.02.2016 22:59 2,7 C 89 % 1015,7 hPa 0,0 l/m 22,2 km/h (4 Bft) SW 226 0 min 0,000 mm 0,0 UV-I 0 W/m 1,1 C -7,0 C 29,0 km/h (5 Bft) 96,67 %
23.02.2016 23:00 2,7 C 89 % 1015,7 hPa 0,0 l/m 19,2 km/h (3 Bft) W-SW 258 0 min 0,000 mm 0,0 UV-I 0 W/m 1,1 C -5,8 C 27,4 km/h (4 Bft) 91,30 %
23.02.2016 23:01 2,7 C 89 % 1015,7 hPa 0,0 l/m 21,4 km/h (4 Bft) W-SW 254 0 min 0,025 mm 0,0 UV-I 0 W/m 1,1 C -6,7 C 35,4 km/h (5 Bft) 100,00 %
23.02.2016 23:02 2,7 C 89 % 1015,8 hPa 0,0 l/m 18,4 km/h (3 Bft) W-NW 292 0 min 0,000 mm 0,0 UV-I 0 W/m 1,1 C -5,4 C 22,5 km/h (4 Bft) 98,60 %
23.02.2016 23:03 2,7 C 89 % 1015,8 hPa 0,0 l/m 16,8 km/h (3 Bft) W 261 0 min 0,000 mm 0,0 UV-I 0 W/m 1,1 C -4,7 C 20,9 km/h (4 Bft) 97,87 %
23.02.2016 23:04 2,7 C 89 % 1015,8 hPa 0,0 l/m 20,8 km/h (4 Bft) W 266 0 min 0,000 mm 0,0 UV-I 0 W/m 1,1 C -6,5 C 29,0 km/h (5 Bft) 96,15 %
23.02.2016 23:05 2,7 C 89 % 1015,8 hPa 0,0 l/m 25,6 km/h (4 Bft) W-SW 255 0 min 0,000 mm 0,0 UV-I 0 W/m 1,1 C -8,3 C 32,2 km/h (5 Bft) 100,00 %
23.02.2016 23:06 2,7 C 89 % 1015,9 hPa 0,0 l/m 19,1 km/h (3 Bft) W-SW 255 0 min 0,000 mm 0,0 UV-I 0 W/m 1,1 C -5,7 C 29,0 km/h (5 Bft) 95,83 %
23.02.2016 23:07 2,7 C 89 % 1015,9 hPa 0,0 l/m 17,8 km/h (3 Bft) W 261 0 min 0,000 mm 0,0 UV-I 0 W/m 1,1 C -5,1 C 24,1 km/h (4 Bft) 100,00 %
23.02.2016 23:08 2,6 C 89 % 1016,0 hPa 0,0 l/m 20,0 km/h (4 Bft) W-SW 254 0 min 0,000 mm 0,0 UV-I 0 W/m 1,0 C -6,3 C 29,0 km/h (5 Bft) 95,83 %
23.02.2016 23:10 2,6 C 89 % 1016,0 hPa 0,2 l/m 23,1 km/h (4 Bft) W 265 0 min 0,000 mm 0,0 UV-I 0 W/m 1,0 C -7,5 C 27,4 km/h (4 Bft) 97,73 %
23.02.2016 23:11 2,7 C 89 % 1016,0 hPa 0,0 l/m 23,2 km/h (4 Bft) W-SW 238 0 min 0,000 mm 0,0 UV-I 0 W/m 1,1 C -7,4 C 33,8 km/h (5 Bft) 95,83 %
23.02.2016 23:12 2,6 C 89 % 1016,0 hPa 0,0 l/m 20,5 km/h (4 Bft) S-SW 209 0 min 0,000 mm 0,0 UV-I 0 W/m 1,0 C -6,5 C 27,4 km/h (4 Bft) 95,83 %
23.02.2016 23:13 2,6 C 89 % 1016,1 hPa 0,0 l/m 20,5 km/h (4 Bft) SW 228 0 min 0,000 mm 0,0 UV-I 0 W/m 1,0 C -6,5 C 32,2 km/h (5 Bft) 95,65 %
23.02.2016 23:14 2,6 C 89 % 1016,0 hPa 0,0 l/m 23,9 km/h (4 Bft) W-SW 258 0 min 0,000 mm 0,0 UV-I 0 W/m 1,0 C -7,8 C 32,2 km/h (5 Bft) 100,00 %
23.02.2016 23:15 2,6 C 89 % 1016,1 hPa 0,0 l/m 20,7 km/h (4 Bft) W-SW 257 0 min 0,000 mm 0,0 UV-I 0 W/m 1,0 C -6,6 C 29,0 km/h (5 Bft) 96,15 %
23.02.2016 23:16 2,6 C 89 % 1016,1 hPa 0,0 l/m 21,6 km/h (4 Bft) W 263 0 min 0,000 mm 0,0 UV-I 0 W/m 1,0 C -6,9 C 27,4 km/h (4 Bft) 96,30 %
23.02.2016 23:17 2,6 C 89 % 1016,0 hPa 0,0 l/m 21,4 km/h (4 Bft) SW 226 0 min 0,000 mm 0,0 UV-I 0 W/m 1,0 C -6,9 C 30,6 km/h (5 Bft) 100,00 %
23.02.2016 23:18 2,6 C 89 % 1016,0 hPa 0,0 l/m 17,4 km/h (3 Bft) W 269 0 min 0,000 mm 0,0 UV-I 0 W/m 1,0 C -5,1 C 22,5 km/h (4 Bft) 93,10 %
23.02.2016 23:19 2,6 C 89 % 1016,0 hPa 0,0 l/m 20,6 km/h (4 Bft) W 276 0 min 0,000 mm 0,0 UV-I 0 W/m 1,0 C -6,5 C 27,4 km/h (4 Bft) 100,00 %
23.02.2016 23:20 2,6 C 89 % 1016,0 hPa 0,0 l/m 27,8 km/h (4 Bft) W-SW 242 0 min 0,000 mm 0,0 UV-I 0 W/m 1,0 C -9,1 C 37,0 km/h (5 Bft) 100,00 %
23.02.2016 23:21 2,6 C 89 % 1016,0 hPa 0,0 l/m 23,7 km/h (4 Bft) W 259 0 min 0,000 mm 0,0 UV-I 0 W/m 1,0 C -7,7 C 29,0 km/h (5 Bft) 93,33 %
23.02.2016 23:22 2,6 C 89 % 1016,1 hPa 0,0 l/m 17,9 km/h (3 Bft) W-SW 245 0 min 0,000 mm 0,0 UV-I 0 W/m 1,0 C -5,3 C 25,7 km/h (4 Bft) 100,00 %
23.02.2016 23:23 2,6 C 89 % 1016,1 hPa 0,0 l/m 14,6 km/h (3 Bft) W 281 0 min 0,000 mm 0,0 UV-I 0 W/m 1,0 C -3,6 C 22,5 km/h (4 Bft) 100,00 %
23.02.2016 23:24 2,6 C 89 % 1016,1 hPa 0,0 l/m 16,5 km/h (3 Bft) W 280 0 min 0,000 mm 0,0 UV-I 0 W/m 1,0 C -4,6 C 22,5 km/h (4 Bft) 100,00 %
23.02.2016 23:25 2,6 C 89 % 1016,1 hPa 0,0 l/m 18,1 km/h (3 Bft) W-SW 238 0 min 0,000 mm 0,0 UV-I 0 W/m 1,0 C -5,4 C 27,4 km/h (4 Bft) 100,00 %
23.02.2016 23:26 2,6 C 89 % 1016,1 hPa 0,0 l/m 19,3 km/h (3 Bft) W-SW 255 0 min 0,000 mm 0,0 UV-I 0 W/m 1,0 C -6,0 C 27,4 km/h (4 Bft) 100,00 %
23.02.2016 23:27 2,6 C 89 % 1016,1 hPa 0,0 l/m 17,6 km/h (3 Bft) W-SW 248 0 min 0,000 mm 0,0 UV-I 0 W/m 1,0 C -5,2 C 24,1 km/h (4 Bft) 95,83 %
23.02.2016 23:28 2,6 C 89 % 1016,1 hPa 0,0 l/m 18,3 km/h (3 Bft) S-SW 207 0 min 0,000 mm 0,0 UV-I 0 W/m 1,0 C -5,5 C 24,1 km/h (4 Bft) 100,00 %
23.02.2016 23:29 2,6 C 89 % 1016,1 hPa 0,0 l/m 17,7 km/h (3 Bft) W-SW 256 0 min 0,000 mm 0,0 UV-I 0 W/m 1,0 C -5,2 C 29,0 km/h (5 Bft) 100,00 %
23.02.2016 23:30 2,6 C 89 % 1016,1 hPa 0,0 l/m 20,4 km/h (4 Bft) W 277 0 min 0,000 mm 0,0 UV-I 0 W/m 1,0 C -6,4 C 27,4 km/h (4 Bft) 100,00 %
23.02.2016 23:31 2,6 C 89 % 1016,0 hPa 0,0 l/m 18,1 km/h (3 Bft) W-SW 242 0 min 0,000 mm 0,0 UV-I 0 W/m 1,0 C -5,4 C 22,5 km/h (4 Bft) 100,00 %
23.02.2016 23:32 2,6 C 89 % 1016,2 hPa 0,0 l/m 16,6 km/h (3 Bft) W 270 0 min 0,000 mm 0,0 UV-I 0 W/m 1,0 C -4,7 C 20,9 km/h (4 Bft) 100,00 %
23.02.2016 23:33 2,6 C 89 % 1016,1 hPa 0,0 l/m 18,7 km/h (3 Bft) W-SW 255 0 min 0,000 mm 0,0 UV-I 0 W/m 1,0 C -5,7 C 27,4 km/h (4 Bft) 100,00 %
23.02.2016 23:34 2,6 C 89 % 1016,1 hPa 0,0 l/m 20,4 km/h (4 Bft) W 260 0 min 0,000 mm 0,0 UV-I 0 W/m 1,0 C -6,4 C 25,7 km/h (4 Bft) 100,00 %
23.02.2016 23:35 2,6 C 89 % 1016,2 hPa 0,0 l/m 17,8 km/h (3 Bft) W-SW 240 0 min 0,000 mm 0,0 UV-I 0 W/m 1,0 C -5,3 C 22,5 km/h (4 Bft) 100,00 %
23.02.2016 23:36 2,6 C 89 % 1016,1 hPa 0,0 l/m 16,7 km/h (3 Bft) SW 227 0 min 0,000 mm 0,0 UV-I 0 W/m 1,0 C -4,7 C 24,1 km/h (4 Bft) 100,00 %
23.02.2016 23:37 2,6 C 89 % 1016,1 hPa 0,0 l/m 17,2 km/h (3 Bft) W-SW 242 0 min 0,000 mm 0,0 UV-I 0 W/m 1,0 C -5,0 C 24,1 km/h (4 Bft) 100,00 %
23.02.2016 23:38 2,6 C 89 % 1016,1 hPa 0,0 l/m 15,7 km/h (3 Bft) W-SW 242 0 min 0,000 mm 0,0 UV-I 0 W/m 1,0 C -4,2 C 19,3 km/h (3 Bft) 100,00 %
23.02.2016 23:39 2,6 C 89 % 1016,2 hPa 0,0 l/m 18,8 km/h (3 Bft) W-SW 252 0 min 0,000 mm 0,0 UV-I 0 W/m 1,0 C -5,7 C 24,1 km/h (4 Bft) 100,00 %
23.02.2016 23:40 2,6 C 89 % 1016,2 hPa 0,0 l/m 18,1 km/h (3 Bft) W-SW 257 0 min 0,000 mm 0,0 UV-I 0 W/m 1,0 C -5,4 C 25,7 km/h (4 Bft) 100,00 %
23.02.2016 23:41 2,6 C 89 % 1016,2 hPa 0,0 l/m 15,7 km/h (3 Bft) W-SW 251 0 min 0,000 mm 0,0 UV-I 0 W/m 1,0 C -4,2 C 20,9 km/h (4 Bft) 100,00 %
23.02.2016 23:42 2,6 C 89 % 1016,3 hPa 0,0 l/m 18,0 km/h (3 Bft) W-SW 251 0 min 0,000 mm 0,0 UV-I 0 W/m 1,0 C -5,4 C 25,7 km/h (4 Bft) 100,00 %
23.02.2016 23:43 2,6 C 89 % 1016,3 hPa 0,0 l/m 16,9 km/h (3 Bft) W 263 0 min 0,000 mm 0,0 UV-I 0 W/m 1,0 C -4,8 C 20,9 km/h (4 Bft) 100,00 %
23.02.2016 23:44 2,6 C 89 % 1016,3 hPa 0,0 l/m 18,6 km/h (3 Bft) W-SW 255 0 min 0,000 mm 0,0 UV-I 0 W/m 1,0 C -5,7 C 24,1 km/h (4 Bft) 100,00 %
23.02.2016 23:45 2,6 C 89 % 1016,3 hPa 0,0 l/m 15,8 km/h (3 Bft) W 263 0 min 0,000 mm 0,0 UV-I 0 W/m 1,0 C -4,3 C 20,9 km/h (4 Bft) 100,00 %
23.02.2016 23:46 2,6 C 89 % 1016,4 hPa 0,0 l/m 11,0 km/h (2 Bft) W 267 0 min 0,000 mm 0,0 UV-I 0 W/m 1,0 C -1,3 C 16,1 km/h (3 Bft) 100,00 %
23.02.2016 23:47 2,6 C 89 % 1016,4 hPa 0,0 l/m 13,8 km/h (3 Bft) SW 217 0 min 0,000 mm 0,0 UV-I 0 W/m 1,0 C -3,1 C 17,7 km/h (3 Bft) 100,00 %
23.02.2016 23:48 2,6 C 89 % 1016,4 hPa 0,0 l/m 16,6 km/h (3 Bft) W-SW 237 0 min 0,000 mm 0,0 UV-I 0 W/m 1,0 C -4,7 C 27,4 km/h (4 Bft) 96,30 %
23.02.2016 23:49 2,6 C 89 % 1016,4 hPa 0,0 l/m 14,2 km/h (3 Bft) W 259 0 min 0,000 mm 0,0 UV-I 0 W/m 1,0 C -3,4 C 22,5 km/h (4 Bft) 100,00 %
23.02.2016 23:50 2,6 C 89 % 1016,4 hPa 0,0 l/m 18,9 km/h (3 Bft) W-SW 254 0 min 0,000 mm 0,0 UV-I 0 W/m 1,0 C -5,8 C 25,7 km/h (4 Bft) 100,00 %
23.02.2016 23:51 2,6 C 89 % 1016,4 hPa 0,0 l/m 16,3 km/h (3 Bft) W 260 0 min 0,000 mm 0,0 UV-I 0 W/m 1,0 C -4,5 C 19,3 km/h (3 Bft) 100,00 %
23.02.2016 23:52 2,6 C 89 % 1016,4 hPa 0,0 l/m 16,3 km/h (3 Bft) W-SW 252 0 min 0,000 mm 0,0 UV-I 0 W/m 1,0 C -4,5 C 20,9 km/h (4 Bft) 100,00 %
23.02.2016 23:53 2,6 C 90 % 1016,4 hPa 0,0 l/m 19,6 km/h (3 Bft) W 270 0 min 0,000 mm 0,0 UV-I 0 W/m 1,1 C -6,1 C 24,1 km/h (4 Bft) 100,00 %
23.02.2016 23:54 2,6 C 90 % 1016,4 hPa 0,0 l/m 16,4 km/h (3 Bft) SW 234 0 min 0,000 mm 0,0 UV-I 0 W/m 1,1 C -4,6 C 22,5 km/h (4 Bft) 100,00 %
23.02.2016 23:55 2,6 C 89 % 1016,5 hPa 0,0 l/m 19,7 km/h (3 Bft) SW 228 0 min 0,000 mm 0,0 UV-I 0 W/m 1,0 C -6,1 C 33,8 km/h (5 Bft) 100,00 %
23.02.2016 23:56 2,6 C 89 % 1016,4 hPa 0,0 l/m 17,2 km/h (3 Bft) S-SW 205 0 min 0,000 mm 0,0 UV-I 0 W/m 1,0 C -5,0 C 22,5 km/h (4 Bft) 100,00 %
23.02.2016 23:57 2,6 C 89 % 1016,4 hPa 0,0 l/m 17,3 km/h (3 Bft) W-SW 253 0 min 0,000 mm 0,0 UV-I 0 W/m 1,0 C -5,0 C 20,9 km/h (4 Bft) 95,65 %
23.02.2016 23:58 2,6 C 89 % 1016,4 hPa 0,0 l/m 12,1 km/h (2 Bft) W-SW 237 0 min 0,000 mm 0,0 UV-I 0 W/m 1,0 C -2,1 C 19,3 km/h (3 Bft) 100,00 %
23.02.2016 23:59 2,7 C 89 % 1016,4 hPa 0,0 l/m 16,1 km/h (3 Bft) W-SW 246 0 min 0,000 mm 0,0 UV-I 0 W/m 1,1 C -4,3 C 24,1 km/h (4 Bft) 100,00 %
_ Min-Zeit 22:28 00:32 17:03 - 11:17 - - - - - - 22:50 22:28 11:17 19:02
Minimum _ 2,6 C 49 % 1004,9 hPa - 2,5 km/h (1 Bft) - - - - - - 1,0 C -9,4 C 4,8 km/h (1 Bft) 86,67 %
_ Max-Zeit 00:43 21:17 23:55 12:07 02:56 - - 08:57 12:00 11:07 11:10 09:11 11:18 02:56 00:00
Maximum _ 12,8 C 90 % 1016,5 hPa 0,2 l/m 34,9 km/h
W (5 Bft)
- - 1 min 0,153 mm 1,4 UV-I 500 W/m 6,5 C 12,0 C 54,7 km/h
W-SW (7 Bft)
100,00 %
Durchschnitt _ 9,0 C 73 % 1008,4 hPa #1,4 l/m 15,7 km/h (3 Bft) W-SW - #1:07 h #1,676 mm 0,7 UV-I 121 W/m 4,2 C 3,9 C 22,4 km/h (4 Bft) 98,59 %